[[{"header":{"parameterUnit":"m.s-1","parameterCategory":1,"la1":31.0,"la2":29.5877,"lo1":-88.7671,"lo2":-86.6584,"dy":0.0162,"dx":0.0185,"nx":115,"ny":88,"refTime":"2026-03-26T00:00:00:Z","depth":0,"parameterNumber":2,"parameterNumberName":"U-component_of_WINDS"},"data":[0.0,0.0,0.0,0.0,0.0,0.0,0.0,0.0,0.0,0.0,0.0,0.0,0.0,0.0,0.0,0.0,0.0,0.0,0.0,0.0,0.0,0.0,0.0,0.0,0.0,0.0,0.0,0.0,0.0,0.0,0.0,0.0,0.0,0.0,0.0,0.0,0.0,0.0,0.0,0.0,0.0,0.0,0.0,0.0,0.0,0.0,0.0,0.0,0.0,0.0,0.0,0.0,0.0,0.0,0.0,0.0,0.0,0.0,0.0,0.0,0.0,0.0,0.0,0.0,0.0,0.0,0.0,0.0,0.0,0.0,0.0,0.0,0.0,0.0,0.0,0.0,0.0,0.0,0.0,0.0,0.0,0.0,0.0,0.0,0.0,0.0,0.0,0.0,0.0,0.0,0.0,0.0,0.0,0.0,0.0,0.0,0.0,0.0,0.0,0.0,0.0,0.0,0.0,0.0,0.0,0.0,0.0,0.0,0.0,0.0,0.0,0.0,0.0,0.0,0.0,0.0,0.0,0.0,0.0,0.0,0.0,0.0,0.0,0.0,0.0,0.0,0.0,0.0,0.0,0.0,0.0,0.0,0.0,0.0,0.0,0.0,0.0,0.0,0.0,0.0,0.0,0.0,0.0,0.0,0.0,0.0,0.0,0.0,0.0,0.0,0.0,0.0,0.0,0.0,0.0,0.0,0.0,0.0,0.0,0.0,0.0,0.0,0.0,0.0,0.0,0.0,0.0,0.0,0.0,0.0,0.0,0.0,0.0,0.0,0.0,0.0,0.0,0.0,0.0,0.0,0.0,0.0,0.0,0.0,0.0,0.0,0.0,0.0,0.0,0.0,0.0,0.0,0.0,0.0,0.0,0.0,0.0,0.0,0.0,0.0,0.0,0.0,0.0,0.0,0.0,0.0,0.0,0.0,0.0,0.0,0.0,0.0,0.0,0.0,0.0,0.0,0.0,0.0,0.0,0.0,0.0,0.0,0.0,0.0,0.0,0.0,0.0,0.0,0.0,0.0,0.0,0.0,0.0,0.0,0.0,0.0,0.0,0.0,0.0,0.0,0.0,0.0,0.0,0.0,0.0,0.0,0.0,0.0,0.0,0.0,0.0,0.0,0.0,0.0,0.0,0.0,0.0,0.0,0.0,0.0,0.0,0.0,0.0,0.0,0.0,0.0,0.0,0.0,0.0,0.0,0.0,0.0,0.0,0.0,0.0,0.0,0.0,0.0,0.0,0.0,0.0,0.0,0.0,0.0,0.0,0.0,0.0,0.0,0.0,0.0,0.0,0.0,0.0,0.0,0.0,0.0,0.0,0.0,0.0,0.0,0.0,0.0,0.0,0.0,0.0,0.0,0.0,0.0,0.0,0.0,0.0,0.0,0.0,0.0,0.0,0.0,0.0,0.0,0.0,0.0,0.0,0.0,0.0,0.0,0.0,0.0,0.0,0.0,0.0,0.0,0.0,0.0,0.0,0.0,0.0,0.0,0.0,0.0,0.0,0.0,0.0,0.0,0.0,0.0,0.0,0.0,0.0,0.0,0.0,0.0,0.0,0.0,0.0,0.0,0.0,0.0,0.0,0.0,0.0,0.0,0.0,0.0,0.0,0.0,0.0,0.0,0.0,0.0,0.0,0.0,0.0,0.0,0.0,0.0,0.0,0.0,0.0,0.0,0.0,0.0,0.0,0.0,0.0,0.0,0.0,0.0,0.0,0.0,0.0,0.0,0.0,0.0,0.0,0.0,0.0,0.0,0.0,0.0,0.0,0.0,0.0,0.0,0.0,0.0,0.0,0.0,0.0,0.0,0.0,0.0,0.0,0.0,0.0,0.0,0.0,0.0,0.0,0.0,0.0,0.0,0.0,0.0,0.0,0.0,0.0,0.0,0.0,0.0,0.0,0.0,0.0,0.0,0.0,0.0,0.0,0.0,0.0,0.0,0.0,0.0,0.0,0.0,0.0,0.0,0.0,0.0,0.0,0.0,0.0,0.0,0.0,0.0,0.0,0.0,0.0,0.0,0.0,0.0,0.0,0.0,0.0,0.0,0.0,0.0,0.0,0.0,0.0,0.0,0.0,0.0,0.0,0.0,0.0,0.0,0.0,0.0,0.0,0.0,0.0,0.0,0.0,0.0,0.0,0.0,0.0,0.0,0.0,0.0,0.0,0.0,0.0,0.0,0.0,0.0,0.0,0.0,0.0,0.0,0.0,0.0,0.0,0.0,0.0,0.0,0.0,0.0,0.0,0.0,0.0,0.0,0.0,0.0,0.0,0.0,0.0,0.0,0.0,0.0,0.0,0.0,0.0,0.0,0.0,0.0,0.0,0.0,0.0,0.0,0.0,0.0,0.0,0.0,0.0,0.0,0.0,0.0,0.0,0.0,0.0,0.0,0.0,0.0,0.0,0.0,0.0,0.0,0.0,0.0,0.0,0.0,0.0,0.0,0.0,0.0,0.0,0.0,0.0,0.0,0.0,0.0,0.0,0.0,0.0,0.0,0.0,0.0,0.0,0.0,0.0,0.0,0.0,0.0,0.0,0.0,0.0,0.0,0.0,0.0,0.0,0.0,0.0,0.0,0.0,0.0,0.0,0.0,0.0,0.0,0.0,0.0,0.0,0.0,0.0,0.0,0.0,0.0,0.0,0.0,0.0,0.0,0.0,0.0,0.0,0.0,0.0,0.0,0.0,0.0,0.0,0.0,0.0,0.0,0.0,0.0,0.0,0.0,0.0,0.0,0.0,0.0,0.0,0.0,0.0,0.0,0.0,0.0,0.0,0.0,0.0,0.0,0.0,0.0,0.0,0.0,0.0,0.0,0.0,0.0,0.0,0.0,0.0,0.0,0.0,0.0,0.0,0.0,0.0,0.0,0.0,0.0,0.0,0.0,0.0,0.0,0.0,0.0,0.0,0.0,0.0,0.0,0.0,0.0,0.0,0.0,0.0,0.0,0.0,0.0,0.0,0.0,0.0,0.0,0.0,0.0,0.0,0.0,0.0,0.0,0.0,0.0,0.0,0.0,0.0,0.0,0.0,0.0,0.0,0.0,0.0,0.0,0.0,0.0,0.0,0.0,0.0,0.0,0.0,0.0,0.0,0.0,0.0,0.0,0.0,0.0,0.0,0.0,0.0,0.0,0.0,0.0,0.0,0.0,0.0,0.0,0.0,0.0,0.0,0.0,0.0,0.0,0.0,0.0,0.0,0.0,0.0,0.0,0.0,0.0,0.0,0.0,0.0,0.0,0.0,0.0,0.0,0.0,0.0,0.0,0.0,0.0,0.0,0.0,0.0,0.0,0.0,0.0,0.0,0.0,0.0,0.0,0.0,0.0,0.0,0.0,0.0,0.0,0.0,0.0,0.0,0.0,0.0,0.0,0.0,0.0,0.0,0.0,0.0,0.0,0.0,0.0,0.0,0.0,0.0,0.0,0.0,0.0,0.0,0.0,0.0,0.0,0.0,0.0,0.0,0.0,0.0,0.0,0.0,0.0,0.0,0.0,0.0,0.0,0.0,0.0,0.0,0.0,0.0,0.0,0.0,0.0,0.0,0.0,0.0,0.0,0.0,0.0,0.0,0.0,0.0,0.0,0.0,0.0,0.0,0.0,0.0,0.0,0.0,0.0,0.0,0.0,0.0,0.0,0.0,0.0,0.0,0.0,0.0,0.0,0.0,0.0,0.0,0.0,0.0,0.0,0.0,0.0,0.0,0.0,0.0,0.0,0.0,0.0,0.0,0.0,0.0,0.0,0.0,0.0,0.0,0.0,0.0,0.0,0.0,0.0,0.0,0.0,0.0,0.0,0.0,0.0,0.0,0.0,0.0,0.0,0.0,0.0,0.0,0.0,0.0,0.0,0.0,0.0,0.0,0.0,0.0,0.0,0.0,0.0,0.0,0.0,0.0,0.0,0.0,0.0,0.0,0.0,0.0,0.0,0.0,0.0,0.0,0.0,0.0,0.0,0.0,0.0,0.0,0.0,0.0,0.0,0.0,0.0,0.0,0.0,0.0,0.0,0.0,0.0,0.0,0.0,0.0,0.0,0.0,0.0,0.0,0.0,0.0,0.0,0.0,0.0,0.0,0.0,0.0,0.0,0.0,0.0,0.0,0.0,0.0,0.0,0.0,0.0,0.0,0.0,0.0,0.0,0.0,0.0,0.0,0.0,0.0,0.0,0.0,0.0,0.0,0.0,0.0,0.0,0.0,0.0,0.0,0.0,0.0,0.0,0.0,0.0,0.0,0.0,0.0,0.0,0.0,0.0,0.0,0.0,0.0,0.0,-2.0901,0.0,0.0,0.0,0.0,0.0,0.0,0.0,0.0,0.0,0.0,0.0,0.0,0.0,0.0,0.0,0.0,0.0,0.0,0.0,0.0,0.0,0.0,0.0,0.0,0.0,0.0,0.0,0.0,0.0,0.0,0.0,0.0,0.0,0.0,0.0,0.0,0.0,0.0,0.0,0.0,0.0,0.0,0.0,0.0,0.0,0.0,0.0,0.0,0.0,0.0,0.0,0.0,0.0,0.0,0.0,0.0,0.0,0.0,0.0,0.0,0.0,0.0,0.0,0.0,0.0,0.0,0.0,0.0,0.0,0.0,0.0,0.0,0.0,0.0,0.0,0.0,0.0,0.0,0.0,0.0,0.0,0.0,0.0,0.0,0.0,0.0,0.0,0.0,0.0,0.0,0.0,0.0,0.0,0.0,0.0,0.0,0.0,0.0,0.0,0.0,0.0,0.0,0.0,0.0,0.0,0.0,0.0,0.0,0.0,0.0,-2.3007,-2.3007,-2.2672,-2.2011,-2.1046,0.0,0.0,0.0,0.0,0.0,0.0,0.0,0.0,0.0,0.0,0.0,0.0,0.0,0.0,0.0,0.0,0.0,0.0,0.0,0.0,0.0,0.0,0.0,0.0,0.0,0.0,0.0,0.0,0.0,0.0,0.0,0.0,0.0,0.0,0.0,0.0,0.0,0.0,0.0,0.0,0.0,0.0,0.0,0.0,0.0,0.0,0.0,0.0,0.0,0.0,0.0,0.0,0.0,0.0,0.0,0.0,0.0,0.0,0.0,0.0,0.0,0.0,0.0,0.0,0.0,0.0,0.0,0.0,0.0,0.0,0.0,0.0,0.0,0.0,0.0,0.0,0.0,0.0,0.0,0.0,0.0,0.0,0.0,0.0,0.0,0.0,0.0,0.0,0.0,0.0,0.0,0.0,0.0,0.0,0.0,0.0,0.0,0.0,0.0,0.0,0.0,0.0,0.0,0.0,0.0,0.0,0.0,0.0,0.0,0.0,0.0,0.0,-2.2975,-2.2301,-2.1017,0.0,0.0,0.0,0.0,0.0,0.0,0.0,0.0,0.0,0.0,0.0,0.0,0.0,0.0,0.0,0.0,0.0,0.0,0.0,0.0,0.0,0.0,0.0,0.0,0.0,0.0,0.0,0.0,0.0,0.0,0.0,0.0,0.0,0.0,0.0,0.0,0.0,0.0,0.0,0.0,0.0,0.0,0.0,0.0,0.0,0.0,0.0,0.0,0.0,0.0,0.0,0.0,0.0,0.0,0.0,0.0,0.0,0.0,0.0,0.0,0.0,0.0,0.0,0.0,0.0,0.0,0.0,0.0,0.0,0.0,0.0,0.0,0.0,0.0,0.0,0.0,0.0,0.0,0.0,0.0,0.0,0.0,0.0,0.0,0.0,0.0,0.0,0.0,0.0,0.0,0.0,0.0,0.0,0.0,0.0,0.0,0.0,0.0,0.0,0.0,0.0,0.0,0.0,0.0,0.0,0.0,0.0,0.0,0.0,0.0,-2.32,-2.3775,-2.32,0.0,-2.1046,0.0,0.0,0.0,0.0,0.0,0.0,0.0,0.0,0.0,0.0,0.0,0.0,0.0,0.0,0.0,0.0,0.0,0.0,0.0,0.0,0.0,0.0,0.0,0.0,0.0,0.0,0.0,0.0,0.0,0.0,0.0,0.0,0.0,0.0,0.0,0.0,0.0,0.0,0.0,0.0,0.0,0.0,0.0,0.0,0.0,0.0,0.0,0.0,0.0,0.0,0.0,0.0,0.0,0.0,0.0,0.0,0.0,0.0,0.0,0.0,0.0,0.0,0.0,0.0,0.0,0.0,0.0,0.0,0.0,0.0,0.0,0.0,0.0,0.0,0.0,0.0,0.0,0.0,0.0,0.0,0.0,0.0,0.0,0.0,0.0,0.0,0.0,0.0,0.0,0.0,0.0,0.0,0.0,0.0,0.0,0.0,0.0,0.0,0.0,0.0,0.0,0.0,0.0,0.0,0.0,0.0,0.0,0.0,0.0,0.0,-2.363,-2.3914,-2.2527,-2.1365,0.0,0.0,0.0,0.0,0.0,0.0,0.0,0.0,0.0,0.0,0.0,0.0,0.0,0.0,0.0,0.0,0.0,0.0,0.0,0.0,0.0,0.0,0.0,0.0,0.0,0.0,0.0,0.0,0.0,0.0,0.0,0.0,0.0,0.0,0.0,0.0,0.0,0.0,0.0,0.0,0.0,0.0,0.0,0.0,0.0,0.0,0.0,0.0,0.0,0.0,0.0,0.0,0.0,0.0,0.0,0.0,0.0,0.0,0.0,0.0,0.0,0.0,0.0,0.0,0.0,0.0,0.0,0.0,0.0,0.0,0.0,0.0,0.0,0.0,0.0,0.0,0.0,0.0,0.0,0.0,0.0,0.0,0.0,0.0,0.0,0.0,0.0,0.0,0.0,0.0,0.0,0.0,0.0,0.0,0.0,0.0,0.0,0.0,0.0,0.0,0.0,0.0,0.0,0.0,0.0,0.0,0.0,0.0,0.0,0.0,-2.3374,-2.3543,-2.331,-2.1808,-2.0619,-1.9836,0.0,0.0,0.0,0.0,0.0,0.0,0.0,0.0,0.0,0.0,0.0,0.0,0.0,0.0,0.0,0.0,0.0,0.0,0.0,0.0,0.0,0.0,0.0,0.0,0.0,0.0,0.0,0.0,0.0,0.0,0.0,0.0,0.0,0.0,0.0,0.0,0.0,0.0,0.0,0.0,0.0,0.0,0.0,0.0,0.0,0.0,0.0,0.0,0.0,0.0,0.0,0.0,0.0,0.0,0.0,0.0,0.0,0.0,0.0,0.0,0.0,0.0,0.0,0.0,0.0,0.0,0.0,0.0,0.0,0.0,0.0,0.0,0.0,0.0,0.0,0.0,0.0,0.0,0.0,0.0,0.0,0.0,0.0,0.0,0.0,0.0,0.0,0.0,0.0,0.0,0.0,0.0,0.0,0.0,0.0,0.0,0.0,0.0,0.0,0.0,0.0,0.0,0.0,0.0,0.0,0.0,0.0,0.0,0.0,-2.2917,-2.2678,-2.212,-2.131,-2.0316,0.0,0.0,0.0,0.0,0.0,0.0,0.0,0.0,0.0,0.0,0.0,0.0,0.0,0.0,0.0,0.0,0.0,0.0,0.0,0.0,0.0,0.0,0.0,0.0,0.0,0.0,0.0,0.0,0.0,0.0,0.0,0.0,0.0,0.0,0.0,0.0,0.0,0.0,0.0,0.0,0.0,0.0,0.0,0.0,0.0,0.0,0.0,0.0,0.0,0.0,0.0,0.0,0.0,0.0,0.0,0.0,0.0,0.0,0.0,0.0,0.0,0.0,0.0,0.0,0.0,0.0,0.0,0.0,0.0,0.0,0.0,0.0,0.0,0.0,0.0,0.0,0.0,0.0,0.0,0.0,0.0,0.0,0.0,0.0,0.0,0.0,0.0,0.0,0.0,0.0,0.0,0.0,0.0,0.0,0.0,0.0,0.0,0.0,0.0,0.0,0.0,0.0,0.0,0.0,0.0,0.0,0.0,0.0,0.0,-2.1721,-2.212,-2.2193,-2.1838,-2.0451,-1.9258,0.0,0.0,0.0,0.0,0.0,0.0,0.0,0.0,0.0,0.0,0.0,0.0,0.0,0.0,0.0,0.0,0.0,0.0,0.0,0.0,0.0,0.0,0.0,0.0,0.0,0.0,0.0,0.0,0.0,0.0,0.0,0.0,0.0,0.0,0.0,0.0,0.0,0.0,0.0,0.0,0.0,0.0,0.0,0.0,0.0,0.0,0.0,0.0,0.0,0.0,0.0,0.0,0.0,0.0,0.0,0.0,0.0,0.0,0.0,0.0,0.0,0.0,0.0,0.0,0.0,0.0,0.0,0.0,0.0,0.0,0.0,0.0,0.0,0.0,0.0,0.0,0.0,0.0,0.0,0.0,0.0,0.0,0.0,0.0,0.0,0.0,0.0,0.0,0.0,0.0,0.0,0.0,0.0,0.0,0.0,0.0,0.0,0.0,0.0,0.0,0.0,0.0,0.0,0.0,0.0,0.0,0.0,0.0,0.0,-2.1485,0.0,-2.1893,0.0,-1.9916,-1.8617,0.0,0.0,0.0,0.0,0.0,0.0,0.0,0.0,0.0,0.0,0.0,0.0,0.0,0.0,0.0,0.0,0.0,0.0,0.0,0.0,0.0,0.0,0.0,0.0,0.0,0.0,0.0,0.0,0.0,0.0,0.0,0.0,0.0,0.0,0.0,0.0,0.0,0.0,0.0,0.0,0.0,0.0,0.0,0.0,0.0,0.0,0.0,0.0,0.0,0.0,0.0,0.0,0.0,0.0,0.0,0.0,0.0,0.0,0.0,0.0,0.0,0.0,0.0,0.0,0.0,0.0,0.0,0.0,0.0,0.0,0.0,0.0,0.0,0.0,0.0,0.0,0.0,0.0,0.0,0.0,0.0,0.0,0.0,0.0,0.0,0.0,0.0,0.0,0.0,0.0,0.0,0.0,0.0,0.0,0.0,0.0,0.0,0.0,0.0,0.0,0.0,0.0,0.0,0.0,0.0,0.0,0.0,0.0,-2.2615,-2.2351,-2.2212,-2.1746,-2.1,-1.9743,-1.8446,0.0,0.0,0.0,0.0,0.0,0.0,0.0,0.0,0.0,0.0,0.0,0.0,0.0,0.0,0.0,0.0,0.0,0.0,0.0,0.0,0.0,0.0,0.0,0.0,0.0,0.0,0.0,0.0,0.0,0.0,0.0,0.0,0.0,0.0,0.0,0.0,0.0,0.0,0.0,0.0,0.0,0.0,0.0,0.0,0.0,0.0,0.0,0.0,0.0,0.0,0.0,0.0,0.0,0.0,0.0,0.0,0.0,0.0,0.0,0.0,0.0,0.0,0.0,0.0,0.0,0.0,0.0,0.0,0.0,0.0,0.0,0.0,0.0,0.0,0.0,0.0,0.0,0.0,0.0,0.0,0.0,0.0,0.0,0.0,0.0,0.0,0.0,0.0,0.0,0.0,0.0,0.0,0.0,0.0,0.0,0.0,0.0,0.0,0.0,0.0,0.0,0.0,0.0,0.0,0.0,0.0,0.0,0.0,0.0,-2.112,-2.1093,-2.0935,-2.0627,-1.9163,-1.8089,0.0,0.0,0.0,0.0,0.0,0.0,0.0,0.0,0.0,0.0,0.0,0.0,0.0,0.0,0.0,0.0,0.0,0.0,0.0,0.0,0.0,0.0,0.0,0.0,0.0,0.0,0.0,0.0,0.0,0.0,0.0,0.0,0.0,0.0,0.0,0.0,0.0,0.0,0.0,0.0,0.0,0.0,0.0,0.0,0.0,0.0,0.0,0.0,0.0,0.0,0.0,0.0,0.0,0.0,0.0,0.0,0.0,0.0,0.0,0.0,0.0,0.0,0.0,0.0,0.0,0.0,0.0,0.0,0.0,0.0,0.0,0.0,0.0,0.0,0.0,0.0,0.0,0.0,0.0,0.0,0.0,0.0,0.0,0.0,0.0,0.0,0.0,0.0,0.0,0.0,0.0,0.0,0.0,0.0,0.0,0.0,0.0,0.0,0.0,0.0,0.0,0.0,0.0,0.0,0.0,0.0,0.0,0.0,0.0,-2.1642,-2.164,-2.1508,-2.1221,-1.9781,-1.8652,-1.7923,0.0,0.0,0.0,0.0,0.0,0.0,0.0,0.0,0.0,0.0,0.0,0.0,0.0,0.0,0.0,0.0,0.0,0.0,0.0,0.0,0.0,0.0,0.0,0.0,0.0,0.0,0.0,0.0,0.0,0.0,0.0,0.0,0.0,0.0,0.0,0.0,0.0,0.0,0.0,0.0,0.0,0.0,0.0,0.0,0.0,0.0,0.0,0.0,0.0,0.0,0.0,0.0,0.0,0.0,0.0,0.0,0.0,0.0,0.0,0.0,0.0,0.0,0.0,0.0,0.0,0.0,0.0,0.0,0.0,0.0,0.0,0.0,0.0,0.0,0.0,0.0,0.0,0.0,0.0,0.0,0.0,0.0,0.0,0.0,0.0,0.0,0.0,0.0,0.0,0.0,0.0,0.0,0.0,0.0,0.0,0.0,0.0,0.0,0.0,0.0,0.0,0.0,0.0,0.0,0.0,0.0,0.0,0.0,-2.3719,-2.3728,-2.3326,-2.2527,-2.1395,-1.9986,0.0,0.0,0.0,0.0,0.0,0.0,0.0,0.0,0.0,0.0,0.0,0.0,0.0,0.0,0.0,0.0,0.0,0.0,0.0,0.0,0.0,0.0,0.0,0.0,0.0,0.0,0.0,0.0,0.0,0.0,0.0,0.0,0.0,0.0,0.0,0.0,0.0,0.0,0.0,0.0,0.0,0.0,0.0,0.0,0.0,0.0,0.0,0.0,0.0,0.0,0.0,0.0,0.0,0.0,0.0,0.0,0.0,0.0,0.0,0.0,0.0,0.0,0.0,0.0,0.0,0.0,0.0,0.0,0.0,0.0,0.0,0.0,0.0,0.0,0.0,0.0,0.0,0.0,0.0,0.0,0.0,0.0,0.0,0.0,0.0,0.0,0.0,0.0,0.0,0.0,0.0,0.0,0.0,0.0,0.0,0.0,0.0,0.0,0.0,0.0,0.0,0.0,0.0,0.0,0.0,0.0,0.0,0.0,0.0,-2.5613,-2.6639,-2.6152,-2.4025,-2.2542,-2.1204,0.0,0.0,0.0,0.0,0.0,0.0,0.0,0.0,0.0,0.0,0.0,0.0,0.0,0.0,0.0,0.0,0.0,0.0,0.0,0.0,0.0,0.0,0.0,0.0,0.0,0.0,0.0,0.0,0.0,0.0,0.0,0.0,0.0,0.0,0.0,0.0,0.0,0.0,0.0,0.0,0.0,0.0,0.0,0.0,0.0,0.0,0.0,0.0,0.0,0.0,0.0,0.0,0.0,0.0,0.0,0.0,0.0,0.0,0.0,0.0,0.0,0.0,0.0,0.0,0.0,0.0,0.0,0.0,0.0,0.0,0.0,0.0,0.0,0.0,0.0,0.0,0.0,0.0,0.0,0.0,0.0,0.0,0.0,0.0,0.0,0.0,0.0,0.0,0.0,0.0,0.0,0.0,0.0,0.0,0.0,0.0,0.0,0.0,0.0,0.0,0.0,0.0,0.0,0.0,0.0,0.0,0.0,0.0,-2.4682,-2.6892,-2.865,-2.845,-2.6225,-2.4218,-2.2462,0.0,0.0,0.0,0.0,0.0,0.0,0.0,0.0,0.0,0.0,0.0,0.0,0.0,0.0,0.0,0.0,0.0,0.0,0.0,0.0,0.0,0.0,0.0,0.0,0.0,0.0,0.0,0.0,0.0,0.0,0.0,0.0,0.0,0.0,0.0,0.0,0.0,0.0,0.0,0.0,0.0,0.0,0.0,0.0,0.0,0.0,0.0,0.0,0.0,0.0,0.0,0.0,0.0,0.0,0.0,0.0,0.0,0.0,0.0,0.0,0.0,0.0,0.0,0.0,0.0,0.0,0.0,0.0,0.0,0.0,0.0,0.0,0.0,0.0,0.0,0.0,0.0,0.0,0.0,0.0,0.0,0.0,0.0,0.0,0.0,0.0,0.0,0.0,0.0,0.0,0.0,0.0,0.0,0.0,0.0,0.0,0.0,0.0,0.0,0.0,0.0,0.0,0.0,0.0,0.0,0.0,0.0,0.0,-2.5372,-2.7882,-3.0037,-3.0398,-2.8835,-2.6214,-2.3785,0.0,0.0,0.0,0.0,0.0,0.0,0.0,0.0,0.0,0.0,0.0,0.0,0.0,0.0,0.0,0.0,0.0,0.0,0.0,0.0,0.0,0.0,0.0,0.0,0.0,0.0,0.0,0.0,0.0,0.0,0.0,0.0,0.0,0.0,0.0,0.0,0.0,0.0,0.0,0.0,0.0,0.0,0.0,0.0,0.0,0.0,0.0,0.0,0.0,0.0,0.0,0.0,0.0,0.0,0.0,0.0,0.0,0.0,0.0,0.0,0.0,0.0,0.0,0.0,0.0,0.0,0.0,0.0,0.0,0.0,0.0,0.0,0.0,0.0,0.0,0.0,0.0,0.0,0.0,0.0,0.0,0.0,0.0,0.0,0.0,0.0,0.0,0.0,0.0,0.0,0.0,0.0,0.0,0.0,0.0,0.0,0.0,0.0,0.0,0.0,0.0,0.0,0.0,0.0,0.0,0.0,0.0,0.0,-2.7344,-2.9532,-3.1673,-3.2202,-3.1023,-2.8017,-2.542,0.0,0.0,0.0,0.0,0.0,0.0,0.0,0.0,0.0,0.0,0.0,0.0,0.0,0.0,0.0,0.0,0.0,0.0,0.0,0.0,0.0,0.0,0.0,0.0,0.0,0.0,0.0,0.0,0.0,0.0,0.0,0.0,0.0,0.0,0.0,0.0,0.0,0.0,0.0,0.0,0.0,0.0,0.0,0.0,0.0,0.0,0.0,0.0,-1.3089,0.0,0.0,0.0,0.0,0.0,0.0,0.0,0.0,0.0,0.0,0.0,0.0,0.0,0.0,0.0,0.0,0.0,0.0,0.0,0.0,0.0,0.0,0.0,0.0,0.0,0.0,0.0,0.0,0.0,0.0,0.0,0.0,0.0,0.0,0.0,0.0,0.0,0.0,0.0,0.0,0.0,0.0,0.0,0.0,0.0,0.0,0.0,0.0,0.0,0.0,0.0,0.0,0.0,0.0,0.0,0.0,0.0,0.0,0.0,-2.8691,-3.0783,-3.2442,-3.2779,-3.1693,-2.9556,-2.7176,0.0,0.0,0.0,0.0,0.0,0.0,0.0,0.0,0.0,0.0,0.0,0.0,0.0,0.0,0.0,0.0,0.0,0.0,0.0,0.0,0.0,0.0,0.0,0.0,0.0,0.0,0.0,0.0,0.0,0.0,0.0,0.0,0.0,0.0,0.0,0.0,0.0,0.0,0.0,0.0,0.0,0.0,0.0,0.0,0.0,0.0,0.0,0.0,0.0,0.0,0.0,0.0,0.0,0.0,0.0,0.0,0.0,0.0,0.0,0.0,0.0,0.0,0.0,0.0,0.0,0.0,0.0,0.0,0.0,0.0,0.0,0.0,0.0,0.0,0.0,0.0,0.0,0.0,0.0,0.0,0.0,0.0,0.0,0.0,0.0,0.0,0.0,0.0,0.0,0.0,0.0,0.0,0.0,0.0,0.0,0.0,0.0,0.0,0.0,0.0,0.0,0.0,0.0,0.0,0.0,0.0,0.0,-2.7368,-2.9517,-3.1499,-3.2693,-3.2741,-3.1639,-3.0515,-2.8435,-2.5278,0.0,0.0,0.0,0.0,0.0,0.0,0.0,0.0,0.0,0.0,0.0,0.0,0.0,0.0,0.0,0.0,0.0,0.0,0.0,0.0,0.0,0.0,0.0,0.0,0.0,0.0,0.0,0.0,0.0,0.0,0.0,0.0,0.0,0.0,0.0,0.0,0.0,0.0,-1.1961,-1.2939,0.0,0.0,0.0,0.0,0.0,0.0,0.0,0.0,-1.2048,0.0,0.0,0.0,0.0,0.0,0.0,0.0,0.0,0.0,0.0,0.0,0.0,0.0,0.0,0.0,0.0,0.0,0.0,0.0,0.0,0.0,0.0,0.0,0.0,0.0,0.0,0.0,0.0,0.0,0.0,0.0,0.0,0.0,0.0,0.0,0.0,0.0,0.0,0.0,0.0,0.0,0.0,0.0,0.0,0.0,0.0,0.0,0.0,0.0,0.0,0.0,0.0,0.0,0.0,0.0,0.0,-2.4515,-2.7204,-2.9383,-3.1021,-3.2453,-3.2547,-3.1159,-2.9746,-2.7627,-2.4751,0.0,0.0,0.0,0.0,0.0,0.0,0.0,0.0,0.0,0.0,0.0,0.0,0.0,0.0,0.0,0.0,0.0,0.0,0.0,0.0,0.0,0.0,0.0,0.0,0.0,0.0,0.0,0.0,0.0,0.0,0.0,0.0,0.0,0.0,0.0,0.0,0.0,0.0,0.0,-1.471,-1.5402,0.0,0.0,0.0,0.0,0.0,0.0,0.0,0.0,-1.2528,0.0,0.0,0.0,0.0,0.0,0.0,0.0,0.0,0.0,0.0,0.0,0.0,0.0,0.0,0.0,0.0,0.0,0.0,0.0,0.0,0.0,0.0,0.0,0.0,0.0,0.0,0.0,0.0,0.0,0.0,0.0,0.0,0.0,0.0,0.0,0.0,0.0,0.0,0.0,0.0,0.0,0.0,0.0,0.0,0.0,0.0,0.0,0.0,0.0,0.0,0.0,0.0,0.0,0.0,0.0,-2.4649,-2.7287,-2.9237,-3.0443,-3.1475,-3.13,-2.9868,-2.8272,-2.6114,0.0,0.0,0.0,0.0,0.0,0.0,0.0,0.0,0.0,0.0,0.0,0.0,0.0,0.0,0.0,0.0,0.0,0.0,0.0,0.0,0.0,0.0,0.0,0.0,0.0,0.0,0.0,0.0,0.0,0.0,0.0,0.0,0.0,0.0,0.0,0.0,0.0,0.0,0.0,0.0,-1.5343,-1.5706,-1.5466,0.0,0.0,0.0,0.0,0.0,0.0,-1.225,-1.2302,0.0,0.0,0.0,0.0,0.0,0.0,0.0,0.0,0.0,0.0,0.0,0.0,0.0,0.0,0.0,0.0,0.0,0.0,0.0,0.0,0.0,0.0,0.0,0.0,0.0,0.0,0.0,0.0,0.0,0.0,0.0,0.0,0.0,0.0,0.0,0.0,0.0,0.0,0.0,0.0,0.0,0.0,0.0,0.0,0.0,0.0,0.0,0.0,0.0,0.0,0.0,0.0,0.0,0.0,0.0,-2.4653,-2.7238,-2.8916,-2.978,-3.05,-3.0067,-2.8516,-2.6693,-2.4566,0.0,0.0,0.0,0.0,0.0,0.0,0.0,0.0,0.0,0.0,0.0,0.0,0.0,0.0,0.0,0.0,0.0,0.0,0.0,0.0,0.0,0.0,0.0,0.0,0.0,0.0,0.0,0.0,0.0,0.0,0.0,0.0,0.0,0.0,0.0,0.0,0.0,0.0,0.0,0.0,0.0,-1.6056,-1.6338,-1.6596,0.0,0.0,0.0,0.0,-1.2263,-1.2321,0.0,0.0,0.0,0.0,0.0,0.0,0.0,0.0,0.0,0.0,0.0,0.0,0.0,0.0,0.0,0.0,0.0,0.0,0.0,0.0,0.0,0.0,0.0,0.0,0.0,0.0,0.0,0.0,0.0,0.0,0.0,0.0,0.0,0.0,0.0,0.0,0.0,0.0,0.0,0.0,0.0,0.0,0.0,0.0,0.0,0.0,0.0,0.0,0.0,0.0,0.0,0.0,0.0,0.0,0.0,0.0,-2.3825,-2.6547,-2.8237,-2.8778,-2.9985,-2.9589,-2.7425,-2.5618,-2.3549,0.0,0.0,0.0,0.0,0.0,0.0,0.0,0.0,0.0,0.0,0.0,0.0,0.0,0.0,0.0,0.0,0.0,0.0,0.0,0.0,0.0,0.0,0.0,0.0,0.0,0.0,0.0,0.0,0.0,0.0,0.0,0.0,0.0,0.0,0.0,0.0,0.0,0.0,0.0,0.0,0.0,-1.7473,-1.637,-1.7493,-1.7679,0.0,0.0,-1.5085,-1.3911,-1.3757,0.0,0.0,0.0,0.0,0.0,0.0,0.0,0.0,0.0,0.0,0.0,0.0,0.0,0.0,0.0,0.0,0.0,0.0,0.0,0.0,0.0,0.0,0.0,0.0,0.0,0.0,0.0,0.0,0.0,0.0,0.0,0.0,0.0,0.0,0.0,0.0,0.0,0.0,0.0,0.0,0.0,0.0,0.0,0.0,0.0,0.0,0.0,0.0,0.0,0.0,0.0,0.0,0.0,0.0,0.0,-2.0819,-2.3268,-2.598,-2.7643,-2.8104,-2.8906,-2.8333,-2.6392,-2.4611,-2.2493,0.0,0.0,0.0,0.0,0.0,0.0,0.0,0.0,0.0,0.0,0.0,0.0,0.0,0.0,0.0,0.0,0.0,0.0,0.0,0.0,0.0,0.0,0.0,0.0,0.0,0.0,0.0,0.0,0.0,0.0,0.0,0.0,0.0,0.0,0.0,0.0,0.0,0.0,0.0,0.0,0.0,0.0,-1.7046,-1.8127,0.0,0.0,0.0,-1.628,-1.5449,0.0,0.0,0.0,0.0,0.0,0.0,0.0,0.0,0.0,0.0,0.0,0.0,0.0,0.0,0.0,0.0,0.0,0.0,0.0,0.0,0.0,0.0,0.0,0.0,0.0,0.0,0.0,0.0,0.0,0.0,0.0,0.0,0.0,0.0,0.0,0.0,0.0,0.0,0.0,0.0,0.0,0.0,0.0,0.0,0.0,0.0,0.0,0.0,0.0,0.0,0.0,0.0,0.0,0.0,0.0,0.0,0.0,-2.3086,-2.577,-2.7324,-2.7728,-2.8281,-2.7754,-2.5937,-2.427,0.0,0.0,0.0,0.0,0.0,0.0,0.0,0.0,0.0,0.0,0.0,0.0,0.0,0.0,0.0,0.0,0.0,0.0,0.0,0.0,0.0,0.0,0.0,0.0,0.0,0.0,0.0,-0.876,0.0,0.0,0.0,0.0,0.0,0.0,0.0,0.0,0.0,0.0,0.0,0.0,0.0,0.0,-1.8611,-1.7745,-1.8748,-1.904,0.0,0.0,-1.717,-1.6443,-1.6412,-1.5794,0.0,0.0,0.0,0.0,0.0,0.0,0.0,0.0,0.0,0.0,0.0,0.0,0.0,0.0,0.0,0.0,0.0,0.0,0.0,0.0,0.0,0.0,0.0,0.0,0.0,0.0,0.0,0.0,0.0,0.0,0.0,0.0,0.0,0.0,0.0,0.0,0.0,0.0,0.0,0.0,0.0,0.0,0.0,0.0,0.0,0.0,0.0,0.0,0.0,0.0,0.0,0.0,0.0,0.0,-2.0458,-2.3371,-2.6173,-2.7637,-2.7748,-2.8922,-2.8476,-2.6406,-2.5039,-2.3149,0.0,0.0,0.0,0.0,0.0,0.0,0.0,0.0,0.0,0.0,0.0,0.0,0.0,0.0,0.0,0.0,0.0,0.0,0.0,0.0,0.0,0.0,0.0,0.0,0.0,0.0,0.0,0.0,0.0,0.0,0.0,0.0,0.0,0.0,0.0,0.0,0.0,0.0,0.0,0.0,0.0,-1.8606,-1.8289,-1.9417,-1.9789,0.0,-1.8225,-1.7823,-1.6662,-1.6503,-1.5909,-1.4251,0.0,0.0,0.0,0.0,0.0,0.0,0.0,0.0,0.0,0.0,0.0,0.0,0.0,0.0,0.0,0.0,0.0,0.0,0.0,0.0,0.0,0.0,0.0,0.0,0.0,0.0,0.0,0.0,0.0,0.0,0.0,0.0,0.0,0.0,0.0,0.0,0.0,0.0,0.0,0.0,0.0,0.0,0.0,0.0,0.0,0.0,0.0,0.0,0.0,0.0,0.0,0.0,0.0,-2.0644,-2.3649,-2.6573,-2.8047,-2.8086,-2.9098,-2.8726,-2.6816,-2.5781,-2.3887,0.0,0.0,0.0,0.0,0.0,0.0,0.0,0.0,0.0,0.0,0.0,0.0,0.0,0.0,0.0,0.0,0.0,0.0,0.0,0.0,0.0,0.0,0.0,0.0,0.0,0.0,0.0,0.0,-0.9145,-0.9193,-0.9447,0.0,0.0,0.0,0.0,0.0,0.0,0.0,0.0,0.0,0.0,-1.8148,-1.8188,-1.9219,0.0,0.0,-1.864,-1.8218,-1.7362,-1.6937,-1.6173,-1.4552,-1.3476,0.0,0.0,0.0,0.0,0.0,0.0,0.0,0.0,0.0,0.0,0.0,0.0,0.0,0.0,0.0,0.0,0.0,0.0,0.0,0.0,0.0,0.0,0.0,0.0,0.0,0.0,0.0,0.0,0.0,0.0,0.0,0.0,0.0,0.0,0.0,0.0,0.0,0.0,0.0,0.0,0.0,0.0,0.0,0.0,0.0,0.0,0.0,0.0,0.0,0.0,0.0,0.0,-2.0957,-2.3965,-2.6953,-2.8476,-2.8476,-2.9199,-2.8867,-2.7441,-2.6445,-2.4582,0.0,0.0,0.0,0.0,0.0,0.0,0.0,0.0,0.0,0.0,0.0,0.0,0.0,0.0,0.0,0.0,0.0,0.0,0.0,0.0,0.0,0.0,0.0,0.0,0.0,0.0,0.0,0.0,-0.9392,-0.9388,-0.9999,0.0,0.0,0.0,0.0,0.0,0.0,0.0,0.0,0.0,0.0,-1.7716,-1.8054,-1.9088,-1.9648,-1.9068,-1.8769,-1.832,-1.7491,-1.6992,-1.6202,-1.4782,0.0,0.0,0.0,0.0,0.0,0.0,0.0,0.0,0.0,0.0,0.0,0.0,0.0,0.0,0.0,0.0,0.0,0.0,0.0,0.0,0.0,0.0,0.0,0.0,0.0,0.0,0.0,-1.253,0.0,0.0,-1.2629,0.0,0.0,0.0,0.0,0.0,0.0,0.0,0.0,0.0,0.0,0.0,0.0,0.0,0.0,0.0,0.0,0.0,0.0,0.0,0.0,0.0,0.0,-2.1387,-2.4375,-2.7363,-2.8906,-2.8926,-2.9355,-2.9215,-2.8262,-2.7031,-2.5352,-2.3125,0.0,0.0,0.0,0.0,0.0,0.0,0.0,0.0,0.0,0.0,0.0,0.0,0.0,0.0,0.0,0.0,0.0,0.0,0.0,0.0,0.0,0.0,0.0,0.0,0.0,0.0,-1.0312,-0.9905,-0.9873,0.0,0.0,0.0,0.0,0.0,0.0,0.0,0.0,0.0,0.0,-1.6252,-1.7378,-1.8027,-1.9127,-1.9582,-1.8852,-1.8705,-1.8193,-1.6748,-1.6495,-1.6004,0.0,0.0,0.0,0.0,0.0,0.0,0.0,0.0,0.0,0.0,0.0,0.0,0.0,0.0,0.0,0.0,0.0,0.0,0.0,0.0,0.0,0.0,0.0,0.0,0.0,0.0,0.0,-1.4591,-1.4414,0.0,0.0,0.0,0.0,0.0,0.0,0.0,0.0,0.0,0.0,0.0,-1.9924,-1.9794,0.0,0.0,0.0,0.0,0.0,0.0,0.0,0.0,0.0,0.0,0.0,0.0,-2.1877,-2.4805,-2.7539,-2.9062,-2.9355,-2.9766,-2.9453,-2.832,-2.7441,-2.5324,-2.1935,0.0,0.0,0.0,0.0,0.0,0.0,0.0,0.0,0.0,0.0,0.0,0.0,0.0,0.0,0.0,0.0,0.0,0.0,0.0,0.0,0.0,0.0,0.0,0.0,0.0,-1.0846,0.0,0.0,0.0,0.0,0.0,0.0,0.0,0.0,0.0,0.0,0.0,-1.3411,-1.4743,-1.5782,-1.6812,-1.7856,-1.8591,-1.8947,0.0,0.0,0.0,0.0,0.0,0.0,0.0,0.0,0.0,0.0,0.0,0.0,0.0,0.0,-1.4,-1.3571,-1.2969,-1.2262,-1.1465,0.0,0.0,0.0,0.0,0.0,0.0,0.0,0.0,0.0,0.0,0.0,0.0,0.0,0.0,-1.6182,-1.602,-1.5618,0.0,0.0,0.0,0.0,0.0,0.0,0.0,0.0,-2.0701,-2.1355,-2.1557,-2.1394,-2.1339,0.0,-2.123,-2.0313,0.0,0.0,0.0,0.0,0.0,0.0,0.0,0.0,-2.2167,-2.5015,-2.7569,-2.9022,-2.9503,-2.9907,-2.9579,-2.8655,-2.7366,-2.5176,-2.1924,-1.9882,-1.8006,0.0,0.0,0.0,0.0,0.0,0.0,0.0,0.0,0.0,0.0,0.0,0.0,0.0,0.0,0.0,0.0,0.0,0.0,0.0,0.0,0.0,0.0,0.0,-1.1546,0.0,0.0,0.0,0.0,0.0,0.0,0.0,0.0,0.0,-1.2472,-1.2992,-1.3839,-1.4948,-1.5787,-1.6711,-1.7843,0.0,0.0,0.0,0.0,0.0,0.0,0.0,-1.5906,-1.5791,-1.5802,-1.5991,-1.6557,-1.6351,-1.6121,-1.6184,0.0,0.0,-1.5523,-1.4879,-1.4205,-1.3425,-1.3063,-1.2549,-1.1488,-1.1705,-1.2082,0.0,0.0,0.0,0.0,0.0,0.0,0.0,0.0,-1.7877,-1.7691,0.0,-1.7077,0.0,0.0,0.0,0.0,-1.6082,-1.7355,0.0,0.0,-2.1671,-2.2242,-2.2332,-2.2506,-2.2506,-2.2242,-2.2258,-2.2112,-2.1774,-2.0196,0.0,0.0,0.0,0.0,0.0,0.0,-2.241,-2.4813,-2.7314,-2.8842,-2.9258,-2.9565,-2.9604,-2.9164,-2.6931,-2.4932,-2.3226,-2.1328,-1.9475,-1.7661,-1.6245,0.0,0.0,0.0,0.0,0.0,0.0,0.0,0.0,0.0,0.0,0.0,0.0,0.0,0.0,0.0,0.0,0.0,0.0,0.0,0.0,-1.225,0.0,0.0,0.0,0.0,0.0,0.0,0.0,0.0,0.0,0.0,-1.3746,-1.3942,-1.4519,-1.5626,0.0,0.0,0.0,0.0,-1.9239,-1.9239,-1.9239,-1.8861,-1.7763,-1.7517,-1.7197,-1.6546,0.0,0.0,-1.8528,-1.829,-1.7974,-1.8025,-1.7991,-1.7684,-1.659,-1.6132,-1.5618,-1.4914,-1.4433,-1.3905,-1.3237,-1.316,-1.3416,-2.1523,0.0,0.0,0.0,0.0,-1.9189,-1.9735,-2.0501,-2.0419,-2.0209,-1.9931,-1.9652,0.0,0.0,0.0,0.0,0.0,0.0,-2.0735,-2.1686,-2.2945,-2.3662,-2.3881,-2.3735,-2.3618,-2.353,-2.3296,-2.2924,-2.2392,-2.2233,-2.1046,-1.894,0.0,0.0,0.0,0.0,-2.2027,-2.3877,-2.6007,-2.7458,-2.8359,-2.8873,-2.8655,-2.7625,-2.6297,-2.4952,-2.3548,-2.1917,-2.047,-1.9246,-1.6997,0.0,0.0,0.0,0.0,0.0,0.0,0.0,0.0,0.0,0.0,0.0,0.0,0.0,0.0,0.0,0.0,0.0,0.0,0.0,-1.2043,-1.2744,-1.2998,0.0,0.0,0.0,0.0,0.0,0.0,0.0,0.0,0.0,-1.561,-1.5653,-1.6078,0.0,0.0,-1.7943,-1.8724,-1.9264,-1.9573,-1.9573,-1.9795,0.0,-1.9179,-1.8628,-1.8342,-1.8669,-1.8995,-1.9133,-1.9022,-1.8938,-1.8853,-1.8853,-1.8853,-1.8733,-1.8408,-1.7643,-1.6867,-1.6353,-1.5648,-1.4833,-1.4012,-1.3752,-1.3672,-2.4315,-2.2004,-2.1256,-2.0962,-2.1042,-2.1336,-2.1856,-2.2592,-2.2592,-2.2388,-2.212,-2.1957,-2.1174,-2.0033,-1.9773,0.0,0.0,0.0,-2.2579,-2.3354,-2.4247,-2.4832,-2.5125,-2.4935,-2.4774,-2.4642,-2.4335,-2.3936,-2.337,-2.3396,-2.2594,-2.0924,0.0,0.0,-1.9681,-2.0783,-2.2178,-2.3737,-2.5242,-2.6449,-2.7366,-2.7744,-2.7428,-2.6388,-2.5572,-2.4585,-2.3353,-2.1943,-2.0762,-1.981,-1.7384,-1.5184,0.0,0.0,0.0,0.0,0.0,0.0,0.0,0.0,0.0,0.0,0.0,-1.0294,-1.0256,0.0,0.0,0.0,-1.1137,-1.1917,-1.2668,-1.3198,0.0,0.0,0.0,0.0,0.0,0.0,0.0,-1.4874,-1.5722,-1.6409,-1.6712,-1.6754,-1.7025,-1.7878,-1.8306,-1.8731,-1.9325,0.0,-1.9973,-2.0036,-2.0149,-2.0108,-1.9861,-1.944,-1.9377,-2.0058,-2.0144,-2.0121,-1.9915,-1.9802,-1.9594,-1.9269,-1.9141,-1.909,-1.8938,-1.8228,-1.7632,-1.7354,-1.6775,-1.5922,-1.4909,-1.4369,-1.3995,-2.648,-2.5611,-2.4249,-2.3447,-2.3182,-2.3407,-2.3848,-2.4369,-2.4356,-2.4182,-2.3946,-2.3983,-2.3315,-2.2195,-2.2086,0.0,-2.2886,-2.353,-2.4305,-2.5251,-2.5505,-2.5798,-2.6091,-2.6061,-2.5886,-2.5564,-2.5242,-2.4987,-2.4606,-2.3954,-2.3501,-2.3139,-2.1682,-2.1097,-2.1358,-2.1695,-2.2624,-2.3991,-2.4822,-2.56,-2.6344,-2.6361,-2.6083,-2.5429,-2.4746,-2.3789,-2.2742,-2.1496,-2.0464,-1.9605,-1.7454,-1.5553,-1.394,0.0,0.0,0.0,0.0,0.0,0.0,0.0,0.0,0.0,0.0,0.0,0.0,0.0,0.0,0.0,-1.1537,0.0,-1.3349,-1.3635,0.0,0.0,0.0,-1.3353,-1.3809,-1.494,-1.5709,-1.569,0.0,0.0,-1.7172,-1.7312,-1.7545,-1.7936,-1.8668,-1.9332,-1.9724,-2.0189,-2.0468,-2.058,-2.0237,-2.0064,-2.01,-2.0179,-2.0434,-2.1036,-2.1028,-2.1041,-2.0874,-2.0568,-2.0084,-1.9178,-1.8957,-1.8781,-1.8479,-1.8117,-1.7987,-1.789,-1.7536,-1.6886,-1.57,-1.4873,-1.4231,-2.7923,-2.7468,-2.6894,-2.5972,-2.4917,-2.5211,-2.5545,-2.5838,-2.5625,-2.5371,-2.5064,-2.4915,-2.4608,-2.4192,-2.4448,-2.4701,-2.4876,-2.5505,-2.593,-2.6179,-2.6486,-2.6676,-2.6749,-2.65,-2.6208,-2.59,-2.5579,-2.5125,-2.4583,-2.4408,-2.4042,-2.3471,-2.3076,-2.2468,-2.1658,-2.1702,-2.2075,-2.2705,-2.3338,-2.4177,-2.5312,-2.5406,-2.4858,-2.3702,-2.3245,-2.2354,-2.0983,-2.0399,-1.9671,-1.881,-1.6963,-1.5362,-1.4104,-1.2499,0.0,0.0,0.0,0.0,0.0,0.0,0.0,0.0,0.0,-1.1377,-1.1348,0.0,-1.1737,0.0,-1.2775,-1.3506,-1.3704,-1.4144,0.0,0.0,-1.3995,-1.4206,-1.4919,-1.5811,-1.6477,-1.6709,-1.7231,-1.7456,-1.7094,-1.7191,-1.7492,-1.793,-1.917,-2.0151,-2.0631,-2.1127,-2.1315,-2.1028,-2.0541,-2.0371,-2.0613,-2.1302,-2.1835,-2.2469,-2.2329,-2.2002,-2.1371,-2.0462,-1.953,-1.8726,-1.8153,-1.7918,-1.7921,-1.777,-1.7594,-1.7427,-1.6821,-1.6046,-1.5208,-1.4452,-1.3769,-2.8738,-2.8337,-2.8163,-2.7549,-2.668,-2.6587,-2.6627,-2.676,-2.6613,-2.6373,-2.6052,-2.5859,-2.5913,-2.6155,-2.6229,-2.6387,-2.6632,-2.6983,-2.7159,-2.7144,-2.7188,-2.7203,-2.7188,-2.6881,-2.6544,-2.6222,-2.5754,-2.5344,-2.4993,-2.4715,-2.4532,-2.4247,-2.4101,-2.3676,-2.2988,-2.2681,-2.271,-2.3032,-2.3495,-2.419,-2.4993,-2.4665,-2.3956,-2.2943,-2.2169,-2.1235,-2.014,-1.9467,-1.8945,-1.8448,-1.6885,-1.5604,-1.4713,-1.324,-1.2055,0.0,0.0,0.0,0.0,0.0,0.0,0.0,0.0,0.0,0.0,0.0,-1.2842,-1.3135,-1.3724,-1.4196,-1.4336,-1.4852,-1.5101,-1.4905,-1.4934,-1.5162,-1.5807,-1.6354,-1.6718,-1.6915,-1.7127,-1.7116,-1.6829,-1.6932,-1.7278,-1.7906,-1.9066,-2.0004,-2.0555,-2.0925,-2.101,-2.0669,-1.9894,-1.9532,-2.003,-2.0814,-2.1522,-2.1969,-2.1976,-2.1628,-2.1015,-2.007,-1.9067,-1.8118,-1.7507,-1.7127,-1.6983,-1.682,-1.6685,-1.6392,-1.5794,-1.5119,-1.4584,-1.3913,-1.3253,-2.9192,-2.8724,-2.8671,-2.8511,-2.8301,-2.7709,-2.7455,-2.7375,-2.7335,-2.7161,-2.6854,-2.6741,-2.712,-2.7825,-2.7526,-2.7582,-2.7932,-2.7888,-2.7874,-2.7859,-2.7656,-2.7539,-2.7525,-2.7247,-2.6925,-2.6544,-2.5944,-2.5637,-2.5579,-2.4979,-2.4862,-2.5154,-2.4862,-2.4686,-2.4671,-2.4086,-2.3881,-2.4086,-2.4455,-2.473,-2.4925,-2.408,-2.3291,-2.2588,-2.1381,-2.0324,-1.9542,-1.8749,-1.8248,-1.8119,-1.6911,-1.5974,-1.5397,-1.4292,-1.332,0.0,-1.2307,0.0,0.0,0.0,0.0,0.0,0.0,0.0,0.0,-1.3376,-1.4049,-1.4311,-1.4603,-1.4923,-1.5263,-1.5738,-1.6059,-1.6059,-1.6011,-1.6176,-1.6552,-1.6739,-1.6832,-1.6817,-1.6803,-1.6765,-1.6625,-1.6742,-1.7117,-1.7853,-1.8663,-1.9397,-1.9899,-2.0134,-2.0116,-1.9799,-1.8844,-1.8462,-1.9034,-1.9598,-2.018,-2.0721,-2.083,-2.0656,-2.026,-1.9441,-1.8495,-1.7348,-1.6757,-1.6353,-1.572,-1.5619,-1.5533,-1.5345,-1.4811,-1.4306,-1.3986,-1.3532,-1.2933,-2.9419,-2.9299,-2.9058,-2.8925,-2.8858,-2.8751,-2.843,-2.8047,-2.7722,-2.7455,-2.7256,-2.7473,-2.7765,-2.8072,-2.7997,-2.8115,-2.8253,-2.799,-2.7874,-2.7874,-2.7815,-2.7786,-2.7861,-2.7728,-2.7466,-2.6896,-2.65,-2.6179,-2.5915,-2.5535,-2.552,-2.5827,-2.5505,-2.5344,-2.533,0.0,0.0,0.0,-2.4415,-2.4481,-2.4188,-2.3833,-2.305,-2.1923,-2.0893,0.0,-1.8131,-1.7821,-1.7295,-1.6378,-1.6276,0.0,0.0,0.0,0.0,0.0,0.0,0.0,0.0,0.0,0.0,0.0,-1.5852,-1.5454,-1.4559,-1.4838,-1.5169,-1.5471,-1.5979,-1.642,-1.675,-1.7048,-1.7248,-1.7248,-1.7248,-1.7257,-1.7332,-1.7538,-1.7626,-1.7373,-1.7344,-1.726,-1.7026,-1.7265,-1.7497,-1.7712,-1.8398,-1.8935,-1.9059,-1.9376,-1.9446,-1.903,-1.8213,-1.7889,-1.8278,-1.8806,-1.9445,-2.0204,-2.0195,-1.9859,-1.9413,-1.8441,-1.7387,-1.632,-1.5611,-1.519,-1.4778,-1.4526,-1.4553,-1.4575,-1.4229,-1.3832,-1.357,-1.3446,-1.3312,-2.8908,-2.8752,-2.8621,-2.8377,0.0,-2.8347,-2.8178,-2.7964,-2.8101,-2.7976,-2.7779,-2.7796,-2.7962,-2.8291,-2.7861,-2.7797,-2.8093,-2.77,-2.7569,-2.7715,-2.7715,-2.7803,-2.7874,-2.7874,-2.77,-2.7217,-2.6735,-2.6413,-2.6237,-2.5769,-2.5696,-2.6018,-2.5681,-2.5535,-2.552,-2.5213,-2.4958,-2.4569,-2.473,-2.4736,-2.452,-2.4098,-2.3298,-2.2165,-2.1094,0.0,0.0,0.0,0.0,0.0,0.0,0.0,0.0,0.0,0.0,-1.499,-1.4937,-1.5003,-1.5118,-1.5698,-1.642,-1.7301,-1.7769,-1.762,-1.6584,-1.6491,-1.6727,-1.725,-1.7583,-1.7929,-1.8264,-1.825,-1.825,-1.8237,-1.8116,-1.8023,-1.7983,-1.7993,-1.7896,-1.7732,-1.7524,-1.7377,-1.7549,-1.7566,-1.7648,-1.782,-1.8156,-1.8467,-1.8434,-1.8551,-1.8468,-1.7896,-1.77,-1.7582,-1.7616,-1.8008,-1.8401,-1.8898,-1.8851,-1.8643,-1.8436,-1.7548,-1.663,-1.5931,-1.5386,-1.49,-1.4559,-1.4398,-1.4315,-1.4262,-1.4059,-1.3767,-1.3529,-1.3484,-1.3448,-2.7513,-2.7315,-2.7303,-2.7179,-2.6982,-2.6982,-2.6957,-2.6971,0.0,0.0,0.0,-2.7715,-2.7919,-2.8177,-2.756,-2.7438,-2.7769,-2.7335,-2.7217,-2.7481,-2.7525,-2.773,-2.7961,-2.802,-2.7949,-2.7627,-2.7042,-2.6735,-2.6647,-2.6076,-2.5915,-2.6135,-2.5857,-2.5612,-2.5593,-2.5359,-2.5295,-2.5295,-2.5178,-2.5149,-2.5125,-2.4506,-2.3728,-2.2813,-2.161,-2.052,-1.9524,-1.8931,-1.8571,-1.8424,-1.833,-1.8155,-1.7995,-1.7729,-1.746,-1.7128,-1.7194,-1.7275,-1.7328,-1.7822,-1.8384,-1.8998,-1.9426,-1.9279,-1.833,-1.8036,-1.8223,-1.9011,-1.9078,-1.9199,-1.9492,-1.9305,-1.9101,-1.9145,-1.8945,-1.8771,-1.8651,-1.8437,-1.825,-1.8049,-1.7755,-1.7621,-1.8023,-1.7956,-1.7876,-1.8076,-1.8196,-1.8115,-1.8035,-1.8115,-1.7872,-1.7208,-1.7414,-1.7507,-1.7254,-1.7367,-1.751,-1.7462,-1.7437,-1.7358,-1.7147,-1.6678,-1.6138,-1.5771,-1.5368,-1.5002,-1.4628,-1.4465,-1.4389,-1.4209,-1.4035,-1.3832,-1.3686,-1.3652,-1.3652,-2.4591,-2.4558,-2.4558,-2.4536,-2.4503,-2.4503,-2.4393,-2.4341,-2.6461,-2.7221,-2.705,-2.735,-2.7442,-2.7391,-2.7751,-2.7692,-2.7406,-2.742,-2.7437,-2.7495,-2.7759,-2.7976,-2.8373,-2.8637,-2.8593,-2.8286,-2.7844,-2.7598,-2.732,-2.6954,-2.6808,-2.6808,-2.653,-2.6222,-2.5974,-2.59,-2.5886,-2.5871,-2.5344,-2.5198,-2.5447,-2.4876,-2.4194,-2.3468,-2.2216,-2.1003,-1.9819,-1.9426,-1.8891,-1.8115,-1.8798,-1.8838,-1.8103,-1.8677,-1.8931,-1.8664,-1.9078,-1.9479,-1.9706,-2.0054,-2.0494,-2.1105,-2.0962,-2.0388,-1.9292,-1.9145,-1.9279,-1.9639,-1.972,-1.98,-2.0067,-2.008,-2.0054,-2.004,-2.0013,-1.98,-1.9332,-1.9225,-1.8998,-1.8531,-1.837,-1.8303,-1.8437,-1.8584,-1.8584,-1.8504,-1.8584,-1.8579,-1.8295,-1.8292,-1.8167,-1.7674,-1.7741,-1.7748,-1.7403,-1.7247,-1.7122,-1.6532,-1.6562,-1.6468,-1.6125,-1.5996,-1.582,-1.5326,-1.5143,-1.4911,-1.4485,-1.4145,-1.4107,-1.4034,-1.4011,-1.4001,-1.4147,-1.4183,-1.4123,-2.3354,-2.325,-2.3239,-2.325,-2.3239,-2.38,-2.4026,-2.416,-2.5465,-2.5838,-2.5541,-2.6228,-2.6766,-2.7139,-2.7513,-2.7708,-2.774,-2.7496,-2.7606,-2.8008,-2.8315,-2.8622,-2.893,-2.909,-2.909,-2.8915,-2.8447,-2.8139,-2.7964,-2.7495,-2.7247,-2.7217,-2.6749,-2.6339,-2.6047,-2.6018,-2.6018,-2.6003,-2.5725,-2.5652,-2.5783,-2.5124,-2.4535,-2.3823,-2.273,-2.1696,-2.0824,-2.0468,-2.0054,-1.9492,-2.0013,-2.0054,-1.9519,-2.0,-2.0254,-2.0134,-2.0361,-2.0641,-2.0935,-2.1216,-2.1496,-2.1764,-2.167,-2.1376,-2.0842,-2.0494,-2.0494,-2.0935,-2.0989,-2.1029,-2.1162,-2.1042,-2.0949,-2.0949,-2.0815,-2.0535,-2.0174,-2.008,-1.984,-1.9305,-1.9065,-1.8971,-1.8971,-1.8945,-1.8891,-1.8758,-1.8865,-1.8861,-1.8787,-1.9026,-1.8945,-1.8295,-1.8148,-1.8058,-1.7703,-1.7496,-1.7197,-1.6605,-1.6513,-1.6344,-1.5994,-1.5958,-1.5668,-1.5221,-1.5004,-1.4811,-1.4545,-1.4437,-1.4413,-1.4545,-1.4558,-1.463,-1.4714,-1.4739,-1.4594,-2.1785,-2.1602,-2.1602,-2.1787,-2.2063,-2.2974,-2.3603,-2.3998,-2.4631,-2.4732,-2.4677,-2.5509,-2.6275,-2.6838,-2.7378,-2.779,-2.7954,-2.772,-2.7942,-2.8497,-2.8808,-2.9178,-2.9456,-2.9486,-2.9442,-2.9339,-2.8871,-2.8578,-2.8388,-2.7934,-2.7613,-2.7437,-2.6896,-2.6486,-2.6252,-2.6237,-2.6237,-2.6237,-2.6166,-2.6066,-2.5979,-2.538,-2.4789,-2.4177,-2.3268,-2.2576,-2.2016,-2.1657,-2.1336,-2.1015,-2.1309,-2.1376,-2.1109,-2.1416,-2.1643,-2.1697,-2.171,-2.1804,-2.211,-2.2258,-2.2392,-2.2392,-2.2258,-2.2205,-2.2231,-2.175,-2.155,-2.1911,-2.1924,-2.1937,-2.1911,-2.1829,-2.1722,-2.1708,-2.1456,-2.1149,-2.0842,-2.0775,-2.0548,-2.0,-1.9693,-1.9546,-1.9439,-1.9265,-1.9158,-1.9145,-1.9118,-1.9239,-1.9519,-1.9773,-1.9549,-1.9174,-1.8893,-1.8736,-1.8416,-1.8265,-1.7923,-1.7293,-1.7207,-1.6967,-1.6673,-1.635,-1.5939,-1.5503,-1.5161,-1.504,-1.4932,-1.4835,-1.4871,-1.498,-1.5016,-1.5065,-1.5052,-1.5065,-1.498,-1.8817,-1.865,-1.8735,-1.9108,-2.013,-2.1038,-2.2024,-2.2923,-2.3747,-2.4528,-2.5213,-2.6037,-2.6411,-2.6581,-2.7642,-2.7989,-2.7643,-2.825,-2.8647,-2.8755,-2.9166,-2.95,-2.9822,-2.9822,-2.9661,-2.9427,-2.9295,-2.8973,-2.8505,-2.8297,-2.8037,-2.751,-2.7115,-2.6925,-2.6881,-2.6881,-2.6896,-2.6896,-2.6532,-2.6243,-2.587,-2.5555,-2.5158,-2.4696,-2.4119,-2.3596,-2.31,-2.2873,-2.2445,-2.1964,-2.2392,-2.2565,-2.2338,-2.2792,-2.322,-2.3447,-2.3487,-2.3611,-2.3541,-2.3594,-2.3567,-2.3567,-2.306,-2.2873,-2.31,-2.2632,-2.2191,-2.2084,-2.2004,-2.2031,-2.1991,-2.1977,-2.1977,-2.1991,-2.1937,-2.1683,-2.1229,-2.1069,-2.0842,-2.0267,-2.016,-2.0054,-1.9786,-1.9653,-1.9666,-1.9666,-1.9626,-1.9733,-2.004,-2.0107,-2.018,-2.0326,-2.0199,-1.9919,-1.9637,-1.9603,-1.9176,-1.8707,-1.8445,-1.7988,-1.7372,-1.7024,-1.6814,-1.5939,-1.5728,-1.5596,-1.5415,-1.5258,-1.5089,-1.5185,-1.5197,-1.5137,-1.5125,-1.5161,-1.5101,-1.8598,-1.8347,-1.8338,-1.8836,-1.986,-2.1047,-2.2146,-2.3158,-2.4441,-2.523,-2.5721,-2.6564,-2.6959,-2.6957,-2.7976,-2.8338,-2.8276,-2.8606,-2.8921,-2.9168,-2.9414,-2.9567,-2.9653,-2.9482,-2.942,-2.9506,-2.9174,-2.9014,-2.8895,-2.8376,-2.7564,-2.684,-2.6803,-2.6806,-2.6706,-2.691,-2.691,-2.6619,-2.6473,-2.6109,-2.5531,-2.5166,-2.4983,-2.4778,-2.4137,-2.3793,-2.3581,-2.346,-2.3207,-2.2846,-2.318,-2.326,-2.2979,-2.3354,-2.3634,-2.3768,-2.3781,-2.3781,-2.3781,-2.3781,-2.3781,-2.3781,-2.338,-2.3193,-2.3287,-2.2926,-2.2619,-2.2539,-2.2566,-2.2498,-2.2566,-2.2566,-2.2579,-2.2512,-2.2512,-2.2338,-2.1937,-2.1724,-2.1403,-2.0842,-2.0601,-2.0307,-1.9893,-1.9653,-1.9706,-1.992,-1.9933,-2.0,-2.0388,-2.0347,-2.0374,-2.0588,-2.0561,-2.0385,-2.0125,-1.992,-1.9607,-1.9296,-1.906,-1.8661,-1.796,-1.767,-1.7333,-1.6314,-1.6066,-1.5934,-1.5741,-1.5547,-1.5366,-1.5451,-1.5559,-1.5572,-1.5572,-1.5572,-1.5572,-1.8777,-1.8563,-1.849,-1.8861,-1.9767,-2.114,-2.2248,-2.325,-2.4635,-2.5366,-2.5838,-2.6815,-2.727,-2.7531,-2.8241,-2.8641,-2.8707,-2.878,-2.8992,-2.9314,-2.9398,-2.9481,-2.9453,-2.9257,-2.9269,-2.9374,-2.9067,-2.895,-2.8985,-2.8089,-2.7254,-2.6631,-2.6655,-2.6723,-2.6657,-2.6806,-2.6675,-2.6528,-2.6223,-2.5814,-2.5272,-2.4934,-2.4739,-2.4725,-2.426,-2.4008,-2.4008,-2.4008,-2.3875,-2.3594,-2.3848,-2.3875,-2.3607,-2.3848,-2.4008,-2.4008,-2.4008,-2.4008,-2.4008,-2.4008,-2.4008,-2.3981,-2.3741,-2.3567,-2.3514,-2.3287,-2.3196,-2.3113,-2.3182,-2.3073,-2.2873,-2.2859,-2.2859,-2.2859,-2.2859,-2.2739,-2.2432,-2.2218,-2.1911,-2.1416,-2.1109,-2.0695,-2.0147,-1.984,-1.984,-2.0227,-2.0187,-2.0201,-2.0641,-2.0628,-2.0575,-2.0748,-2.0788,-2.0739,-2.0477,-2.0358,-2.0064,-1.9889,-1.9801,-1.9459,-1.8605,-1.8398,-1.7935,-1.7008,-1.6563,-1.6139,-1.603,-1.5837,-1.5692,-1.5825,-1.5897,-1.5897,-1.5813,-1.591,-1.5934,-1.8777,-1.8452,-1.8265,-1.876,-1.9767,-2.076,-2.1675,-2.2688,-2.3687,-2.4591,-2.5491,-2.649,-2.7349,-2.7852,-2.8365,-2.8604,-2.8636,-2.8747,-2.8865,-2.8935,-2.9258,-2.9495,-2.9481,-2.9467,-2.9299,-2.9047,-2.9009,-2.8796,-2.8332,-2.7601,-2.7172,-2.7102,-2.6836,-2.6833,-2.705,-2.6584,-2.6457,-2.6652,-2.5834,-2.5239,-2.5166,-2.477,-2.4596,-2.4583,-2.4583,-2.4556,-2.4569,-2.4583,-2.4449,-2.4168,-2.4409,-2.4436,-2.4209,-2.4422,-2.4556,-2.4569,-2.4569,-2.4583,-2.4556,-2.4543,-2.4543,-2.4529,-2.4262,-2.4142,-2.4062,-2.3808,-2.3647,-2.3714,-2.3647,-2.346,-2.302,-2.2979,-2.2939,-2.2939,-2.2968,-2.2779,-2.2485,-2.2458,-2.2271,-2.1964,-2.1695,-2.1279,-2.0695,-2.0374,-2.0361,-2.0561,-2.0628,-2.0722,-2.0935,-2.1029,-2.1029,-2.1029,-2.1056,-2.1082,-2.1019,-2.0836,-2.0913,-2.0734,-2.0411,-2.0305,-1.9753,-1.9155,-1.8426,-1.7689,-1.7231,-1.6767,-1.6416,-1.6199,-1.6103,-1.6103,-1.603,-1.6006,-1.6091,-1.6163,-1.6151,-1.9021,-1.8761,-1.8476,-1.8817,-1.9458,-2.0268,-2.1038,-2.1685,-2.2698,-2.3433,-2.4247,-2.5434,-2.6387,-2.7014,-2.818,-2.8797,-2.8885,-2.8937,-2.8875,-2.8713,-2.887,-2.8846,-2.8655,-2.8642,-2.8769,-2.8855,-2.8564,-2.8022,-2.7481,-2.7222,-2.6836,-2.6516,-2.6548,-2.655,-2.6509,-2.6536,-2.6396,-2.614,-2.5717,-2.5283,-2.4898,-2.471,-2.4636,-2.4636,-2.4636,-2.4636,-2.4636,-2.4636,-2.4509,-2.4489,-2.4583,-2.4596,-2.4502,-2.4496,-2.4636,-2.4636,-2.4636,-2.4636,-2.4636,-2.4636,-2.4636,-2.4609,-2.4369,-2.4235,-2.4155,-2.3941,-2.3781,-2.3794,-2.3781,-2.3634,-2.3527,-2.3447,-2.3517,-2.3447,-2.3434,-2.3313,-2.3046,-2.2832,-2.2592,-2.2271,-2.1857,-2.1521,-2.1256,-2.0989,-2.0842,-2.0922,-2.0949,-2.1002,-2.1069,-2.1109,-2.1109,-2.1109,-2.1109,-2.1109,-2.1109,-2.1096,-2.1096,-2.1082,-2.0913,-2.044,-1.9959,-1.9671,-1.8996,-1.8128,-1.7622,-1.7344,-1.6944,-1.6634,-1.6537,-1.6441,-1.6368,-1.6332,-1.6416,-1.638,-1.6284,-1.9102,-1.8939,-1.8598,-1.8641,-1.8986,-1.9465,-1.9851,-2.0214,-2.0862,-2.151,-2.233,-2.3515,-2.4613,-2.5787,-2.7439,-2.8449,-2.8859,-2.8964,-2.8938,-2.8751,-2.8644,-2.8497,-2.831,-2.8274,-2.8318,-2.849,-2.8069,-2.7635,-2.728,-2.7051,-2.6664,-2.6331,-2.6381,-2.6466,-2.643,-2.6474,-2.6232,-2.5992,-2.5731,-2.5343,-2.493,-2.4917,-2.4917,-2.4917,-2.4917,-2.477,-2.4529,-2.4583,-2.4583,-2.4529,-2.4676,-2.4823,-2.4903,-2.4917,-2.4917,-2.4917,-2.4917,-2.4917,-2.4917,-2.4917,-2.493,-2.4917,-2.4756,-2.4636,-2.4609,-2.4449,-2.4356,-2.4342,-2.4329,-2.4315,-2.4209,-2.4195,-2.4088,-2.3861,-2.3781,-2.3688,-2.3487,-2.3193,-2.2846,-2.2458,-2.2098,-2.183,-2.1697,-2.1523,-2.1416,-2.139,-2.1323,-2.1256,-2.1256,-2.1162,-2.1109,-2.1109,-2.1216,-2.1269,-2.1296,-2.1309,-2.1189,-2.1149,-2.1096,-2.0648,-2.0229,-2.0013,-1.951,-1.863,-1.8021,-1.7766,-1.7453,-1.7129,-1.6984,-1.6875,-1.6779,-1.6718,-1.6658,-1.6525,-1.6441,-1.8996,-1.8948,-1.8702,-1.8588,-1.8571,-1.8494,-1.8286,-1.848,-1.8472,-1.9218,-2.0139,-2.0945,-2.2504,-2.4167,-2.6127,-2.7497,-2.8309,-2.8722,-2.9024,-2.9018,-2.8791,-2.8644,-2.8551,-2.831,-2.8221,-2.8167,-2.7829,-2.7783,-2.7771,-2.719,-2.68,-2.6747,-2.6507,-2.6596,-2.6925,-2.6391,-2.6256,-2.6239,-2.5868,-2.5491,-2.5504,-2.5424,-2.5411,-2.5424,-2.5438,-2.509,-2.4329,-2.4543,-2.4609,-2.4422,-2.481,-2.5211,-2.5398,-2.5438,-2.5478,-2.5438,-2.5478,-2.5491,-2.5478,-2.5451,-2.5424,-2.5411,-2.5451,-2.5371,-2.5331,-2.5344,-2.5331,-2.5304,-2.5317,-2.5304,-2.505,-2.497,-2.4663,-2.3968,-2.3875,-2.3861,-2.3741,-2.35,-2.31,-2.2619,-2.2405,-2.2285,-2.2098,-2.2004,-2.1977,-2.1857,-2.1737,-2.1563,-2.1496,-2.1349,-2.1176,-2.1189,-2.1363,-2.1537,-2.1614,-2.1601,-2.1363,-2.1216,-2.1149,-2.0866,-2.0561,-2.0281,-1.9826,-1.9001,-1.8459,-1.8142,-1.7889,-1.7587,-1.7455,-1.7346,-1.7225,-1.7117,-1.702,-1.6911,-1.6646,-1.9175,-1.9151,-1.8923,-1.8818,-1.8793,-1.8631,-1.8485,-1.8371,-1.8363,-1.8673,-1.932,-2.0214,-2.1325,-2.2882,-2.4978,-2.6356,-2.7081,-2.8092,-2.8919,-2.9176,-2.9245,-2.8978,-2.8657,-2.8511,-2.8243,-2.7883,-2.7749,-2.7631,-2.7472,-2.7256,-2.7028,-2.6841,-2.6734,-2.6653,-2.6664,-2.6372,-2.6251,-2.6128,-2.5943,-2.5638,-2.5291,-2.5424,-2.5424,-2.5264,-2.5398,-2.5277,-2.4863,-2.5077,-2.5184,-2.509,-2.5277,-2.5424,-2.5504,-2.5518,-2.5518,-2.5518,-2.5518,-2.5518,-2.5518,-2.5531,-2.5558,-2.5531,-2.5531,-2.5518,-2.5518,-2.5545,-2.5545,-2.5531,-2.5518,-2.5464,-2.5371,-2.5184,-2.489,-2.4422,-2.4369,-2.4249,-2.4022,-2.3647,-2.3287,-2.3073,-2.2859,-2.2686,-2.2619,-2.2646,-2.2405,-2.2111,-2.2071,-2.2017,-2.167,-2.1643,-2.1603,-2.1496,-2.1748,-2.1856,-2.1815,-2.1829,-2.1724,-2.1496,-2.1349,-2.1086,-2.0779,-2.0524,-2.0066,-1.955,-1.8939,-1.8533,-1.8276,-1.8106,-1.7974,-1.7865,-1.7781,-1.7648,-1.7515,-1.7286,-1.702,-1.9264,-1.924,-1.9061,-1.898,-1.8964,-1.8793,-1.8663,-1.855,-1.8476,-1.8576,-1.8852,-1.932,-2.0121,-2.1325,-2.3056,-2.4247,-2.4978,-2.6265,-2.7267,-2.8093,-2.8968,-2.8995,-2.8638,-2.8598,-2.8364,-2.7949,-2.7869,-2.7776,-2.7685,-2.7482,-2.7335,-2.7175,-2.7041,-2.6907,-2.6707,-2.66,-2.644,-2.6279,-2.6172,-2.5945,-2.5678,-2.5745,-2.5745,-2.5625,-2.5745,-2.5732,-2.5585,-2.5745,-2.5678,-2.5478,-2.5545,-2.5718,-2.5825,-2.5945,-2.5999,-2.6012,-2.6106,-2.6186,-2.6159,-2.6226,-2.6159,-2.6159,-2.6159,-2.6119,-2.6039,-2.5999,-2.5972,-2.5852,-2.5852,-2.5798,-2.5678,-2.5531,-2.5277,-2.4983,-2.4743,-2.4529,-2.4222,-2.3888,-2.3621,-2.3474,-2.322,-2.3073,-2.3033,-2.2954,-2.2739,-2.2405,-2.2365,-2.2365,-2.1977,-2.1937,-2.1844,-2.183,-2.1991,-2.2017,-2.1937,-2.1977,-2.2058,-2.183,-2.159,-2.1259,-2.0959,-2.0856,-2.0561,-1.9878,-1.9261,-1.8935,-1.8638,-1.8625,-1.8541,-1.8432,-1.8287,-1.8143,-1.7962,-1.766,-1.7394,-1.9264,-1.9232,-1.9077,-1.9013,-1.8996,-1.8842,-1.8769,-1.8712,-1.8582,-1.8588,-1.8514,-1.8469,-1.8845,-1.9767,-2.1038,-2.1951,-2.2586,-2.3687,-2.4693,-2.5899,-2.73,-2.8384,-2.8784,-2.8672,-2.8457,-2.8301,-2.8207,-2.8194,-2.8114,-2.7829,-2.7709,-2.7602,-2.7388,-2.7268,-2.7148,-2.6961,-2.6814,-2.6707,-2.652,-2.6373,-2.6279,-2.6333,-2.6306,-2.6266,-2.6293,-2.6306,-2.6266,-2.6266,-2.5972,-2.5371,-2.5745,-2.6106,-2.6386,-2.6667,-2.672,-2.676,-2.7081,-2.7121,-2.7283,-2.7068,-2.7094,-2.7068,-2.7068,-2.7134,-2.6747,-2.664,-2.6533,-2.6319,-2.6306,-2.6239,-2.6026,-2.5983,-2.5745,-2.5491,-2.5064,-2.4676,-2.4329,-2.4235,-2.4062,-2.3808,-2.3541,-2.3354,-2.334,-2.3126,-2.2979,-2.2846,-2.2699,-2.2619,-2.2418,-2.2298,-2.2111,-2.2151,-2.2285,-2.2271,-2.2205,-2.2325,-2.2365,-2.2138,-2.1897,-2.1605,-2.121,-2.108,-2.0926,-2.0221,-1.9621,-1.9301,-1.9096,-1.9072,-1.9,-1.8843,-1.871,-1.8577,-1.8336,-1.8034,-1.7756,-1.9264,-1.9256,-1.9207,-1.9183,-1.9183,-1.9134,-1.9037,-1.8915,-1.8858,-1.8688,-1.8493,-1.8403,-1.869,-1.9218,-2.0139,-2.0955,-2.1529,-2.2432,-2.325,-2.4064,-2.5559,-2.7491,-2.8863,-2.8811,-2.8577,-2.8457,-2.8257,-2.8234,-2.8221,-2.8154,-2.7923,-2.7696,-2.7669,-2.7482,-2.7281,-2.7215,-2.7028,-2.6854,-2.676,-2.6493,-2.6199,-2.6333,-2.6279,-2.6184,-2.6306,-2.64,-2.64,-2.64,-2.6319,-2.6106,-2.6172,-2.6413,-2.6667,-2.6787,-2.6934,-2.7134,-2.7228,-2.7363,-2.7363,-2.7377,-2.7363,-2.735,-2.7403,-2.7148,-2.6854,-2.6827,-2.668,-2.6466,-2.6386,-2.6386,-2.6266,-2.6106,-2.5865,-2.5571,-2.5384,-2.5157,-2.4877,-2.4649,-2.4409,-2.4128,-2.3861,-2.3714,-2.3647,-2.3554,-2.3407,-2.3273,-2.3247,-2.3207,-2.2913,-2.2886,-2.2792,-2.2512,-2.2512,-2.2512,-2.2539,-2.2659,-2.2645,-2.2418,-2.2245,-2.2124,-2.1635,-2.1228,-2.1045,-2.0651,-1.9936,-1.9572,-1.9507,-1.9507,-1.9374,-1.9217,-1.9012,-1.8819,-1.8625,-1.836,-1.8094,-1.9264,-1.9264,-1.9264,-1.9264,-1.9264,-1.9264,-1.9191,-1.9094,-1.9004,-1.8874,-1.8688,-1.8598,-1.8699,-1.8884,-1.9364,-1.9748,-2.0167,-2.0657,-2.1179,-2.2079,-2.3557,-2.5931,-2.8105,-2.8474,-2.8338,-2.8333,-2.8161,-2.8101,-2.819,-2.8355,-2.823,-2.8136,-2.8083,-2.7989,-2.7869,-2.7549,-2.7375,-2.7201,-2.7081,-2.6814,-2.656,-2.6667,-2.6667,-2.664,-2.668,-2.676,-2.676,-2.676,-2.6653,-2.6453,-2.64,-2.652,-2.68,-2.6947,-2.7134,-2.7428,-2.7549,-2.7642,-2.7725,-2.7712,-2.7712,-2.7725,-2.7712,-2.7482,-2.7281,-2.7188,-2.7068,-2.6827,-2.676,-2.676,-2.6707,-2.6493,-2.6266,-2.6132,-2.5959,-2.5718,-2.5317,-2.5117,-2.4943,-2.4703,-2.4409,-2.4128,-2.4115,-2.3941,-2.3714,-2.3581,-2.3607,-2.3514,-2.3354,-2.3447,-2.342,-2.3113,-2.2953,-2.3006,-2.2953,-2.3006,-2.2953,-2.2739,-2.2605,-2.2485,-2.2071,-2.1514,-2.117,-2.0826,-2.0293,-1.9881,-1.9857,-1.9808,-1.9688,-1.9507,-1.9277,-1.9132,-1.8988,-1.8794,-1.8517,-1.9264,-1.9264,-1.9264,-1.9264,-1.9264,-1.9264,-1.9256,-1.9224,-1.9094,-1.9004,-1.8931,-1.8809,-1.872,-1.8712,-1.8724,-1.8653,-1.8792,-1.9009,-1.9398,-2.0533,-2.1967,-2.423,-2.6701,-2.7293,-2.7473,-2.7666,-2.781,-2.8083,-2.8345,-2.8564,-2.8644,-2.8604,-2.8617,-2.8604,-2.8404,-2.8043,-2.7789,-2.7602,-2.7402,-2.7241,-2.7134,-2.7134,-2.7202,-2.7202,-2.7202,-2.7161,-2.7188,-2.7269,-2.7014,-2.652,-2.648,-2.668,-2.6934,-2.7201,-2.7442,-2.7696,-2.7923,-2.8154,-2.8194,-2.814,-2.8181,-2.8154,-2.8167,-2.8016,-2.7709,-2.7602,-2.7468,-2.7256,-2.7336,-2.7269,-2.7148,-2.6974,-2.68,-2.6667,-2.652,-2.6186,-2.5758,-2.5585,-2.5558,-2.5491,-2.4983,-2.4743,-2.4543,-2.4249,-2.3875,-2.3995,-2.4008,-2.3915,-2.3794,-2.3768,-2.3741,-2.3607,-2.3554,-2.3581,-2.3474,-2.3367,-2.3247,-2.3086,-2.2966,-2.2819,-2.2349,-2.1895,-2.135,-2.091,-2.0576,-2.0306,-2.0098,-2.0038,-1.9953,-1.9857,-1.9676,-1.9603,-1.9596,-1.9289,-1.9024,-1.9264,-1.9264,-1.9264,-1.9264,-1.9264,-1.9264,-1.9264,-1.9256,-1.9216,-1.911,-1.9004,-1.8939,-1.8858,-1.8736,-1.8696,-1.8696,-1.8744,-1.8784,-1.9353,-2.0485,-2.1048,-2.2136,-2.3866,-2.4936,-2.6098,-2.6704,-2.7435,-2.8017,-2.8612,-2.8698,-2.8951,-2.8865,-2.8851,-2.8831,-2.8617,-2.8497,-2.815,-2.7789,-2.7655,-2.7562,-2.7402,-2.7388,-2.7388,-2.7375,-2.7348,-2.7308,-2.735,-2.735,-2.7201,-2.7108,-2.7121,-2.7268,-2.7428,-2.7535,-2.7709,-2.7949,-2.8154,-2.8234,-2.8234,-2.8248,-2.8234,-2.8261,-2.8274,-2.81,-2.7749,-2.7762,-2.7602,-2.7348,-2.735,-2.743,-2.7321,-2.7228,-2.7094,-2.6934,-2.6787,-2.66,-2.6266,-2.5999,-2.5785,-2.5545,-2.5251,-2.4983,-2.497,-2.4676,-2.4462,-2.4449,-2.4382,-2.4329,-2.4235,-2.4115,-2.4048,-2.3968,-2.3941,-2.3901,-2.3754,-2.3621,-2.3487,-2.334,-2.3233,-2.3207,-2.2789,-2.2167,-2.1641,-2.1245,-2.1002,-2.0747,-2.0408,-2.0279,-2.0195,-2.0122,-2.0062,-1.9941,-1.982,-1.9652,-1.9434,-1.9264,-1.9264,-1.9264,-1.9264,-1.9264,-1.9264,-1.9264,-1.9264,-1.9264,-1.9207,-1.9126,-1.911,-1.9061,-1.8964,-1.8891,-1.8883,-1.8931,-1.8874,-1.9129,-1.9733,-1.9879,-2.0176,-2.0713,-2.2156,-2.3581,-2.5542,-2.646,-2.7322,-2.8137,-2.8478,-2.8618,-2.8881,-2.8881,-2.9004,-2.9005,-2.8885,-2.8657,-2.8444,-2.8323,-2.8243,-2.8123,-2.8096,-2.8096,-2.8096,-2.8096,-2.8096,-2.8136,-2.8123,-2.811,-2.8096,-2.8083,-2.7923,-2.7722,-2.7709,-2.7856,-2.8167,-2.8234,-2.8234,-2.8234,-2.8368,-2.8377,-2.8364,-2.847,-2.847,-2.8364,-2.8323,-2.819,-2.7976,-2.7896,-2.7856,-2.7779,-2.7522,-2.7375,-2.7268,-2.7094,-2.6961,-2.6774,-2.6426,-2.6119,-2.5905,-2.5692,-2.5451,-2.5264,-2.501,-2.477,-2.4636,-2.4569,-2.4529,-2.4502,-2.4396,-2.4369,-2.4302,-2.4249,-2.4168,-2.3995,-2.3861,-2.3728,-2.3567,-2.3407,-2.3447,-2.3323,-2.2623,-2.1969,-2.1609,-2.1306,-2.0861,-2.0545,-2.0484,-2.0484,-2.0436,-2.0364,-2.0219,-2.011,-2.0014,-1.9736,-1.9264,-1.9264,-1.9264,-1.9264,-1.9264,-1.9264,-1.9264,-1.9264,-1.9264,-1.9248,-1.9256,-1.9264,-1.9224,-1.9216,-1.9094,-1.9126,-1.9159,-1.9053,-1.906,-1.8961,-1.8975,-1.898,-1.9251,-2.0091,-2.1522,-2.4291,-2.4958,-2.583,-2.675,-2.7446,-2.7737,-2.8271,-2.8728,-2.8942,-2.9317,-2.9245,-2.9032,-2.8911,-2.8885,-2.8898,-2.8898,-2.8898,-2.8898,-2.8885,-2.8871,-2.8858,-2.8845,-2.8885,-2.8878,-2.8958,-2.8958,-2.8631,-2.815,-2.7923,-2.7989,-2.8297,-2.835,-2.8377,-2.843,-2.8537,-2.8671,-2.8684,-2.8871,-2.8951,-2.8911,-2.8791,-2.8631,-2.8511,-2.835,-2.827,-2.8234,-2.7923,-2.7749,-2.7642,-2.7442,-2.7335,-2.7188,-2.68,-2.6573,-2.6386,-2.6039,-2.5732,-2.5545,-2.5331,-2.5064,-2.4836,-2.4783,-2.4756,-2.4743,-2.4703,-2.4663,-2.4583,-2.4516,-2.4436,-2.4275,-2.4195,-2.4048,-2.3834,-2.3634,-2.3607,-2.359,-2.2832,-2.2109,-2.1842,-2.1513,-2.1126,-2.0859,-2.0895,-2.0871,-2.0798,-2.0774,-2.075,-2.0605,-2.0412,-2.0098,-1.9264,-1.9264,-1.9264,-1.9264,-1.9264,-1.9264,-1.9264,-1.9264,-1.9264,-1.9264,-1.9264,-1.9264,-1.9264,-1.9248,-1.924,-1.924,-1.9216,-1.9086,-1.8972,-1.8907,-1.8826,-1.8728,-1.8767,-1.9129,-2.0221,-2.131,-2.2472,-2.3624,-2.4742,-2.5445,-2.6418,-2.7267,-2.809,-2.8744,-2.9198,-2.9419,-2.9211,-2.9091,-2.9051,-2.9051,-2.9051,-2.9138,-2.9038,-2.9051,-2.9064,-2.9038,-2.9098,-2.8985,-2.8958,-2.8958,-2.8958,-2.8965,-2.8831,-2.8791,-2.8804,-2.8791,-2.8804,-2.8778,-2.8804,-2.8898,-2.8965,-2.8978,-2.9072,-2.8938,-2.8804,-2.8724,-2.8671,-2.8404,-2.827,-2.8288,-2.8234,-2.814,-2.7949,-2.7789,-2.7669,-2.7562,-2.7375,-2.7175,-2.7001,-2.6827,-2.6386,-2.5932,-2.5758,-2.5585,-2.5384,-2.5211,-2.517,-2.5157,-2.517,-2.5077,-2.4983,-2.4877,-2.4756,-2.4663,-2.4556,-2.4516,-2.4409,-2.4142,-2.3928,-2.363,-2.3435,-2.2717,-2.225,-2.217,-2.1839,-2.1387,-2.1269,-2.1257,-2.1233,-2.116,-2.1221,-2.1293,-2.1076,-2.0847,-2.0702,-1.9264,-1.9264,-1.9264,-1.9264,-1.9264,-1.9264,-1.9264,-1.9264,-1.9264,-1.9264,-1.9264,-1.9264,-1.9264,-1.9264,-1.9264,-1.9264,-1.9224,-1.9183,-1.9077,-1.8996,-1.8988,-1.8939,-1.8874,-1.9033,-1.9305,-1.9811,-2.0431,-2.1683,-2.3168,-2.3973,-2.5001,-2.6162,-2.7003,-2.7845,-2.8757,-2.891,-2.901,-2.8968,-2.9132,-2.9221,-2.9397,-2.9486,-2.9486,-2.9486,-2.9472,-2.9486,-2.9486,-2.9499,-2.9499,-2.9499,-2.9499,-2.9499,-2.9486,-2.9446,-2.9352,-2.9038,-2.9058,-2.8971,-2.9085,-2.9152,-2.9272,-2.9285,-2.9379,-2.9339,-2.9152,-2.9058,-2.8818,-2.847,-2.8274,-2.8234,-2.8234,-2.8234,-2.815,-2.815,-2.803,-2.7936,-2.7869,-2.7655,-2.7428,-2.7215,-2.6814,-2.6373,-2.5945,-2.5785,-2.5665,-2.5598,-2.5558,-2.5558,-2.5585,-2.5438,-2.5291,-2.5064,-2.4917,-2.4796,-2.4642,-2.4616,-2.4422,-2.4269,-2.401,-2.3713,-2.3432,-2.2801,-2.2667,-2.2616,-2.2226,-2.1716,-2.1474,-2.1402,-2.145,-2.1498,-2.1474,-2.145,-2.1402,-2.1281,-2.1124,-1.9264,-1.9264,-1.9264,-1.9264,-1.9264,-1.9264,-1.9264,-1.9264,-1.9264,-1.9264,-1.9264,-1.9264,-1.9264,-1.9264,-1.9264,-1.9264,-1.9264,-1.9256,-1.9167,-1.911,-1.9159,-1.9159,-1.9069,-1.8996,-1.9045,-1.9181,-1.9041,-1.9803,-2.1376,-2.2334,-2.3406,-2.435,-2.5238,-2.6326,-2.7275,-2.7664,-2.8264,-2.8808,-2.9171,-2.9429,-2.984,-3.0007,-2.9967,-2.9927,-2.9913,-2.9887,-2.9847,-2.9833,-2.9847,-2.9847,-2.986,-2.9887,-2.99,-2.9913,-2.9686,-2.9312,-2.9219,-2.9219,-2.9285,-2.9419,-2.9566,-2.9579,-2.978,-2.9713,-2.9513,-2.9272,-2.9112,-2.8684,-2.8417,-2.8288,-2.8248,-2.8234,-2.8283,-2.8417,-2.8323,-2.8203,-2.827,-2.8123,-2.7762,-2.7495,-2.7201,-2.6894,-2.6507,-2.6239,-2.6172,-2.6066,-2.6026,-2.5892,-2.5892,-2.5718,-2.5531,-2.5251,-2.5064,-2.4917,-2.4762,-2.4587,-2.4414,-2.4077,-2.3786,-2.3484,-2.3318,-2.3066,-2.2963,-2.2794,-2.2497,-2.1957,-2.1752,-2.1631,-2.1752,-2.1788,-2.1679,-2.1667,-2.174,-2.1667,-2.1498,-1.9264,-1.9264,-1.9264,-1.9264,-1.9264,-1.9264,-1.9264,-1.9264,-1.9264,-1.9264,-1.9264,-1.9264,-1.9264,-1.9264,-1.9264,-1.9264,-1.9264,-1.9256,-1.924,-1.9199,-1.924,-1.924,-1.9191,-1.9053,-1.9029,-1.9004,-1.885,-1.8816,-1.9785,-2.0443,-2.1176,-2.2368,-2.329,-2.4093,-2.5339,-2.6074,-2.6841,-2.7852,-2.8791,-2.9624,-3.0159,-3.021,-3.0063,-2.9917,-2.9824,-2.9824,-2.9824,-2.9824,-2.9913,-2.9913,-2.9913,-2.9913,-2.9913,-2.9913,-2.99,-2.9833,-2.9806,-2.9806,-2.9766,-2.978,-2.9806,-2.9806,-2.9887,-2.9753,-2.9526,-2.9245,-2.8991,-2.8657,-2.8537,-2.839,-2.8274,-2.8234,-2.8395,-2.8377,-2.8337,-2.835,-2.8444,-2.8283,-2.7963,-2.7843,-2.7562,-2.7415,-2.7243,-2.6921,-2.6707,-2.6587,-2.6466,-2.6333,-2.6186,-2.6026,-2.5798,-2.5531,-2.5228,-2.5068,-2.4838,-2.4737,-2.4442,-2.4027,-2.3728,-2.3404,-2.3273,-2.3165,-2.2892,-2.2682,-2.2445,-2.243,-2.2297,-2.2162,-2.2162,-2.2078,-2.1969,-2.2054,-2.2249,-2.2042,-2.1824,-1.9264,-1.9264,-1.9264,-1.9264,-1.9264,-1.9264,-1.9264,-1.9264,-1.9264,-1.9264,-1.9264,-1.9264,-1.9264,-1.9264,-1.9264,-1.9264,-1.9264,-1.9264,-1.9264,-1.9264,-1.9264,-1.9264,-1.924,-1.9183,-1.9142,-1.911,-1.9077,-1.9061,-1.9272,-1.9589,-2.0341,-2.1201,-2.1944,-2.2864,-2.3598,-2.4408,-2.5622,-2.6923,-2.8334,-2.9423,-2.9676,-2.9625,-2.9482,-2.9339,-2.9376,-2.9491,-2.9581,-2.9824,-2.9913,-2.9913,-2.9913,-2.9913,-2.9913,-2.9913,-2.9913,-2.9927,-3.0087,-3.0074,-2.994,-2.9927,-2.9927,-2.9913,-2.99,-2.978,-2.9499,-2.9232,-2.8938,-2.8631,-2.8604,-2.847,-2.8328,-2.8234,-2.8323,-2.8417,-2.8417,-2.8484,-2.8511,-2.8341,-2.8154,-2.8003,-2.7923,-2.7776,-2.7698,-2.7348,-2.7054,-2.6841,-2.6747,-2.664,-2.6507,-2.6346,-2.6092,-2.5812,-2.5521,-2.5335,-2.5053,-2.4862,-2.4544,-2.4186,-2.4022,-2.3719,-2.3442,-2.3241,-2.2965,-2.2876,-2.2882,-2.2818,-2.2757,-2.2536,-2.2404,-2.2319,-2.2334,-2.2346,-2.2346,-2.2321,-2.2066,-1.9264,-1.9264,-1.9264,-1.9264,-1.9264,-1.9264,-1.9264,-1.9264,-1.9264,-1.9264,-1.9264,-1.9264,-1.9264,-1.9264,-1.9264,-1.9264,-1.9264,-1.9264,-1.9264,-1.9264,-1.9264,-1.9264,-1.9256,-1.9248,-1.9248,-1.9264,-1.9216,-1.9216,-1.9249,-1.9517,-1.9859,-2.0482,-2.0825,-2.1376,-2.202,-2.2816,-2.3783,-2.5582,-2.7192,-2.7993,-2.8059,-2.7901,-2.7964,-2.821,-2.861,-2.8937,-2.9313,-2.9883,-3.0167,-3.0047,-3.006,-3.0034,-2.994,-3.0007,-3.006,-3.0127,-3.0314,-3.0341,-3.0167,-3.006,-2.9993,-2.994,-2.99,-2.9833,-2.9659,-2.9352,-2.9138,-2.8925,-2.8898,-2.8711,-2.8457,-2.8404,-2.8604,-2.8684,-2.8631,-2.8684,-2.8671,-2.847,-2.8323,-2.8257,-2.819,-2.8167,-2.7993,-2.7779,-2.7428,-2.7134,-2.7001,-2.6934,-2.6814,-2.6667,-2.6466,-2.6199,-2.5765,-2.5489,-2.519,-2.4919,-2.4585,-2.4251,-2.4085,-2.3868,-2.3436,-2.3283,-2.3218,-2.3162,-2.3206,-2.3116,-2.3056,-2.2826,-2.2609,-2.2564,-2.2467,-2.237,-2.2346,-2.2358,-2.2346,-1.9264,-1.9264,-1.9264,-1.9264,-1.9264,-1.9264,-1.9264,-1.9264,-1.9264,-1.9264,-1.9264,-1.9264,-1.9264,-1.9264,-1.9264,-1.9264,-1.9264,-1.9264,-1.9264,-1.9264,-1.9264,-1.9264,-1.9264,-1.9264,-1.9264,-1.9264,-1.9264,-1.9264,-1.9256,-1.9306,-1.9372,-1.9413,-1.9813,-1.9675,-2.0149,-2.1262,-2.2528,-2.4069,-2.5517,-2.5814,-2.5703,-2.5582,-2.5778,-2.6467,-2.7261,-2.8285,-2.9237,-3.0004,-3.0358,-3.0146,-3.0093,-3.0053,-2.9856,-3.0,-3.0066,-3.029,-3.0608,-3.0595,-3.0408,-3.0261,-3.0154,-3.0007,-2.9913,-2.99,-2.9806,-2.9847,-2.9686,-2.9379,-2.9259,-2.9152,-2.9018,-2.8991,-2.8978,-2.8978,-2.8911,-2.8938,-2.8898,-2.8751,-2.8604,-2.8524,-2.8457,-2.8377,-2.8257,-2.8043,-2.7736,-2.7442,-2.7281,-2.7215,-2.7121,-2.6974,-2.6854,-2.6574,-2.6056,-2.5675,-2.5257,-2.4893,-2.44,-2.4025,-2.3819,-2.3602,-2.3271,-2.3242,-2.3441,-2.3411,-2.3418,-2.3418,-2.3291,-2.3104,-2.2862,-2.2657,-2.26,-2.2588,-2.2552,-2.2564,-2.2515,-1.9264,-1.9264,-1.9264,-1.9264,-1.9264,-1.9264,-1.9264,-1.9264,-1.9264,-1.9264,-1.9264,-1.9264,-1.9264,-1.9264,-1.9264,-1.9264,-1.9264,-1.9264,-1.9264,-1.9264,-1.9264,-1.9264,-1.9264,-1.9264,-1.9264,-1.9264,-1.9264,-1.9264,-1.9264,-1.9297,-1.9264,-1.9256,-1.9297,-1.9355,-1.9651,-2.0423,-2.179,-2.2769,-2.3833,-2.4345,-2.439,-2.4225,-2.4408,-2.5012,-2.6137,-2.7052,-2.7974,-2.9196,-2.9608,-2.961,-2.9455,-2.939,-2.9456,-2.9677,-2.9926,-3.0267,-3.0717,-3.0875,-3.0635,-3.0461,-3.0221,-2.9993,-2.9913,-2.9913,-2.9913,-2.9913,-2.9766,-2.9579,-2.9499,-2.9392,-2.9112,-2.8945,-2.9045,-2.9138,-2.9192,-2.9219,-2.9138,-2.9005,-2.8911,-2.8845,-2.8778,-2.8698,-2.8564,-2.8417,-2.8083,-2.7762,-2.7615,-2.7482,-2.7402,-2.7281,-2.7161,-2.6826,-2.6305,-2.5801,-2.5384,-2.4819,-2.4214,-2.3915,-2.3605,-2.3581,-2.349,-2.355,-2.3647,-2.3695,-2.3592,-2.3568,-2.3471,-2.3345,-2.3128,-2.2935,-2.2915,-2.2891,-2.2842,-2.2617,-2.2429,-1.9264,-1.9264,-1.9264,-1.9264,-1.9264,-1.9264,-1.9264,-1.9264,-1.9264,-1.9264,-1.9264,-1.9264,-1.9264,-1.9264,-1.9264,-1.9264,-1.9264,-1.9264,-1.9264,-1.9264,-1.9264,-1.9264,-1.9264,-1.9272,-1.9289,-1.9313,-1.9337,-1.9354,-1.9459,-1.9427,-1.9451,-1.9451,-1.941,-1.9394,-1.9553,-2.0333,-2.1112,-2.1603,-2.2051,-2.2504,-2.2466,-2.2312,-2.2596,-2.3235,-2.4333,-2.5235,-2.609,-2.7239,-2.7828,-2.7802,-2.7775,-2.7901,-2.8365,-2.8854,-2.933,-3.0,-3.0662,-3.1116,-3.0929,-3.0555,-3.0247,-2.9967,-2.9913,-2.9913,-2.9913,-2.9913,-2.9806,-2.9686,-2.9619,-2.9513,-2.9285,-2.9366,-2.9392,-2.9513,-2.9499,-2.9499,-2.9419,-2.9312,-2.9232,-2.9165,-2.9058,-2.8911,-2.8791,-2.8617,-2.8323,-2.8043,-2.7909,-2.7789,-2.7722,-2.7602,-2.7455,-2.7023,-2.6499,-2.6005,-2.5503,-2.4914,-2.4417,-2.4373,-2.4057,-2.3985,-2.3973,-2.3985,-2.3808,-2.3712,-2.37,-2.3828,-2.3664,-2.3507,-2.3406,-2.3212,-2.3062,-2.2835,-2.233,-2.2105,-2.1997,-1.9264,-1.9264,-1.9264,-1.9264,-1.9264,-1.9264,-1.9264,-1.9264,-1.9264,-1.9264,-1.9264,-1.9264,-1.9264,-1.9264,-1.9264,-1.9264,-1.9264,-1.9264,-1.9264,-1.9264,-1.9264,-1.9264,-1.9264,-1.9272,-1.9329,-1.9467,-1.9484,-1.954,-1.9727,-1.9687,-1.9711,-1.9719,-1.9662,-1.9581,-1.9396,-1.9371,-1.9462,-1.9495,-1.9842,-1.9999,-2.0031,-2.0164,-2.0617,-2.137,-2.2371,-2.3488,-2.4359,-2.541,-2.5909,-2.5788,-2.5604,-2.5811,-2.6393,-2.7546,-2.8466,-2.952,-3.0802,-3.1274,-3.1116,-3.0675,-3.025,-3.0087,-3.0087,-3.0007,-2.9953,-2.9927,-2.99,-2.9793,-2.9833,-2.986,-2.9847,-2.9847,-2.9793,-2.9766,-2.974,-2.9713,-2.9633,-2.9593,-2.9513,-2.9472,-2.9245,-2.9032,-2.8938,-2.8705,-2.8438,-2.831,-2.8177,-2.8167,-2.8003,-2.7883,-2.7722,-2.7192,-2.6583,-2.6031,-2.5508,-2.4927,-2.454,-2.4576,-2.4516,-2.4359,-2.4287,-2.4251,-2.4118,-2.3937,-2.3892,-2.4013,-2.3916,-2.3772,-2.3368,-2.2898,-2.2855,-2.258,-2.2061,-2.1548,-2.1309,-1.9264,-1.9264,-1.9264,-1.9264,-1.9264,-1.9264,-1.9264,-1.9264,-1.9264,-1.9264,-1.9264,-1.9264,-1.9264,-1.9264,-1.9264,-1.9264,-1.9264,-1.9264,-1.9264,-1.9264,-1.9264,-1.9264,-1.9264,-1.9281,-1.9354,-1.9475,-1.9524,-1.9622,-1.9776,-1.9817,-1.98,-1.9792,-1.98,-1.9735,-1.9646,-1.9613,-1.9613,-1.9622,-1.9755,-1.9714,-1.9459,-1.9484,-1.975,-2.0368,-2.1326,-2.2112,-2.2798,-2.3766,-2.4085,-2.3972,-2.3891,-2.4204,-2.5045,-2.6197,-2.7415,-2.8486,-2.9733,-3.0475,-3.0256,-3.0039,-3.0161,-3.0096,-3.0223,-3.013,-3.0207,-3.0007,-2.994,-2.9913,-2.9913,-2.9913,-2.99,-2.9887,-2.986,-2.9873,-2.986,-2.986,-2.982,-2.9806,-2.9766,-2.9766,-2.9633,-2.9154,-2.8921,-2.8723,-2.8459,-2.832,-2.8188,-2.8199,-2.8177,-2.7999,-2.7879,-2.7249,-2.6651,-2.6122,-2.5562,-2.5114,-2.477,-2.4745,-2.4673,-2.4552,-2.4504,-2.4492,-2.4432,-2.4299,-2.4253,-2.4277,-2.3704,-2.3248,-2.2826,-2.249,-2.2137,-2.1956,-2.1621,-2.0976,-2.0477,-1.9264,-1.9264,-1.9264,-1.9264,-1.9264,-1.9264,-1.9264,-1.9264,-1.9264,-1.9264,-1.9264,-1.9264,-1.9264,-1.9264,-1.9264,-1.9264,-1.9264,-1.9264,-1.9264,-1.9264,-1.9264,-1.9264,-1.9264,-1.9289,-1.9419,-1.9532,-1.9638,-1.9727,-1.9995,-1.9922,-1.9857,-1.9825,-1.9849,-1.9882,-1.9857,-1.9825,-1.976,-1.9776,-1.98,-1.98,-1.9687,-1.9654,-1.9739,-2.0108,-2.0539,-2.11,-2.1533,-2.198,-2.2434,-2.2359,-2.2381,-2.2528,-2.3451,-2.4518,-2.5528,-2.6613,-2.7599,-2.8284,-2.8164,-2.8128,-2.8174,-2.8442,-2.9423,-3.0017,-3.0108,-2.9922,-2.9853,-2.9877,-2.994,-2.994,-2.9953,-2.9953,-2.9967,-2.9967,-2.9967,-2.9967,-2.994,-2.9913,-2.99,-2.9913,-2.9707,-2.9356,-2.8932,-2.8647,-2.8413,-2.8291,-2.8095,-2.8221,-2.8175,-2.8023,-2.7761,-2.7129,-2.6592,-2.6108,-2.5672,-2.5359,-2.5083,-2.4927,-2.4711,-2.4496,-2.477,-2.477,-2.4721,-2.4566,-2.4411,-2.4045,-2.3181,-2.2621,-2.1819,-2.1305,-2.0894,-2.0823,-2.0971,-2.0204,-1.94,-1.9264,-1.9264,-1.9264,-1.9264,-1.9264,-1.9264,-1.9264,-1.9264,-1.9264,-1.9264,-1.9264,-1.9264,-1.9264,-1.9264,-1.9264,-1.9264,-1.9264,-1.9264,-1.9264,-1.9264,-1.9264,-1.9264,-1.9289,-1.9313,-1.9516,-1.9703,-1.9825,-1.9938,-2.0247,-2.0093,-1.9938,-1.9865,-1.9946,-1.9995,-1.9979,-1.9955,-1.989,-1.9938,-1.9995,-1.9955,-1.9857,-1.9914,-1.9951,-2.0047,-2.0091,-1.9999,-2.0125,-2.0158,-1.9974,-1.98,-1.9643,-2.0128,-2.0915,-2.1888,-2.2857,-2.392,-2.5184,-2.555,-2.5819,-2.5893,-2.5797,-2.6444,-2.7806,-2.8786,-2.9506,-2.952,-2.9755,-3.0,-3.014,-3.006,-3.002,-3.0047,-3.0074,-3.0074,-3.0074,-3.0034,-2.9993,-2.9967,-2.9953,-2.985,-2.9734,-2.9359,-2.8832,-2.8574,-2.8244,-2.8079,-2.7938,-2.8075,-2.8034,-2.7879,-2.749,-2.6904,-2.6473,-2.6118,-2.5653,-2.4852,-2.455,-2.414,-2.4453,-2.443,-2.4709,-2.453,-2.4231,-2.4065,-2.4246,-2.3735,-2.2254,-2.1217,-2.0406,-1.9961,-1.9321,-1.9284,-1.9249,-1.8511,-1.7656,-1.9264,-1.9264,-1.9264,-1.9264,-1.9264,-1.9264,-1.9264,-1.9264,-1.9264,-1.9264,-1.9264,-1.9264,-1.9264,-1.9264,-1.9264,-1.9264,-1.9264,-1.9264,-1.9264,-1.9264,-1.9264,-1.9337,-1.9394,-1.9451,-1.967,-1.9857,-2.0003,-2.0068,-2.0223,-2.0141,-1.9955,-1.9849,-1.993,-2.0003,-2.0052,-2.0117,-2.0117,-2.0133,-2.0182,-2.0117,-2.0028,-2.0052,-1.9971,-1.9882,-1.9841,-1.9735,-1.9613,-1.9557,-1.9467,-1.9321,-1.9272,-1.966,-2.0235,-2.1299,-2.2359,-2.3726,-2.431,-2.4407,-2.431,-2.431,-2.4223,-2.4233,-2.542,-2.6904,-2.8005,-2.8904,-2.9412,-2.9926,-3.0134,-3.0108,-3.0094,-3.0108,-3.0108,-3.0108,-3.0094,-2.9873,-2.9833,-2.9767,-2.9728,-2.966,-2.9544,-2.9028,-2.8591,-2.8194,-2.7964,-2.7773,-2.7748,-2.771,-2.7724,-2.7536,-2.7071,-2.6474,-2.5742,-2.5259,-2.4419,-2.3525,-2.344,-2.3354,-2.3473,-2.3473,-2.3276,-2.3198,-2.3295,-2.3058,-2.2755,-2.1852,-2.0766,-1.9751,-1.8772,-1.8131,-1.7563,-1.753,-1.7401,-1.6901,-1.627,-1.9264,-1.9264,-1.9264,-1.9264,-1.9264,-1.9264,-1.9264,-1.9264,-1.9264,-1.9264,-1.9264,-1.9264,-1.9264,-1.9264,-1.9264,-1.9264,-1.9264,-1.9264,-1.9264,-1.9264,-1.9264,-1.937,-1.9459,-1.9549,-1.9727,-1.9938,-2.0085,-2.0133,-2.0206,-2.0044,-1.9841,-1.9589,-1.976,-1.9833,-1.989,-2.002,-2.0174,-2.0214,-2.0247,-2.0239,-2.0206,-2.0158,-2.0085,-2.0011,-1.9979,-1.9873,-1.9743,-1.9719,-1.963,-1.95,-1.9467,-1.9567,-1.9967,-2.0656,-2.1045,-2.2057,-2.2156,-2.2066,-2.2057,-2.2054,-2.2116,-2.2364,-2.2906,-2.4034,-2.5814,-2.7038,-2.8575,-2.9726,-2.9924,-3.0109,-3.0122,-3.0135,-3.0122,-3.0122,-2.999,-2.9767,-2.9702,-2.9624,-2.9456,-2.9352,-2.908,-2.8667,-2.8254,-2.7855,-2.7546,-2.7123,-2.6828,-2.6623,-2.6858,-2.6953,-2.6479,-2.5896,-2.4971,-2.4174,-2.314,-2.2172,-2.1823,-2.1736,-2.1695,-2.1675,-2.1603,-2.1608,-2.147,-2.1221,-2.0809,-1.9951,-1.9054,-1.8034,-1.7071,-1.6489,-1.6057,-1.5931,-1.5996,-1.5813,-1.5286,-1.9248,-1.9264,-1.9264,-1.9264,-1.9264,-1.9264,-1.9264,-1.9264,-1.9264,-1.9264,-1.9264,-1.9264,-1.9264,-1.9264,-1.9264,-1.9264,-1.9264,-1.9264,-1.9264,-1.9264,-1.9264,-1.937,-1.9524,-1.9565,-1.9808,-1.9987,-2.0101,-2.015,-2.0133,-1.9963,-1.967,-1.9297,-1.9467,-1.9589,-1.9654,-1.9946,-2.0109,-2.0141,-2.0239,-2.0304,-2.0304,-2.0312,-2.032,-2.0296,-2.0263,-2.0214,-2.0085,-2.002,-1.9987,-1.9849,-1.9776,-1.9752,-1.9837,-1.9938,-2.0039,-2.014,-2.0402,-2.0503,-2.0452,-2.035,-2.0091,-2.0124,-2.0346,-2.1701,-2.3605,-2.5452,-2.7108,-2.8171,-2.8347,-2.8347,-2.8347,-2.8347,-2.8347,-2.8347,-2.8229,-2.7862,-2.7567,-2.7856,-2.8347,-2.8449,-2.8714,-2.8286,-2.8082,-2.776,-2.7105,-2.6561,-2.6004,-2.5628,-2.5252,-2.5571,-2.5241,-2.4587,-2.3759,-2.2657,-2.1611,-2.0673,-2.0121,-1.9925,-1.9939,-1.9846,-1.9762,-1.9774,-1.9709,-1.9361,-1.9012,-1.8226,-1.7351,-1.6577,-1.5881,-1.5264,-1.4822,-1.4564,-1.4564,-1.4836,-1.4734,-1.9134,-1.9256,-1.9264,-1.9264,-1.9264,-1.9264,-1.9264,-1.9264,-1.9264,-1.9264,-1.9264,-1.9264,-1.9264,-1.9264,-1.9264,-1.9264,-1.9264,-1.9289,-1.9264,-1.9289,-1.9289,-1.9492,-1.967,-1.9735,-1.993,-2.015,-2.0239,-2.0141,-1.9995,-1.9825,-1.9638,-1.9337,-1.9443,-1.954,-1.9565,-1.9898,-2.0068,-2.0076,-2.0223,-2.032,-2.032,-2.032,-2.032,-2.032,-2.0304,-2.0239,-2.0133,-2.0068,-1.9963,-1.9825,-1.98,-1.9784,-1.9784,-1.98,-1.98,-1.9792,-1.9833,-1.9849,-1.98,-1.9695,-1.9597,-1.96,-2.009,-2.0771,-2.2056,-2.3773,-2.5088,-2.5998,-2.6529,-2.6517,-2.6506,-2.6506,-2.6506,-2.6506,-2.6326,-2.5905,-2.5509,-2.6239,-2.704,-2.7481,-2.8008,-2.7989,-2.7775,-2.7287,-2.6699,-2.5913,-2.499,-2.4247,-2.3239,-2.3025,-2.2851,-2.2343,-2.191,-2.0996,-1.9907,-1.9039,-1.8479,-1.8116,-1.8122,-1.8021,-1.792,-1.7878,-1.7836,-1.7655,-1.7184,-1.664,-1.6221,-1.5712,-1.5013,-1.4531,-1.4373,-1.4401,-1.4373,-1.4633,-1.4503,-1.8972,-1.9134,-1.9224,-1.9264,-1.9264,-1.9264,-1.9264,-1.9264,-1.9264,-1.9264,-1.9264,-1.9264,-1.9264,-1.9264,-1.9264,-1.9264,-1.9281,-1.9354,-1.9378,-1.9386,-1.9467,-1.9678,-1.9817,-1.9906,-2.0076,-2.0271,-2.0288,-2.0174,-1.993,-1.989,-1.9776,-1.9532,-1.9597,-1.9638,-1.967,-1.9914,-2.0068,-2.0076,-2.0239,-2.0312,-2.032,-2.032,-2.032,-2.032,-2.0304,-2.0247,-2.0231,-2.0182,-2.0125,-2.006,-2.0052,-2.0044,-2.0052,-2.006,-2.0044,-2.0044,-2.0044,-2.0028,-1.9963,-1.9857,-1.9735,-1.9771,-1.9782,-2.0525,-2.0525,-2.2066,-2.3179,-2.4089,-2.4927,-2.5099,-2.5099,-2.5099,-2.5099,-2.5002,-2.4819,-2.438,-2.4328,-2.4747,-2.5363,-2.5694,-2.6254,-2.6642,-2.6352,-2.5969,-2.5277,-2.428,-2.3498,-2.2462,-2.1436,-2.0473,-2.0308,-2.0069,-1.9739,-1.9187,-1.8241,-1.7364,-1.6597,-1.6407,-1.6469,-1.631,-1.6333,-1.6175,-1.6017,-1.6069,-1.6069,-1.5674,-1.5227,-1.4984,-1.4923,-1.464,-1.4543,-1.4529,-1.4489,-1.4462,-1.4475,-1.8809,-1.8996,-1.9183,-1.9264,-1.9264,-1.9264,-1.9264,-1.9264,-1.9264,-1.9264,-1.9264,-1.9264,-1.9264,-1.9264,-1.9264,-1.9264,-1.9305,-1.941,-1.9475,-1.954,-1.967,-1.9825,-1.9946,-2.006,-2.0174,-2.0255,-2.0304,-2.0206,-2.0036,-2.0011,-1.9946,-1.9825,-1.9792,-1.9792,-1.9849,-1.9955,-2.0068,-2.0109,-2.0214,-2.0304,-2.032,-2.032,-2.032,-2.032,-2.032,-2.032,-2.032,-2.0312,-2.0312,-2.0296,-2.0263,-2.0255,-2.0247,-2.0239,-2.0255,-2.0247,-2.0239,-2.0247,-2.0231,-2.0093,-2.0044,-2.009,-1.9882,-1.98,-1.9886,-2.0511,-2.165,-2.2246,-2.3002,-2.3297,-2.3297,-2.3248,-2.3248,-2.315,-2.2867,-2.2583,-2.2848,-2.3023,-2.3382,-2.3723,-2.4323,-2.4822,-2.4747,-2.4367,-2.3664,-2.2675,-2.1704,-2.0572,-1.9558,-1.8557,-1.7941,-1.7925,-1.7723,-1.7087,-1.6644,-1.6233,-1.561,-1.5561,-1.5732,-1.5124,-1.4872,-1.5223,-1.5271,-1.5042,-1.4867,-1.4944,-1.4951,-1.4826,-1.4692,-1.4719,-1.4672,-1.4624,-1.4638,-1.4624,-1.4672,-1.8696,-1.8996,-1.9183,-1.9264,-1.9264,-1.9264,-1.9264,-1.9264,-1.9264,-1.9264,-1.9264,-1.9264,-1.9264,-1.9264,-1.9264,-1.9264,-1.9289,-1.9443,-1.9508,-1.954,-1.9776,-1.9922,-2.0036,-2.0125,-2.0182,-2.0255,-2.0304,-2.0214,-2.0133,-2.0085,-1.9987,-1.9841,-1.9817,-1.9825,-1.9841,-1.9963,-2.0101,-2.015,-2.0223,-2.032,-2.032,-2.032,-2.032,-2.032,-2.032,-2.032,-2.032,-2.032,-2.032,-2.032,-2.032,-2.032,-2.032,-2.032,-2.032,-2.032,-2.032,-2.032,-2.0271,-2.0182,-2.0125,-2.0093,-1.9963,-1.9865,-1.9959,-1.9951,-2.0553,-2.0427,-2.0911,-2.0872,-2.0811,-2.0771,-2.0718,-2.0325,-2.0038,-2.0029,-2.0111,-2.0397,-2.0738,-2.143,-2.2229,-2.2461,-2.2596,-2.2212,-2.1801,-2.0824,-1.9871,-1.8839,-1.8025,-1.6894,-1.596,-1.6068,-1.6075,-1.6025,-1.5931,-1.573,-1.5313,-1.5193,-1.5052,-1.497,-1.4875,-1.476,-1.4746,-1.4828,-1.4801,-1.4851,-1.4767,-1.4835,-1.4801,-1.4801,-1.4753,-1.4719,-1.4753,-1.4787,-1.4835]},{"header":{"parameterUnit":"m.s-1","parameterCategory":1,"la1":31.0,"la2":29.5877,"lo1":-88.7671,"lo2":-86.6584,"dy":0.0162,"dx":0.0185,"nx":115,"ny":88,"refTime":"2026-03-26T00:00:00:Z","depth":0,"parameterNumber":3,"parameterNumberName":"V-component_of_WINDS"},"data":[0.0,0.0,0.0,0.0,0.0,0.0,0.0,0.0,0.0,0.0,0.0,0.0,0.0,0.0,0.0,0.0,0.0,0.0,0.0,0.0,0.0,0.0,0.0,0.0,0.0,0.0,0.0,0.0,0.0,0.0,0.0,0.0,0.0,0.0,0.0,0.0,0.0,0.0,0.0,0.0,0.0,0.0,0.0,0.0,0.0,0.0,0.0,0.0,0.0,0.0,0.0,0.0,0.0,0.0,0.0,0.0,0.0,0.0,0.0,0.0,0.0,0.0,0.0,0.0,0.0,0.0,0.0,0.0,0.0,0.0,0.0,0.0,0.0,0.0,0.0,0.0,0.0,0.0,0.0,0.0,0.0,0.0,0.0,0.0,0.0,0.0,0.0,0.0,0.0,0.0,0.0,0.0,0.0,0.0,0.0,0.0,0.0,0.0,0.0,0.0,0.0,0.0,0.0,0.0,0.0,0.0,0.0,0.0,0.0,0.0,0.0,0.0,0.0,0.0,0.0,0.0,0.0,0.0,0.0,0.0,0.0,0.0,0.0,0.0,0.0,0.0,0.0,0.0,0.0,0.0,0.0,0.0,0.0,0.0,0.0,0.0,0.0,0.0,0.0,0.0,0.0,0.0,0.0,0.0,0.0,0.0,0.0,0.0,0.0,0.0,0.0,0.0,0.0,0.0,0.0,0.0,0.0,0.0,0.0,0.0,0.0,0.0,0.0,0.0,0.0,0.0,0.0,0.0,0.0,0.0,0.0,0.0,0.0,0.0,0.0,0.0,0.0,0.0,0.0,0.0,0.0,0.0,0.0,0.0,0.0,0.0,0.0,0.0,0.0,0.0,0.0,0.0,0.0,0.0,0.0,0.0,0.0,0.0,0.0,0.0,0.0,0.0,0.0,0.0,0.0,0.0,0.0,0.0,0.0,0.0,0.0,0.0,0.0,0.0,0.0,0.0,0.0,0.0,0.0,0.0,0.0,0.0,0.0,0.0,0.0,0.0,0.0,0.0,0.0,0.0,0.0,0.0,0.0,0.0,0.0,0.0,0.0,0.0,0.0,0.0,0.0,0.0,0.0,0.0,0.0,0.0,0.0,0.0,0.0,0.0,0.0,0.0,0.0,0.0,0.0,0.0,0.0,0.0,0.0,0.0,0.0,0.0,0.0,0.0,0.0,0.0,0.0,0.0,0.0,0.0,0.0,0.0,0.0,0.0,0.0,0.0,0.0,0.0,0.0,0.0,0.0,0.0,0.0,0.0,0.0,0.0,0.0,0.0,0.0,0.0,0.0,0.0,0.0,0.0,0.0,0.0,0.0,0.0,0.0,0.0,0.0,0.0,0.0,0.0,0.0,0.0,0.0,0.0,0.0,0.0,0.0,0.0,0.0,0.0,0.0,0.0,0.0,0.0,0.0,0.0,0.0,0.0,0.0,0.0,0.0,0.0,0.0,0.0,0.0,0.0,0.0,0.0,0.0,0.0,0.0,0.0,0.0,0.0,0.0,0.0,0.0,0.0,0.0,0.0,0.0,0.0,0.0,0.0,0.0,0.0,0.0,0.0,0.0,0.0,0.0,0.0,0.0,0.0,0.0,0.0,0.0,0.0,0.0,0.0,0.0,0.0,0.0,0.0,0.0,0.0,0.0,0.0,0.0,0.0,0.0,0.0,0.0,0.0,0.0,0.0,0.0,0.0,0.0,0.0,0.0,0.0,0.0,0.0,0.0,0.0,0.0,0.0,0.0,0.0,0.0,0.0,0.0,0.0,0.0,0.0,0.0,0.0,0.0,0.0,0.0,0.0,0.0,0.0,0.0,0.0,0.0,0.0,0.0,0.0,0.0,0.0,0.0,0.0,0.0,0.0,0.0,0.0,0.0,0.0,0.0,0.0,0.0,0.0,0.0,0.0,0.0,0.0,0.0,0.0,0.0,0.0,0.0,0.0,0.0,0.0,0.0,0.0,0.0,0.0,0.0,0.0,0.0,0.0,0.0,0.0,0.0,0.0,0.0,0.0,0.0,0.0,0.0,0.0,0.0,0.0,0.0,0.0,0.0,0.0,0.0,0.0,0.0,0.0,0.0,0.0,0.0,0.0,0.0,0.0,0.0,0.0,0.0,0.0,0.0,0.0,0.0,0.0,0.0,0.0,0.0,0.0,0.0,0.0,0.0,0.0,0.0,0.0,0.0,0.0,0.0,0.0,0.0,0.0,0.0,0.0,0.0,0.0,0.0,0.0,0.0,0.0,0.0,0.0,0.0,0.0,0.0,0.0,0.0,0.0,0.0,0.0,0.0,0.0,0.0,0.0,0.0,0.0,0.0,0.0,0.0,0.0,0.0,0.0,0.0,0.0,0.0,0.0,0.0,0.0,0.0,0.0,0.0,0.0,0.0,0.0,0.0,0.0,0.0,0.0,0.0,0.0,0.0,0.0,0.0,0.0,0.0,0.0,0.0,0.0,0.0,0.0,0.0,0.0,0.0,0.0,0.0,0.0,0.0,0.0,0.0,0.0,0.0,0.0,0.0,0.0,0.0,0.0,0.0,0.0,0.0,0.0,0.0,0.0,0.0,0.0,0.0,0.0,0.0,0.0,0.0,0.0,0.0,0.0,0.0,0.0,0.0,0.0,0.0,0.0,0.0,0.0,0.0,0.0,0.0,0.0,0.0,0.0,0.0,0.0,0.0,0.0,0.0,0.0,0.0,0.0,0.0,0.0,0.0,0.0,0.0,0.0,0.0,0.0,0.0,0.0,0.0,0.0,0.0,0.0,0.0,0.0,0.0,0.0,0.0,0.0,0.0,0.0,0.0,0.0,0.0,0.0,0.0,0.0,0.0,0.0,0.0,0.0,0.0,0.0,0.0,0.0,0.0,0.0,0.0,0.0,0.0,0.0,0.0,0.0,0.0,0.0,0.0,0.0,0.0,0.0,0.0,0.0,0.0,0.0,0.0,0.0,0.0,0.0,0.0,0.0,0.0,0.0,0.0,0.0,0.0,0.0,0.0,0.0,0.0,0.0,0.0,0.0,0.0,0.0,0.0,0.0,0.0,0.0,0.0,0.0,0.0,0.0,0.0,0.0,0.0,0.0,0.0,0.0,0.0,0.0,0.0,0.0,0.0,0.0,0.0,0.0,0.0,0.0,0.0,0.0,0.0,0.0,0.0,0.0,0.0,0.0,0.0,0.0,0.0,0.0,0.0,0.0,0.0,0.0,0.0,0.0,0.0,0.0,0.0,0.0,0.0,0.0,0.0,0.0,0.0,0.0,0.0,0.0,0.0,0.0,0.0,0.0,0.0,0.0,0.0,0.0,0.0,0.0,0.0,0.0,0.0,0.0,0.0,0.0,0.0,0.0,0.0,0.0,0.0,0.0,0.0,0.0,0.0,0.0,0.0,0.0,0.0,0.0,0.0,0.0,0.0,0.0,0.0,0.0,0.0,0.0,0.0,0.0,0.0,0.0,0.0,0.0,0.0,0.0,0.0,0.0,0.0,0.0,0.0,0.0,0.0,0.0,0.0,0.0,0.0,0.0,0.0,0.0,0.0,0.0,0.0,0.0,0.0,0.0,0.0,0.0,0.0,0.0,0.0,0.0,0.0,0.0,0.0,0.0,0.0,0.0,0.0,0.0,0.0,0.0,0.0,0.0,0.0,0.0,0.0,0.0,0.0,0.0,0.0,0.0,0.0,0.0,0.0,0.0,0.0,0.0,0.0,0.0,0.0,0.0,0.0,0.0,0.0,0.0,0.0,0.0,0.0,0.0,0.0,0.0,0.0,0.0,0.0,0.0,0.0,0.0,0.0,0.0,0.0,0.0,0.0,0.0,0.0,0.0,0.0,0.0,0.0,0.0,0.0,0.0,0.0,0.0,0.0,0.0,0.0,0.0,0.0,0.0,0.0,0.0,0.0,0.0,0.0,0.0,0.0,0.0,0.0,0.0,0.0,0.0,0.0,0.0,0.0,0.0,0.0,0.0,0.0,0.0,0.0,0.0,0.0,0.0,0.0,0.0,0.0,0.0,0.0,0.0,0.0,0.0,0.0,0.0,0.0,0.0,0.0,0.0,0.0,0.0,0.0,0.0,0.0,0.0,0.0,0.0,0.0,0.0,0.0,0.0,0.0,0.0,0.0,0.0,0.0,0.0,0.0,0.0,0.0,0.0,0.0,0.0,0.0,0.0,0.0,0.0,0.0,0.0,0.0,0.0,0.0,0.0,0.0,0.0,0.0,0.0,0.0,0.0,0.0,0.0,0.0,0.0,0.0,0.0,0.0,0.0,0.0,0.0,1.8819,0.0,0.0,0.0,0.0,0.0,0.0,0.0,0.0,0.0,0.0,0.0,0.0,0.0,0.0,0.0,0.0,0.0,0.0,0.0,0.0,0.0,0.0,0.0,0.0,0.0,0.0,0.0,0.0,0.0,0.0,0.0,0.0,0.0,0.0,0.0,0.0,0.0,0.0,0.0,0.0,0.0,0.0,0.0,0.0,0.0,0.0,0.0,0.0,0.0,0.0,0.0,0.0,0.0,0.0,0.0,0.0,0.0,0.0,0.0,0.0,0.0,0.0,0.0,0.0,0.0,0.0,0.0,0.0,0.0,0.0,0.0,0.0,0.0,0.0,0.0,0.0,0.0,0.0,0.0,0.0,0.0,0.0,0.0,0.0,0.0,0.0,0.0,0.0,0.0,0.0,0.0,0.0,0.0,0.0,0.0,0.0,0.0,0.0,0.0,0.0,0.0,0.0,0.0,0.0,0.0,0.0,0.0,0.0,0.0,0.0,2.0625,2.0625,2.0414,1.9863,1.895,0.0,0.0,0.0,0.0,0.0,0.0,0.0,0.0,0.0,0.0,0.0,0.0,0.0,0.0,0.0,0.0,0.0,0.0,0.0,0.0,0.0,0.0,0.0,0.0,0.0,0.0,0.0,0.0,0.0,0.0,0.0,0.0,0.0,0.0,0.0,0.0,0.0,0.0,0.0,0.0,0.0,0.0,0.0,0.0,0.0,0.0,0.0,0.0,0.0,0.0,0.0,0.0,0.0,0.0,0.0,0.0,0.0,0.0,0.0,0.0,0.0,0.0,0.0,0.0,0.0,0.0,0.0,0.0,0.0,0.0,0.0,0.0,0.0,0.0,0.0,0.0,0.0,0.0,0.0,0.0,0.0,0.0,0.0,0.0,0.0,0.0,0.0,0.0,0.0,0.0,0.0,0.0,0.0,0.0,0.0,0.0,0.0,0.0,0.0,0.0,0.0,0.0,0.0,0.0,0.0,0.0,0.0,0.0,0.0,0.0,0.0,0.0,2.0777,2.0124,1.8924,0.0,0.0,0.0,0.0,0.0,0.0,0.0,0.0,0.0,0.0,0.0,0.0,0.0,0.0,0.0,0.0,0.0,0.0,0.0,0.0,0.0,0.0,0.0,0.0,0.0,0.0,0.0,0.0,0.0,0.0,0.0,0.0,0.0,0.0,0.0,0.0,0.0,0.0,0.0,0.0,0.0,0.0,0.0,0.0,0.0,0.0,0.0,0.0,0.0,0.0,0.0,0.0,0.0,0.0,0.0,0.0,0.0,0.0,0.0,0.0,0.0,0.0,0.0,0.0,0.0,0.0,0.0,0.0,0.0,0.0,0.0,0.0,0.0,0.0,0.0,0.0,0.0,0.0,0.0,0.0,0.0,0.0,0.0,0.0,0.0,0.0,0.0,0.0,0.0,0.0,0.0,0.0,0.0,0.0,0.0,0.0,0.0,0.0,0.0,0.0,0.0,0.0,0.0,0.0,0.0,0.0,0.0,0.0,0.0,0.0,2.0936,2.1407,2.0936,0.0,1.895,0.0,0.0,0.0,0.0,0.0,0.0,0.0,0.0,0.0,0.0,0.0,0.0,0.0,0.0,0.0,0.0,0.0,0.0,0.0,0.0,0.0,0.0,0.0,0.0,0.0,0.0,0.0,0.0,0.0,0.0,0.0,0.0,0.0,0.0,0.0,0.0,0.0,0.0,0.0,0.0,0.0,0.0,0.0,0.0,0.0,0.0,0.0,0.0,0.0,0.0,0.0,0.0,0.0,0.0,0.0,0.0,0.0,0.0,0.0,0.0,0.0,0.0,0.0,0.0,0.0,0.0,0.0,0.0,0.0,0.0,0.0,0.0,0.0,0.0,0.0,0.0,0.0,0.0,0.0,0.0,0.0,0.0,0.0,0.0,0.0,0.0,0.0,0.0,0.0,0.0,0.0,0.0,0.0,0.0,0.0,0.0,0.0,0.0,0.0,0.0,0.0,0.0,0.0,0.0,0.0,0.0,0.0,0.0,0.0,0.0,2.1276,2.1485,2.0283,1.9237,0.0,0.0,0.0,0.0,0.0,0.0,0.0,0.0,0.0,0.0,0.0,0.0,0.0,0.0,0.0,0.0,0.0,0.0,0.0,0.0,0.0,0.0,0.0,0.0,0.0,0.0,0.0,0.0,0.0,0.0,0.0,0.0,0.0,0.0,0.0,0.0,0.0,0.0,0.0,0.0,0.0,0.0,0.0,0.0,0.0,0.0,0.0,0.0,0.0,0.0,0.0,0.0,0.0,0.0,0.0,0.0,0.0,0.0,0.0,0.0,0.0,0.0,0.0,0.0,0.0,0.0,0.0,0.0,0.0,0.0,0.0,0.0,0.0,0.0,0.0,0.0,0.0,0.0,0.0,0.0,0.0,0.0,0.0,0.0,0.0,0.0,0.0,0.0,0.0,0.0,0.0,0.0,0.0,0.0,0.0,0.0,0.0,0.0,0.0,0.0,0.0,0.0,0.0,0.0,0.0,0.0,0.0,0.0,0.0,0.0,2.1093,2.1198,2.0989,1.9679,1.8607,1.79,0.0,0.0,0.0,0.0,0.0,0.0,0.0,0.0,0.0,0.0,0.0,0.0,0.0,0.0,0.0,0.0,0.0,0.0,0.0,0.0,0.0,0.0,0.0,0.0,0.0,0.0,0.0,0.0,0.0,0.0,0.0,0.0,0.0,0.0,0.0,0.0,0.0,0.0,0.0,0.0,0.0,0.0,0.0,0.0,0.0,0.0,0.0,0.0,0.0,0.0,0.0,0.0,0.0,0.0,0.0,0.0,0.0,0.0,0.0,0.0,0.0,0.0,0.0,0.0,0.0,0.0,0.0,0.0,0.0,0.0,0.0,0.0,0.0,0.0,0.0,0.0,0.0,0.0,0.0,0.0,0.0,0.0,0.0,0.0,0.0,0.0,0.0,0.0,0.0,0.0,0.0,0.0,0.0,0.0,0.0,0.0,0.0,0.0,0.0,0.0,0.0,0.0,0.0,0.0,0.0,0.0,0.0,0.0,0.0,2.0725,2.0465,1.9917,1.9357,1.8534,0.0,0.0,0.0,0.0,0.0,0.0,0.0,0.0,0.0,0.0,0.0,0.0,0.0,0.0,0.0,0.0,0.0,0.0,0.0,0.0,0.0,0.0,0.0,0.0,0.0,0.0,0.0,0.0,0.0,0.0,0.0,0.0,0.0,0.0,0.0,0.0,0.0,0.0,0.0,0.0,0.0,0.0,0.0,0.0,0.0,0.0,0.0,0.0,0.0,0.0,0.0,0.0,0.0,0.0,0.0,0.0,0.0,0.0,0.0,0.0,0.0,0.0,0.0,0.0,0.0,0.0,0.0,0.0,0.0,0.0,0.0,0.0,0.0,0.0,0.0,0.0,0.0,0.0,0.0,0.0,0.0,0.0,0.0,0.0,0.0,0.0,0.0,0.0,0.0,0.0,0.0,0.0,0.0,0.0,0.0,0.0,0.0,0.0,0.0,0.0,0.0,0.0,0.0,0.0,0.0,0.0,0.0,0.0,0.0,1.9601,1.9917,2.007,1.988,1.8617,1.7608,0.0,0.0,0.0,0.0,0.0,0.0,0.0,0.0,0.0,0.0,0.0,0.0,0.0,0.0,0.0,0.0,0.0,0.0,0.0,0.0,0.0,0.0,0.0,0.0,0.0,0.0,0.0,0.0,0.0,0.0,0.0,0.0,0.0,0.0,0.0,0.0,0.0,0.0,0.0,0.0,0.0,0.0,0.0,0.0,0.0,0.0,0.0,0.0,0.0,0.0,0.0,0.0,0.0,0.0,0.0,0.0,0.0,0.0,0.0,0.0,0.0,0.0,0.0,0.0,0.0,0.0,0.0,0.0,0.0,0.0,0.0,0.0,0.0,0.0,0.0,0.0,0.0,0.0,0.0,0.0,0.0,0.0,0.0,0.0,0.0,0.0,0.0,0.0,0.0,0.0,0.0,0.0,0.0,0.0,0.0,0.0,0.0,0.0,0.0,0.0,0.0,0.0,0.0,0.0,0.0,0.0,0.0,0.0,0.0,1.9687,0.0,2.0282,0.0,1.8735,1.7551,0.0,0.0,0.0,0.0,0.0,0.0,0.0,0.0,0.0,0.0,0.0,0.0,0.0,0.0,0.0,0.0,0.0,0.0,0.0,0.0,0.0,0.0,0.0,0.0,0.0,0.0,0.0,0.0,0.0,0.0,0.0,0.0,0.0,0.0,0.0,0.0,0.0,0.0,0.0,0.0,0.0,0.0,0.0,0.0,0.0,0.0,0.0,0.0,0.0,0.0,0.0,0.0,0.0,0.0,0.0,0.0,0.0,0.0,0.0,0.0,0.0,0.0,0.0,0.0,0.0,0.0,0.0,0.0,0.0,0.0,0.0,0.0,0.0,0.0,0.0,0.0,0.0,0.0,0.0,0.0,0.0,0.0,0.0,0.0,0.0,0.0,0.0,0.0,0.0,0.0,0.0,0.0,0.0,0.0,0.0,0.0,0.0,0.0,0.0,0.0,0.0,0.0,0.0,0.0,0.0,0.0,0.0,0.0,2.0997,2.1164,2.131,2.123,2.0818,1.97,1.8567,0.0,0.0,0.0,0.0,0.0,0.0,0.0,0.0,0.0,0.0,0.0,0.0,0.0,0.0,0.0,0.0,0.0,0.0,0.0,0.0,0.0,0.0,0.0,0.0,0.0,0.0,0.0,0.0,0.0,0.0,0.0,0.0,0.0,0.0,0.0,0.0,0.0,0.0,0.0,0.0,0.0,0.0,0.0,0.0,0.0,0.0,0.0,0.0,0.0,0.0,0.0,0.0,0.0,0.0,0.0,0.0,0.0,0.0,0.0,0.0,0.0,0.0,0.0,0.0,0.0,0.0,0.0,0.0,0.0,0.0,0.0,0.0,0.0,0.0,0.0,0.0,0.0,0.0,0.0,0.0,0.0,0.0,0.0,0.0,0.0,0.0,0.0,0.0,0.0,0.0,0.0,0.0,0.0,0.0,0.0,0.0,0.0,0.0,0.0,0.0,0.0,0.0,0.0,0.0,0.0,0.0,0.0,0.0,0.0,2.1306,2.1986,2.2352,2.2265,2.064,1.9611,0.0,0.0,0.0,0.0,0.0,0.0,0.0,0.0,0.0,0.0,0.0,0.0,0.0,0.0,0.0,0.0,0.0,0.0,0.0,0.0,0.0,0.0,0.0,0.0,0.0,0.0,0.0,0.0,0.0,0.0,0.0,0.0,0.0,0.0,0.0,0.0,0.0,0.0,0.0,0.0,0.0,0.0,0.0,0.0,0.0,0.0,0.0,0.0,0.0,0.0,0.0,0.0,0.0,0.0,0.0,0.0,0.0,0.0,0.0,0.0,0.0,0.0,0.0,0.0,0.0,0.0,0.0,0.0,0.0,0.0,0.0,0.0,0.0,0.0,0.0,0.0,0.0,0.0,0.0,0.0,0.0,0.0,0.0,0.0,0.0,0.0,0.0,0.0,0.0,0.0,0.0,0.0,0.0,0.0,0.0,0.0,0.0,0.0,0.0,0.0,0.0,0.0,0.0,0.0,0.0,0.0,0.0,0.0,0.0,2.4141,2.4352,2.4417,2.4305,2.2606,2.1362,2.0754,0.0,0.0,0.0,0.0,0.0,0.0,0.0,0.0,0.0,0.0,0.0,0.0,0.0,0.0,0.0,0.0,0.0,0.0,0.0,0.0,0.0,0.0,0.0,0.0,0.0,0.0,0.0,0.0,0.0,0.0,0.0,0.0,0.0,0.0,0.0,0.0,0.0,0.0,0.0,0.0,0.0,0.0,0.0,0.0,0.0,0.0,0.0,0.0,0.0,0.0,0.0,0.0,0.0,0.0,0.0,0.0,0.0,0.0,0.0,0.0,0.0,0.0,0.0,0.0,0.0,0.0,0.0,0.0,0.0,0.0,0.0,0.0,0.0,0.0,0.0,0.0,0.0,0.0,0.0,0.0,0.0,0.0,0.0,0.0,0.0,0.0,0.0,0.0,0.0,0.0,0.0,0.0,0.0,0.0,0.0,0.0,0.0,0.0,0.0,0.0,0.0,0.0,0.0,0.0,0.0,0.0,0.0,0.0,2.9096,2.8278,2.7493,2.6787,2.5442,2.3871,0.0,0.0,0.0,0.0,0.0,0.0,0.0,0.0,0.0,0.0,0.0,0.0,0.0,0.0,0.0,0.0,0.0,0.0,0.0,0.0,0.0,0.0,0.0,0.0,0.0,0.0,0.0,0.0,0.0,0.0,0.0,0.0,0.0,0.0,0.0,0.0,0.0,0.0,0.0,0.0,0.0,0.0,0.0,0.0,0.0,0.0,0.0,0.0,0.0,0.0,0.0,0.0,0.0,0.0,0.0,0.0,0.0,0.0,0.0,0.0,0.0,0.0,0.0,0.0,0.0,0.0,0.0,0.0,0.0,0.0,0.0,0.0,0.0,0.0,0.0,0.0,0.0,0.0,0.0,0.0,0.0,0.0,0.0,0.0,0.0,0.0,0.0,0.0,0.0,0.0,0.0,0.0,0.0,0.0,0.0,0.0,0.0,0.0,0.0,0.0,0.0,0.0,0.0,0.0,0.0,0.0,0.0,0.0,0.0,3.1985,3.3415,3.2804,3.0204,2.8339,2.6658,0.0,0.0,0.0,0.0,0.0,0.0,0.0,0.0,0.0,0.0,0.0,0.0,0.0,0.0,0.0,0.0,0.0,0.0,0.0,0.0,0.0,0.0,0.0,0.0,0.0,0.0,0.0,0.0,0.0,0.0,0.0,0.0,0.0,0.0,0.0,0.0,0.0,0.0,0.0,0.0,0.0,0.0,0.0,0.0,0.0,0.0,0.0,0.0,0.0,0.0,0.0,0.0,0.0,0.0,0.0,0.0,0.0,0.0,0.0,0.0,0.0,0.0,0.0,0.0,0.0,0.0,0.0,0.0,0.0,0.0,0.0,0.0,0.0,0.0,0.0,0.0,0.0,0.0,0.0,0.0,0.0,0.0,0.0,0.0,0.0,0.0,0.0,0.0,0.0,0.0,0.0,0.0,0.0,0.0,0.0,0.0,0.0,0.0,0.0,0.0,0.0,0.0,0.0,0.0,0.0,0.0,0.0,0.0,3.1029,3.4112,3.6506,3.6415,3.3642,3.0997,2.875,0.0,0.0,0.0,0.0,0.0,0.0,0.0,0.0,0.0,0.0,0.0,0.0,0.0,0.0,0.0,0.0,0.0,0.0,0.0,0.0,0.0,0.0,0.0,0.0,0.0,0.0,0.0,0.0,0.0,0.0,0.0,0.0,0.0,0.0,0.0,0.0,0.0,0.0,0.0,0.0,0.0,0.0,0.0,0.0,0.0,0.0,0.0,0.0,0.0,0.0,0.0,0.0,0.0,0.0,0.0,0.0,0.0,0.0,0.0,0.0,0.0,0.0,0.0,0.0,0.0,0.0,0.0,0.0,0.0,0.0,0.0,0.0,0.0,0.0,0.0,0.0,0.0,0.0,0.0,0.0,0.0,0.0,0.0,0.0,0.0,0.0,0.0,0.0,0.0,0.0,0.0,0.0,0.0,0.0,0.0,0.0,0.0,0.0,0.0,0.0,0.0,0.0,0.0,0.0,0.0,0.0,0.0,0.0,3.2475,3.5768,3.8446,3.8908,3.6907,3.3552,3.0443,0.0,0.0,0.0,0.0,0.0,0.0,0.0,0.0,0.0,0.0,0.0,0.0,0.0,0.0,0.0,0.0,0.0,0.0,0.0,0.0,0.0,0.0,0.0,0.0,0.0,0.0,0.0,0.0,0.0,0.0,0.0,0.0,0.0,0.0,0.0,0.0,0.0,0.0,0.0,0.0,0.0,0.0,0.0,0.0,0.0,0.0,0.0,0.0,0.0,0.0,0.0,0.0,0.0,0.0,0.0,0.0,0.0,0.0,0.0,0.0,0.0,0.0,0.0,0.0,0.0,0.0,0.0,0.0,0.0,0.0,0.0,0.0,0.0,0.0,0.0,0.0,0.0,0.0,0.0,0.0,0.0,0.0,0.0,0.0,0.0,0.0,0.0,0.0,0.0,0.0,0.0,0.0,0.0,0.0,0.0,0.0,0.0,0.0,0.0,0.0,0.0,0.0,0.0,0.0,0.0,0.0,0.0,0.0,3.4999,3.78,4.0539,4.1217,3.9708,3.5861,3.2536,0.0,0.0,0.0,0.0,0.0,0.0,0.0,0.0,0.0,0.0,0.0,0.0,0.0,0.0,0.0,0.0,0.0,0.0,0.0,0.0,0.0,0.0,0.0,0.0,0.0,0.0,0.0,0.0,0.0,0.0,0.0,0.0,0.0,0.0,0.0,0.0,0.0,0.0,0.0,0.0,0.0,0.0,0.0,0.0,0.0,0.0,0.0,0.0,1.6641,0.0,0.0,0.0,0.0,0.0,0.0,0.0,0.0,0.0,0.0,0.0,0.0,0.0,0.0,0.0,0.0,0.0,0.0,0.0,0.0,0.0,0.0,0.0,0.0,0.0,0.0,0.0,0.0,0.0,0.0,0.0,0.0,0.0,0.0,0.0,0.0,0.0,0.0,0.0,0.0,0.0,0.0,0.0,0.0,0.0,0.0,0.0,0.0,0.0,0.0,0.0,0.0,0.0,0.0,0.0,0.0,0.0,0.0,0.0,3.6722,3.94,4.1524,4.1955,4.0474,3.7831,3.4783,0.0,0.0,0.0,0.0,0.0,0.0,0.0,0.0,0.0,0.0,0.0,0.0,0.0,0.0,0.0,0.0,0.0,0.0,0.0,0.0,0.0,0.0,0.0,0.0,0.0,0.0,0.0,0.0,0.0,0.0,0.0,0.0,0.0,0.0,0.0,0.0,0.0,0.0,0.0,0.0,0.0,0.0,0.0,0.0,0.0,0.0,0.0,0.0,0.0,0.0,0.0,0.0,0.0,0.0,0.0,0.0,0.0,0.0,0.0,0.0,0.0,0.0,0.0,0.0,0.0,0.0,0.0,0.0,0.0,0.0,0.0,0.0,0.0,0.0,0.0,0.0,0.0,0.0,0.0,0.0,0.0,0.0,0.0,0.0,0.0,0.0,0.0,0.0,0.0,0.0,0.0,0.0,0.0,0.0,0.0,0.0,0.0,0.0,0.0,0.0,0.0,0.0,0.0,0.0,0.0,0.0,0.0,3.5426,3.8208,4.0773,4.2319,4.2381,4.0862,3.9411,3.6724,3.2647,0.0,0.0,0.0,0.0,0.0,0.0,0.0,0.0,0.0,0.0,0.0,0.0,0.0,0.0,0.0,0.0,0.0,0.0,0.0,0.0,0.0,0.0,0.0,0.0,0.0,0.0,0.0,0.0,0.0,0.0,0.0,0.0,0.0,0.0,0.0,0.0,0.0,0.0,1.4287,1.5455,0.0,0.0,0.0,0.0,0.0,0.0,0.0,0.0,1.6061,0.0,0.0,0.0,0.0,0.0,0.0,0.0,0.0,0.0,0.0,0.0,0.0,0.0,0.0,0.0,0.0,0.0,0.0,0.0,0.0,0.0,0.0,0.0,0.0,0.0,0.0,0.0,0.0,0.0,0.0,0.0,0.0,0.0,0.0,0.0,0.0,0.0,0.0,0.0,0.0,0.0,0.0,0.0,0.0,0.0,0.0,0.0,0.0,0.0,0.0,0.0,0.0,0.0,0.0,0.0,0.0,3.298,3.7016,4.0165,4.2307,4.426,4.4287,4.2302,4.0383,3.7335,3.3146,0.0,0.0,0.0,0.0,0.0,0.0,0.0,0.0,0.0,0.0,0.0,0.0,0.0,0.0,0.0,0.0,0.0,0.0,0.0,0.0,0.0,0.0,0.0,0.0,0.0,0.0,0.0,0.0,0.0,0.0,0.0,0.0,0.0,0.0,0.0,0.0,0.0,0.0,0.0,1.8045,1.8893,0.0,0.0,0.0,0.0,0.0,0.0,0.0,0.0,1.7164,0.0,0.0,0.0,0.0,0.0,0.0,0.0,0.0,0.0,0.0,0.0,0.0,0.0,0.0,0.0,0.0,0.0,0.0,0.0,0.0,0.0,0.0,0.0,0.0,0.0,0.0,0.0,0.0,0.0,0.0,0.0,0.0,0.0,0.0,0.0,0.0,0.0,0.0,0.0,0.0,0.0,0.0,0.0,0.0,0.0,0.0,0.0,0.0,0.0,0.0,0.0,0.0,0.0,0.0,0.0,3.4478,3.888,4.1949,4.368,4.5056,4.4701,4.2557,4.0097,3.6695,0.0,0.0,0.0,0.0,0.0,0.0,0.0,0.0,0.0,0.0,0.0,0.0,0.0,0.0,0.0,0.0,0.0,0.0,0.0,0.0,0.0,0.0,0.0,0.0,0.0,0.0,0.0,0.0,0.0,0.0,0.0,0.0,0.0,0.0,0.0,0.0,0.0,0.0,0.0,0.0,1.9639,2.0148,1.984,0.0,0.0,0.0,0.0,0.0,0.0,1.6593,1.6894,0.0,0.0,0.0,0.0,0.0,0.0,0.0,0.0,0.0,0.0,0.0,0.0,0.0,0.0,0.0,0.0,0.0,0.0,0.0,0.0,0.0,0.0,0.0,0.0,0.0,0.0,0.0,0.0,0.0,0.0,0.0,0.0,0.0,0.0,0.0,0.0,0.0,0.0,0.0,0.0,0.0,0.0,0.0,0.0,0.0,0.0,0.0,0.0,0.0,0.0,0.0,0.0,0.0,0.0,0.0,3.5954,4.0572,4.3585,4.4887,4.5862,4.5212,4.2678,3.9855,3.6249,0.0,0.0,0.0,0.0,0.0,0.0,0.0,0.0,0.0,0.0,0.0,0.0,0.0,0.0,0.0,0.0,0.0,0.0,0.0,0.0,0.0,0.0,0.0,0.0,0.0,0.0,0.0,0.0,0.0,0.0,0.0,0.0,0.0,0.0,0.0,0.0,0.0,0.0,0.0,0.0,0.0,2.1551,2.1731,2.2123,0.0,0.0,0.0,0.0,1.6535,1.688,0.0,0.0,0.0,0.0,0.0,0.0,0.0,0.0,0.0,0.0,0.0,0.0,0.0,0.0,0.0,0.0,0.0,0.0,0.0,0.0,0.0,0.0,0.0,0.0,0.0,0.0,0.0,0.0,0.0,0.0,0.0,0.0,0.0,0.0,0.0,0.0,0.0,0.0,0.0,0.0,0.0,0.0,0.0,0.0,0.0,0.0,0.0,0.0,0.0,0.0,0.0,0.0,0.0,0.0,0.0,0.0,3.66,4.177,4.4861,4.572,4.7638,4.701,4.3572,4.0601,3.6964,0.0,0.0,0.0,0.0,0.0,0.0,0.0,0.0,0.0,0.0,0.0,0.0,0.0,0.0,0.0,0.0,0.0,0.0,0.0,0.0,0.0,0.0,0.0,0.0,0.0,0.0,0.0,0.0,0.0,0.0,0.0,0.0,0.0,0.0,0.0,0.0,0.0,0.0,0.0,0.0,0.0,2.4049,2.311,2.4468,2.4671,0.0,0.0,2.0955,1.9729,1.9647,0.0,0.0,0.0,0.0,0.0,0.0,0.0,0.0,0.0,0.0,0.0,0.0,0.0,0.0,0.0,0.0,0.0,0.0,0.0,0.0,0.0,0.0,0.0,0.0,0.0,0.0,0.0,0.0,0.0,0.0,0.0,0.0,0.0,0.0,0.0,0.0,0.0,0.0,0.0,0.0,0.0,0.0,0.0,0.0,0.0,0.0,0.0,0.0,0.0,0.0,0.0,0.0,0.0,0.0,0.0,3.3237,3.7785,4.3131,4.6234,4.7005,4.8346,4.7505,4.4251,4.1265,3.7343,0.0,0.0,0.0,0.0,0.0,0.0,0.0,0.0,0.0,0.0,0.0,0.0,0.0,0.0,0.0,0.0,0.0,0.0,0.0,0.0,0.0,0.0,0.0,0.0,0.0,0.0,0.0,0.0,0.0,0.0,0.0,0.0,0.0,0.0,0.0,0.0,0.0,0.0,0.0,0.0,0.0,0.0,2.4687,2.6314,0.0,0.0,0.0,2.3744,2.2797,0.0,0.0,0.0,0.0,0.0,0.0,0.0,0.0,0.0,0.0,0.0,0.0,0.0,0.0,0.0,0.0,0.0,0.0,0.0,0.0,0.0,0.0,0.0,0.0,0.0,0.0,0.0,0.0,0.0,0.0,0.0,0.0,0.0,0.0,0.0,0.0,0.0,0.0,0.0,0.0,0.0,0.0,0.0,0.0,0.0,0.0,0.0,0.0,0.0,0.0,0.0,0.0,0.0,0.0,0.0,0.0,0.0,3.89,4.43,4.7327,4.7906,4.8984,4.8071,4.4925,4.2144,0.0,0.0,0.0,0.0,0.0,0.0,0.0,0.0,0.0,0.0,0.0,0.0,0.0,0.0,0.0,0.0,0.0,0.0,0.0,0.0,0.0,0.0,0.0,0.0,0.0,0.0,0.0,1.3361,0.0,0.0,0.0,0.0,0.0,0.0,0.0,0.0,0.0,0.0,0.0,0.0,0.0,0.0,2.7591,2.662,2.8392,2.9041,0.0,0.0,2.6251,2.5139,2.4973,2.3976,0.0,0.0,0.0,0.0,0.0,0.0,0.0,0.0,0.0,0.0,0.0,0.0,0.0,0.0,0.0,0.0,0.0,0.0,0.0,0.0,0.0,0.0,0.0,0.0,0.0,0.0,0.0,0.0,0.0,0.0,0.0,0.0,0.0,0.0,0.0,0.0,0.0,0.0,0.0,0.0,0.0,0.0,0.0,0.0,0.0,0.0,0.0,0.0,0.0,0.0,0.0,0.0,0.0,0.0,3.4645,3.9775,4.5105,4.7868,4.7939,4.9968,4.9323,4.5737,4.3369,3.9995,0.0,0.0,0.0,0.0,0.0,0.0,0.0,0.0,0.0,0.0,0.0,0.0,0.0,0.0,0.0,0.0,0.0,0.0,0.0,0.0,0.0,0.0,0.0,0.0,0.0,0.0,0.0,0.0,0.0,0.0,0.0,0.0,0.0,0.0,0.0,0.0,0.0,0.0,0.0,0.0,0.0,2.9136,2.9198,3.1073,3.1669,0.0,2.9238,2.8522,2.6345,2.603,2.4972,2.1998,0.0,0.0,0.0,0.0,0.0,0.0,0.0,0.0,0.0,0.0,0.0,0.0,0.0,0.0,0.0,0.0,0.0,0.0,0.0,0.0,0.0,0.0,0.0,0.0,0.0,0.0,0.0,0.0,0.0,0.0,0.0,0.0,0.0,0.0,0.0,0.0,0.0,0.0,0.0,0.0,0.0,0.0,0.0,0.0,0.0,0.0,0.0,0.0,0.0,0.0,0.0,0.0,0.0,3.5487,4.0653,4.5911,4.8578,4.8646,5.0272,4.963,4.6447,4.4654,4.1373,0.0,0.0,0.0,0.0,0.0,0.0,0.0,0.0,0.0,0.0,0.0,0.0,0.0,0.0,0.0,0.0,0.0,0.0,0.0,0.0,0.0,0.0,0.0,0.0,0.0,0.0,0.0,0.0,1.5603,1.553,1.5606,0.0,0.0,0.0,0.0,0.0,0.0,0.0,0.0,0.0,0.0,3.0656,3.1266,3.3288,0.0,0.0,3.2449,3.1475,2.9623,2.8468,2.6785,2.3747,2.1566,0.0,0.0,0.0,0.0,0.0,0.0,0.0,0.0,0.0,0.0,0.0,0.0,0.0,0.0,0.0,0.0,0.0,0.0,0.0,0.0,0.0,0.0,0.0,0.0,0.0,0.0,0.0,0.0,0.0,0.0,0.0,0.0,0.0,0.0,0.0,0.0,0.0,0.0,0.0,0.0,0.0,0.0,0.0,0.0,0.0,0.0,0.0,0.0,0.0,0.0,0.0,0.0,3.6299,4.1508,4.6684,4.9323,4.9323,5.0574,4.9999,4.753,4.5805,4.2685,0.0,0.0,0.0,0.0,0.0,0.0,0.0,0.0,0.0,0.0,0.0,0.0,0.0,0.0,0.0,0.0,0.0,0.0,0.0,0.0,0.0,0.0,0.0,0.0,0.0,0.0,0.0,0.0,1.6857,1.6635,1.7231,0.0,0.0,0.0,0.0,0.0,0.0,0.0,0.0,0.0,0.0,3.1715,3.2823,3.4974,3.6092,3.5118,3.4569,3.3479,3.1393,2.9881,2.7993,2.5158,0.0,0.0,0.0,0.0,0.0,0.0,0.0,0.0,0.0,0.0,0.0,0.0,0.0,0.0,0.0,0.0,0.0,0.0,0.0,0.0,0.0,0.0,0.0,0.0,0.0,0.0,0.0,3.0917,0.0,0.0,2.82,0.0,0.0,0.0,0.0,0.0,0.0,0.0,0.0,0.0,0.0,0.0,0.0,0.0,0.0,0.0,0.0,0.0,0.0,0.0,0.0,0.0,0.0,3.7043,4.2219,4.7394,5.0067,5.0101,5.0845,5.0475,4.8951,4.6819,4.391,4.0054,0.0,0.0,0.0,0.0,0.0,0.0,0.0,0.0,0.0,0.0,0.0,0.0,0.0,0.0,0.0,0.0,0.0,0.0,0.0,0.0,0.0,0.0,0.0,0.0,0.0,0.0,1.9292,1.8579,1.8375,0.0,0.0,0.0,0.0,0.0,0.0,0.0,0.0,0.0,0.0,2.9624,3.2257,3.3815,3.5973,3.6926,3.5456,3.518,3.4125,3.1088,2.9757,2.8286,0.0,0.0,0.0,0.0,0.0,0.0,0.0,0.0,0.0,0.0,0.0,0.0,0.0,0.0,0.0,0.0,0.0,0.0,0.0,0.0,0.0,0.0,0.0,0.0,0.0,0.0,0.0,3.6572,3.5675,0.0,0.0,0.0,0.0,0.0,0.0,0.0,0.0,0.0,0.0,0.0,4.3592,4.3308,0.0,0.0,0.0,0.0,0.0,0.0,0.0,0.0,0.0,0.0,0.0,0.0,3.7797,4.2963,4.7699,5.0338,5.0845,5.1555,5.1014,4.9052,4.789,4.4646,3.9068,0.0,0.0,0.0,0.0,0.0,0.0,0.0,0.0,0.0,0.0,0.0,0.0,0.0,0.0,0.0,0.0,0.0,0.0,0.0,0.0,0.0,0.0,0.0,0.0,0.0,2.0291,0.0,0.0,0.0,0.0,0.0,0.0,0.0,0.0,0.0,0.0,0.0,2.4008,2.7509,3.0318,3.2995,3.5619,3.7085,3.7693,0.0,0.0,0.0,0.0,0.0,0.0,0.0,0.0,0.0,0.0,0.0,0.0,0.0,0.0,2.7851,2.614,2.478,2.3431,2.1908,0.0,0.0,0.0,0.0,0.0,0.0,0.0,0.0,0.0,0.0,0.0,0.0,0.0,0.0,4.1613,4.0669,3.9022,0.0,0.0,0.0,0.0,0.0,0.0,0.0,0.0,4.7608,4.9113,4.9578,4.9351,4.9077,0.0,4.8826,4.6029,0.0,0.0,0.0,0.0,0.0,0.0,0.0,0.0,3.8982,4.3878,4.8357,5.1036,5.1751,5.2195,5.1753,5.0391,4.8741,4.5535,4.059,3.681,3.325,0.0,0.0,0.0,0.0,0.0,0.0,0.0,0.0,0.0,0.0,0.0,0.0,0.0,0.0,0.0,0.0,0.0,0.0,0.0,0.0,0.0,0.0,0.0,2.16,0.0,0.0,0.0,0.0,0.0,0.0,0.0,0.0,0.0,2.1712,2.3258,2.5689,2.8946,3.1237,3.3701,3.6584,0.0,0.0,0.0,0.0,0.0,0.0,0.0,3.1133,3.0577,2.9955,3.0075,3.172,3.2178,3.2512,3.309,0.0,0.0,3.0714,2.9201,2.7879,2.6347,2.5917,2.517,2.3168,2.3801,2.4704,0.0,0.0,0.0,0.0,0.0,0.0,0.0,0.0,4.7656,4.6849,0.0,4.4198,0.0,0.0,0.0,0.0,3.9804,4.2955,0.0,0.0,5.347,5.5051,5.51,5.5703,5.5703,5.5051,5.4919,5.3881,5.161,4.3682,0.0,0.0,0.0,0.0,0.0,0.0,4.0637,4.5111,4.953,5.2167,5.2919,5.2793,5.2726,5.2748,4.9473,4.6645,4.4498,4.0862,3.7115,3.3302,3.0958,0.0,0.0,0.0,0.0,0.0,0.0,0.0,0.0,0.0,0.0,0.0,0.0,0.0,0.0,0.0,0.0,0.0,0.0,0.0,0.0,2.3039,0.0,0.0,0.0,0.0,0.0,0.0,0.0,0.0,0.0,0.0,2.5251,2.5811,2.7451,3.075,0.0,0.0,0.0,0.0,3.9336,3.9336,3.9336,3.8564,3.6319,3.5133,3.4026,3.2648,0.0,0.0,3.6461,3.6886,3.6954,3.706,3.6989,3.6357,3.4109,3.2985,3.1932,3.0494,2.9511,2.8509,2.7139,2.7133,2.766,5.9134,0.0,0.0,0.0,0.0,5.2543,5.3674,5.5015,5.4796,5.3873,5.2433,5.0699,0.0,0.0,0.0,0.0,0.0,0.0,5.1321,5.3675,5.679,5.8565,5.9108,5.8746,5.8456,5.8239,5.7659,5.6208,5.3893,5.1286,4.6858,4.0734,0.0,0.0,0.0,0.0,4.4058,4.75,5.1457,5.3744,5.4333,5.4018,5.347,5.2645,5.0651,4.8839,4.7359,4.42,4.1168,3.8286,3.4562,0.0,0.0,0.0,0.0,0.0,0.0,0.0,0.0,0.0,0.0,0.0,0.0,0.0,0.0,0.0,0.0,0.0,0.0,0.0,2.4287,2.5771,2.6212,0.0,0.0,0.0,0.0,0.0,0.0,0.0,0.0,0.0,3.0802,2.9989,3.056,0.0,0.0,3.5793,3.8284,3.9498,4.013,4.013,4.0586,0.0,3.9322,3.7983,3.7296,3.7962,3.8412,3.8692,3.8572,3.8614,3.8655,3.8655,3.8655,3.8409,3.7742,3.6073,3.4582,3.3529,3.2352,3.101,2.9627,2.949,2.9656,6.6806,6.0456,5.84,5.7593,5.7813,5.8621,5.9845,6.1239,6.1239,6.0481,5.9164,5.7388,5.4802,5.1683,4.9561,0.0,0.0,0.0,5.5884,5.7804,6.0013,6.1462,6.2186,6.1716,6.1317,6.0991,6.0231,5.8875,5.7123,5.6309,5.3554,4.8703,0.0,0.0,4.2328,4.4443,4.7024,5.0047,5.2921,5.4681,5.5189,5.5044,5.4416,5.3363,5.2285,5.1113,4.9796,4.679,4.4021,4.1533,3.7494,3.3904,0.0,0.0,0.0,0.0,0.0,0.0,0.0,0.0,0.0,0.0,0.0,2.0095,2.0683,0.0,0.0,0.0,2.4158,2.5777,2.7323,2.8628,0.0,0.0,0.0,0.0,0.0,0.0,0.0,3.0078,3.1794,3.3458,3.4744,3.4637,3.481,3.5957,3.6616,3.7671,3.9512,0.0,4.1064,4.1424,4.189,4.204,4.1639,4.0757,4.0398,4.124,4.1416,4.1253,4.0832,4.0713,4.051,4.006,3.9905,3.9799,3.9482,3.8003,3.6556,3.5779,3.4974,3.3952,3.2527,3.2085,3.1995,7.2753,7.0367,6.6623,6.442,6.3477,6.431,6.5521,6.6953,6.6916,6.6439,6.5569,6.3722,6.1135,5.8008,5.5535,0.0,5.6645,5.8239,6.0158,6.2304,6.3128,6.3852,6.4577,6.4504,6.407,6.3273,6.2476,6.1652,6.0711,5.9289,5.8166,5.7091,5.0163,4.6835,4.7274,4.8022,4.9788,5.2643,5.4153,5.5213,5.5857,5.5892,5.5462,5.4689,5.4144,5.3119,5.1533,4.871,4.5963,4.3394,3.9904,3.664,3.3758,0.0,0.0,0.0,0.0,0.0,0.0,0.0,0.0,0.0,0.0,0.0,0.0,0.0,0.0,0.0,2.7015,0.0,3.07,3.164,0.0,0.0,0.0,3.1081,3.0924,3.2039,3.2843,3.2895,0.0,0.0,3.7463,3.9113,3.9523,3.7709,3.8702,3.9856,4.0664,4.1394,4.2083,4.3027,4.3275,4.3399,4.3726,4.3647,4.3571,4.3371,4.3114,4.3021,4.2798,4.2642,4.2225,4.1011,4.0769,4.0506,3.9742,3.8963,3.8247,3.7298,3.7078,3.6734,3.547,3.4722,3.4357,7.6717,7.5469,7.3891,7.1358,6.8458,6.9265,7.0183,7.0991,7.0403,6.9706,6.8862,6.7085,6.4738,6.201,6.128,6.1136,6.1571,6.3128,6.4178,6.4794,6.5555,6.6025,6.6207,6.5591,6.4867,6.4106,6.3309,6.2186,6.0846,6.0412,5.9506,5.8094,5.623,5.4242,5.2125,5.2233,5.2967,5.4312,5.5826,5.6786,5.7188,5.7231,5.6662,5.5502,5.4763,5.3146,5.0502,4.9095,4.7198,4.4721,4.1722,3.9249,3.7473,3.3319,0.0,0.0,0.0,0.0,0.0,0.0,0.0,0.0,0.0,2.4821,2.5563,0.0,2.8075,0.0,3.1618,3.3219,3.3602,3.4899,0.0,0.0,3.4748,3.4832,3.5254,3.5933,3.6577,3.7201,3.8251,3.9092,3.955,4.1121,4.1969,4.1359,4.1703,4.2366,4.3132,4.3196,4.3582,4.4587,4.4942,4.5619,4.6708,4.7428,4.7228,4.6453,4.5782,4.4986,4.3816,4.278,4.1881,4.109,4.0535,4.0126,3.9783,3.9679,3.9287,3.8463,3.745,3.6683,3.6489,3.5996,3.5636,7.8956,7.7855,7.7378,7.5689,7.3303,7.3046,7.3156,7.3523,7.312,7.2459,7.1578,6.986,6.8171,6.6611,6.6162,6.5931,6.5917,6.6786,6.7221,6.7184,6.7293,6.7329,6.7293,6.6533,6.57,6.4903,6.3744,6.273,6.186,6.1172,6.053,6.0013,5.9651,5.8601,5.6899,5.6138,5.621,5.7007,5.7789,5.8221,5.8349,5.8107,5.7303,5.5905,5.487,5.3225,5.0802,4.9262,4.7788,4.6388,4.3561,4.1458,4.0288,3.6376,3.3233,0.0,0.0,0.0,0.0,0.0,0.0,0.0,0.0,0.0,0.0,0.0,3.2601,3.4331,3.5987,3.7103,3.7468,3.8944,3.9727,3.9341,3.9289,3.9369,3.9619,3.9481,3.9625,4.0093,4.047,4.0941,4.1524,4.3123,4.4288,4.4459,4.4782,4.4799,4.4334,4.4117,4.4422,4.5485,4.5616,4.6154,4.7767,4.8155,4.8057,4.7381,4.6861,4.6118,4.4938,4.3912,4.295,4.2044,4.1243,4.047,3.9768,3.9625,3.9427,3.8618,3.7895,3.7538,3.7624,3.7211,3.6787,8.0204,7.8919,7.8772,7.8332,7.7494,7.613,7.5432,7.5212,7.5102,7.4625,7.378,7.2241,7.1347,7.0866,7.0102,6.9576,6.9352,6.9243,6.9207,6.9171,6.8452,6.8162,6.8126,6.7438,6.6641,6.57,6.4215,6.3454,6.3309,6.1824,6.1534,6.2259,6.1534,6.11,6.1064,5.9615,5.9108,5.9615,5.9591,5.952,5.9439,5.8858,5.7829,5.626,5.4805,5.3119,5.1244,4.9163,4.7849,4.7355,4.4931,4.3154,4.2159,3.9402,3.6721,0.0,3.3473,0.0,0.0,0.0,0.0,0.0,0.0,0.0,0.0,3.5075,3.7577,3.9187,4.012,4.1001,4.1792,4.324,4.4121,4.4121,4.4139,4.3995,4.3688,4.2905,4.2323,4.2286,4.225,4.2559,4.3451,4.5077,4.6396,4.6662,4.7227,4.6973,4.5358,4.4826,4.5049,4.6083,4.606,4.6719,4.771,4.7904,4.7831,4.7514,4.7339,4.6945,4.6181,4.5386,4.4514,4.321,4.2268,4.1252,3.9654,3.94,3.9182,3.8584,3.8583,3.8648,3.8557,3.8346,3.8099,8.0828,8.0498,7.9837,7.947,7.9286,7.8993,7.8112,7.6796,7.6166,7.5432,7.4632,7.4219,7.3526,7.2656,7.1763,7.0919,7.0149,6.9497,6.9207,6.9207,6.9062,6.8989,6.8959,6.8845,6.7981,6.6569,6.5591,6.4794,6.4142,6.32,6.3164,6.3925,6.3128,6.273,6.2693,0.0,0.0,0.0,6.024,6.0593,6.0626,5.9927,5.8892,5.7485,5.5327,0.0,4.9145,4.8468,4.7038,4.4545,4.4416,0.0,0.0,0.0,0.0,0.0,0.0,0.0,0.0,0.0,0.0,0.0,4.2824,4.1472,3.8428,3.9951,4.1535,4.2506,4.3901,4.5112,4.5865,4.6838,4.7388,4.7388,4.7388,4.7094,4.6358,4.5988,4.5619,4.4964,4.4891,4.4965,4.5388,4.68,4.7588,4.7217,4.8085,4.8379,4.7322,4.6347,4.6233,4.7249,4.8072,4.8818,4.9049,4.9476,4.9522,4.9386,4.8756,4.8092,4.7304,4.6223,4.5,4.365,4.2746,4.1735,4.0056,3.9774,3.9848,3.9507,3.9632,3.9607,3.8995,3.9327,3.9785,8.1634,8.1192,8.0824,8.0413,0.0,8.0051,7.9572,7.8695,7.7733,7.6864,7.6063,7.5599,7.4787,7.3702,7.2109,7.0793,6.975,6.8561,6.8235,6.8597,6.8597,6.8814,6.9207,6.9207,6.8561,6.7366,6.617,6.5374,6.4939,6.378,6.3599,6.4396,6.3563,6.32,6.3164,6.2404,6.158,6.081,6.1208,6.1417,6.1461,6.0788,5.9718,5.8312,5.6045,0.0,0.0,0.0,0.0,0.0,0.0,0.0,0.0,0.0,0.0,4.1185,4.1038,4.1222,4.1679,4.313,4.5112,4.7535,4.882,4.8084,4.4802,4.5003,4.5957,4.7554,4.8472,4.926,5.0011,5.0141,5.0141,5.0105,4.9774,4.9351,4.8908,4.8446,4.8024,4.7585,4.687,4.6633,4.7569,4.7937,4.8323,4.8302,4.8886,4.9228,4.8656,4.7397,4.6884,4.8024,4.9468,5.0172,4.9746,4.9814,4.9878,4.9232,4.879,4.8409,4.8028,4.6778,4.5535,4.4832,4.3905,4.2668,4.1546,4.123,4.1135,4.0698,4.0686,4.0703,4.0289,4.0592,4.0933,8.2527,8.1934,8.1897,8.1526,8.0933,8.0933,8.0859,8.0607,0.0,0.0,0.0,7.6667,7.5678,7.4372,7.2267,7.0556,6.9165,6.7655,6.7366,6.8017,6.8126,6.8633,6.9424,6.9569,6.9176,6.838,6.6931,6.617,6.5953,6.4541,6.4142,6.4685,6.3997,6.3591,6.3345,6.2766,6.2412,6.2412,6.2123,6.205,6.2186,6.1425,6.043,5.9235,5.6852,5.4883,5.346,5.2013,5.1022,5.0618,5.0362,5.0051,4.961,4.871,4.781,4.7058,4.7241,4.7462,4.7609,4.8967,5.0508,5.2197,5.3371,5.2968,5.0362,4.9554,5.0068,5.2234,5.2417,5.2747,5.3555,5.3041,5.2658,5.2601,5.205,5.1573,5.1242,5.0655,5.0141,4.9757,4.8617,4.825,4.9517,4.9334,4.9114,4.9664,4.9994,4.9941,4.9721,4.8776,4.8283,4.9103,5.0396,5.1025,5.0286,5.0082,4.9618,4.8972,4.8732,4.8511,4.8089,4.7261,4.6539,4.6128,4.511,4.4038,4.3093,4.2612,4.239,4.1709,4.1644,4.1794,4.1965,4.2017,4.2017,8.3688,8.3576,8.3576,8.3501,8.3388,8.3388,8.3014,8.2174,7.9953,7.85,7.7732,7.7503,7.6434,7.4749,7.3489,7.1672,6.9352,6.8295,6.7909,6.8054,6.8706,6.9461,7.0227,7.0879,7.077,7.0009,6.9134,6.8307,6.7619,6.6714,6.6351,6.6351,6.5663,6.4903,6.4287,6.4106,6.407,6.4033,6.273,6.2367,6.2983,6.1571,6.0834,6.0741,5.7875,5.562,5.4268,5.3371,5.1903,4.9941,5.1646,5.1756,4.9738,5.1316,5.2013,5.1279,5.2417,5.3518,5.4142,5.5097,5.6308,5.779,5.7593,5.6014,5.3004,5.2601,5.2968,5.3959,5.4179,5.4399,5.5133,5.517,5.5097,5.506,5.4987,5.4399,5.3115,5.2821,5.2197,5.0912,5.0472,5.0288,5.0655,5.1059,5.1059,5.0839,5.1059,5.1393,5.0956,5.1123,5.1126,5.0968,5.1523,5.1727,5.1267,5.099,5.062,4.9952,4.986,4.9397,4.8194,4.8155,4.7801,4.6648,4.6092,4.5387,4.4088,4.3212,4.2937,4.2715,4.2804,4.2931,4.354,4.3652,4.3466,8.4569,8.4192,8.4155,8.4192,8.4155,8.4038,8.3446,8.2553,8.1382,8.0116,7.8899,7.8673,7.7459,7.5588,7.4079,7.2419,7.0647,6.9358,6.8977,6.9321,7.0082,7.0842,7.1603,7.2001,7.2001,7.1567,7.0408,6.9647,6.9213,6.8054,6.7438,6.7366,6.6207,6.5192,6.4468,6.4396,6.4396,6.4359,6.3671,6.349,6.3816,6.2776,6.2086,6.186,5.9602,5.803,5.7019,5.6235,5.5097,5.3555,5.4987,5.5097,5.3628,5.495,5.5647,5.5317,5.5941,5.6712,5.7519,5.829,5.9061,5.9795,5.9538,5.8731,5.7262,5.6308,5.6308,5.7519,5.7666,5.7776,5.8143,5.7813,5.7556,5.7556,5.7189,5.6418,5.5427,5.517,5.4509,5.3041,5.238,5.2123,5.2123,5.205,5.1903,5.1536,5.183,5.1997,5.2149,5.281,5.313,5.2572,5.2705,5.2819,5.2527,5.2102,5.1584,5.0915,5.0822,5.0302,4.9224,4.9113,4.8221,4.6847,4.6178,4.5584,4.4766,4.4432,4.4358,4.4766,4.4804,4.5026,4.5287,4.5361,4.4915,8.539,8.467,8.467,8.4623,8.4551,8.4268,8.3688,8.3007,8.2821,8.1853,8.04,7.9689,7.8245,7.6317,7.4712,7.3349,7.2115,7.0823,7.0484,7.0977,7.1526,7.2219,7.2907,7.2979,7.2871,7.2617,7.1458,7.0734,7.0263,6.914,6.8343,6.7909,6.6569,6.5555,6.4975,6.4939,6.4939,6.4939,6.4968,6.4924,6.4706,6.402,6.3539,6.3189,6.1821,6.0787,6.0285,5.9501,5.8621,5.774,5.8547,5.8731,5.7997,5.8841,5.9465,5.9612,5.9648,5.9905,6.0542,6.1153,6.152,6.152,6.1153,6.1006,6.108,5.9758,5.9208,6.0199,6.0236,6.0272,6.0199,5.9771,5.9478,5.9441,5.8951,5.8107,5.7262,5.7079,5.6455,5.495,5.4106,5.3702,5.3408,5.2931,5.2637,5.2601,5.2527,5.2858,5.3628,5.4326,5.4448,5.4333,5.4101,5.4031,5.4058,5.3615,5.2988,5.2252,5.1992,5.1454,5.0564,4.9766,4.8873,4.7536,4.6661,4.629,4.5955,4.5658,4.5769,4.6104,4.6215,4.6364,4.6327,4.6364,4.6104,8.6212,8.5449,8.5391,8.5308,8.5073,8.4772,8.44,8.408,8.385,8.3137,8.1829,8.0134,7.8364,7.6655,7.5946,7.486,7.3447,7.288,7.2725,7.2766,7.2645,7.3016,7.3812,7.3812,7.3414,7.2834,7.2509,7.1712,7.0553,7.0258,6.9394,6.809,6.7112,6.6641,6.6533,6.6533,6.6569,6.6569,6.6714,6.6409,6.5674,6.4875,6.4904,6.5833,6.4297,6.3533,6.3466,6.2842,6.1667,6.0346,6.152,6.1998,6.1374,6.2622,6.3796,6.442,6.453,6.4651,6.4677,6.4824,6.4751,6.4751,6.3356,6.2842,6.3466,6.2181,6.097,6.0676,6.0456,6.0529,6.0419,6.0382,6.0382,6.0419,6.0272,5.9575,5.8327,5.7886,5.7262,5.5684,5.539,5.5097,5.4363,5.3995,5.4032,5.4032,5.3922,5.4216,5.506,5.5244,5.5633,5.6037,5.5875,5.5478,5.5454,5.5549,5.4912,5.433,5.3759,5.2801,5.1731,5.1065,5.0435,4.8873,4.8407,4.7999,4.7441,4.6958,4.6438,4.6735,4.6773,4.6587,4.655,4.6661,4.6475,8.7498,8.6314,8.6275,8.5848,8.5176,8.481,8.4489,8.4218,8.3854,8.3171,8.2202,8.1153,7.9705,7.8013,7.7653,7.6814,7.5629,7.5505,7.5343,7.5248,7.5152,7.5301,7.552,7.5083,7.4688,7.4192,7.3357,7.2495,7.1743,7.0899,6.9751,6.8357,6.7826,6.7404,6.6939,6.6815,6.6815,6.6932,6.699,6.6923,6.6728,6.5989,6.5724,6.6052,6.5207,6.471,6.4787,6.4457,6.3759,6.2768,6.3686,6.3906,6.3135,6.4163,6.4934,6.5301,6.5338,6.5338,6.5338,6.5338,6.5338,6.5338,6.4237,6.3723,6.398,6.2989,6.2144,6.1924,6.1789,6.1814,6.1789,6.1789,6.1826,6.1851,6.1851,6.1374,6.0272,5.9685,5.8804,5.7262,5.6602,5.5794,5.4656,5.3995,5.4142,5.473,5.4766,5.495,5.6014,5.5904,5.5978,5.6565,5.6492,5.6389,5.6441,5.6058,5.5754,5.5449,5.5159,5.4388,5.3099,5.262,5.1991,5.0024,4.9447,4.9039,4.8444,4.785,4.7293,4.7553,4.7887,4.7924,4.7924,4.7924,4.7924,8.8339,8.6867,8.6523,8.5963,8.5198,8.4787,8.4503,8.4192,8.3838,8.3293,8.2575,8.2222,8.1207,7.9674,7.8928,7.816,7.7553,7.7234,7.7029,7.6866,7.6834,7.6801,7.6728,7.6218,7.5753,7.5293,7.4029,7.3026,7.2423,7.1308,7.0082,6.9151,6.8765,6.8277,6.7673,6.7404,6.7288,6.7346,6.7214,6.7247,6.7369,6.6911,6.6609,6.6572,6.6203,6.5962,6.5962,6.5962,6.5595,6.4824,6.5521,6.5595,6.4861,6.5521,6.5962,6.5962,6.5962,6.5962,6.5962,6.5962,6.5962,6.5888,6.5228,6.4751,6.4604,6.398,6.3514,6.3503,6.3477,6.3392,6.2842,6.2805,6.2805,6.2805,6.2805,6.2475,6.163,6.1043,6.0199,5.8841,5.7997,5.6859,5.5354,5.4509,5.4509,5.5574,5.5464,5.55,5.6712,5.6675,5.6528,5.7005,5.7116,5.7175,5.7228,5.6897,5.6463,5.6359,5.6307,5.5723,5.4613,5.4394,5.3602,5.177,5.06,4.967,4.9336,4.8742,4.8296,4.8704,4.8927,4.8927,4.8667,4.8964,4.9039,8.8339,8.681,8.5932,8.5505,8.5198,8.484,8.4571,8.4305,8.3989,8.3688,8.3378,8.3066,8.2334,8.1175,7.9547,7.8589,7.8411,7.7662,7.7202,7.7134,7.697,7.6838,7.6801,7.6765,7.6327,7.5671,7.4597,7.3338,7.1925,7.1205,7.0784,7.0602,6.9909,6.9449,6.9113,6.8582,6.8255,6.8095,6.7741,6.7506,6.7534,6.7596,6.7577,6.754,6.754,6.7467,6.7504,6.754,6.7173,6.6402,6.7063,6.7136,6.6512,6.71,6.7467,6.7504,6.7504,6.754,6.7467,6.743,6.743,6.7393,6.6659,6.6329,6.6109,6.5411,6.4971,6.5154,6.4971,6.4457,6.3246,6.3135,6.3025,6.3025,6.289,6.2585,6.1777,6.1704,6.119,6.0346,5.9404,5.8267,5.6859,5.5978,5.5941,5.6492,5.6675,5.6932,5.7519,5.7776,5.7776,5.7776,5.785,5.7923,5.7946,5.7638,5.7652,5.7551,5.7044,5.675,5.6366,5.5829,5.4674,5.3643,5.2642,5.1602,5.0525,4.9856,4.9559,4.9559,4.9336,4.9262,4.9522,4.9745,4.9707,8.9485,8.8262,8.6925,8.6212,8.599,8.5241,8.4772,8.4609,8.4343,8.4141,8.387,8.3517,8.3057,8.2527,8.0979,7.9932,7.936,7.8966,7.8532,7.8092,7.7992,7.7668,7.7155,7.7118,7.6946,7.6413,7.5145,7.3721,7.2297,7.1852,7.1538,7.1157,7.077,7.031,6.9741,6.9354,6.899,6.8544,6.8328,6.8074,6.7716,6.766,6.7687,6.7687,6.7687,6.7687,6.7687,6.7687,6.7567,6.7283,6.754,6.7577,6.732,6.753,6.7687,6.7687,6.7687,6.7687,6.7687,6.7687,6.7687,6.7614,6.6953,6.6586,6.6366,6.5778,6.5338,6.5375,6.5338,6.4934,6.464,6.442,6.4395,6.442,6.4383,6.4053,6.3319,6.2732,6.2071,6.119,6.0052,5.8927,5.84,5.7666,5.7262,5.7483,5.7556,5.7703,5.7886,5.7997,5.7997,5.7997,5.7997,5.7997,5.7997,5.796,5.796,5.7923,5.7652,5.7324,5.6955,5.6725,5.5759,5.4773,5.4035,5.3181,5.1955,5.1193,5.0896,5.0599,5.0376,5.0265,5.0525,5.0413,5.0116,8.9867,8.9103,8.7498,8.677,8.6535,8.5588,8.5138,8.5013,8.4856,8.4694,8.4441,8.4078,8.3763,8.3368,8.2304,8.1464,8.0656,8.0121,7.9507,7.8993,7.8699,7.8295,7.7781,7.742,7.7279,7.6966,7.5831,7.4409,7.3207,7.2834,7.2519,7.21,7.1749,7.1259,7.0689,7.0339,6.9929,6.9518,6.9282,6.8926,6.8495,6.8458,6.8458,6.8458,6.8458,6.8054,6.7393,6.754,6.754,6.7393,6.7797,6.8201,6.8421,6.8458,6.8458,6.8458,6.8458,6.8458,6.8458,6.8458,6.8495,6.8458,6.8017,6.7687,6.7614,6.7173,6.6916,6.688,6.6843,6.6806,6.6512,6.6476,6.6182,6.5558,6.5338,6.5081,6.453,6.3723,6.2768,6.1704,6.0713,5.9979,5.9612,5.9134,5.8841,5.8767,5.8584,5.84,5.84,5.8143,5.7997,5.7997,5.829,5.8437,5.851,5.8547,5.8217,5.8107,5.796,5.7706,5.7523,5.7309,5.6863,5.5882,5.5055,5.4275,5.3515,5.2717,5.2271,5.1936,5.1639,5.1454,5.1268,5.0859,5.0599,8.937,8.9141,8.7516,8.6981,8.6905,8.6083,8.5568,8.5566,8.5528,8.5363,8.5111,8.4795,8.4354,8.3934,8.3181,8.2779,8.2216,8.0829,8.0016,7.9727,7.9103,7.8699,7.8442,7.7781,7.7273,7.7127,7.646,7.5562,7.4525,7.3949,7.3634,7.3487,7.2826,7.2336,7.2255,7.1537,7.117,7.0885,7.0356,7.0036,7.0073,6.9853,6.9816,6.9853,6.9889,6.8935,6.6843,6.743,6.7614,6.71,6.8164,6.9265,6.9779,6.9889,7.0,6.9889,7.0,7.0036,7.0,6.9926,6.9853,6.9816,6.9926,6.9706,6.9596,6.9633,6.9596,6.9522,6.9559,6.9522,6.8825,6.8605,6.776,6.5852,6.5595,6.5558,6.5228,6.4567,6.3466,6.2144,6.1557,6.1227,6.0713,6.0456,6.0382,6.0052,5.9722,5.9245,5.9061,5.8657,5.818,5.8217,5.8694,5.9171,5.9184,5.9148,5.8694,5.829,5.8107,5.7918,5.7862,5.7671,5.7374,5.6582,5.598,5.5221,5.4852,5.4128,5.372,5.3385,5.3014,5.2679,5.2382,5.2048,5.1231,9.0211,9.0096,8.9027,8.853,8.8415,8.7651,8.6963,8.6428,8.639,8.6004,8.538,8.5013,8.4741,8.4293,8.3655,8.3272,8.3039,8.2166,8.1382,8.0708,8.0351,7.9617,7.8736,7.8332,7.7598,7.6607,7.624,7.5659,7.4969,7.4632,7.4258,7.3744,7.345,7.2981,7.2519,7.221,7.188,7.1301,7.1036,7.044,6.9486,6.9853,6.9853,6.9412,6.9779,6.9449,6.8311,6.8898,6.9192,6.8935,6.9449,6.9853,7.0073,7.011,7.011,7.011,7.011,7.011,7.011,7.0146,7.022,7.0146,7.0146,7.011,7.011,7.0183,7.0183,7.0146,7.011,6.9963,6.9706,6.9192,6.8385,6.71,6.6953,6.6623,6.5999,6.4971,6.398,6.3392,6.2805,6.2328,6.2144,6.201,6.1557,6.075,6.0639,6.0493,5.9538,5.9465,5.9355,5.9061,5.9551,5.9845,5.9735,5.9771,5.9685,5.9061,5.8657,5.813,5.8074,5.7958,5.7663,5.7386,5.6809,5.6409,5.604,5.5726,5.5317,5.4983,5.4723,5.4314,5.3905,5.32,5.2382,9.0631,9.0517,8.9676,8.9294,8.9218,8.8415,8.7804,8.7269,8.6925,8.6464,8.5925,8.538,8.5035,8.4741,8.4205,8.387,8.3655,8.3301,8.269,8.1877,8.124,8.0483,7.9491,7.884,7.7928,7.679,7.657,7.6313,7.5806,7.5506,7.5102,7.4661,7.4294,7.3927,7.3377,7.3083,7.2642,7.2202,7.1908,7.1284,7.055,7.0734,7.0734,7.0403,7.0734,7.0697,7.0293,7.0734,7.055,7.0,7.0183,7.066,7.0954,7.1284,7.1431,7.1468,7.1725,7.1945,7.1872,7.2055,7.1872,7.1872,7.1872,7.1762,7.1541,7.1431,7.1358,7.1027,7.1027,7.0881,7.055,7.0146,6.9449,6.8641,6.7981,6.7393,6.6549,6.5632,6.4897,6.4494,6.3796,6.3392,6.3282,6.2853,6.2475,6.1557,6.1447,6.1447,6.0382,6.0272,6.0015,5.9979,6.0419,6.0493,6.0272,6.0382,6.0603,5.9979,5.9318,5.8607,5.8176,5.8088,5.7862,5.7935,5.7566,5.7633,5.736,5.7323,5.7063,5.6729,5.6283,5.5837,5.528,5.4351,5.3534,9.0631,9.0478,8.9752,8.9447,8.937,8.8644,8.8301,8.8033,8.7422,8.6981,8.6637,8.5968,8.5446,8.5198,8.4772,8.45,8.4292,8.3989,8.3699,8.3088,8.2186,8.128,8.0725,7.9312,7.8185,7.7494,7.7237,7.72,7.698,7.646,7.613,7.5836,7.5249,7.4918,7.4588,7.4074,7.367,7.3377,7.2863,7.2459,7.2202,7.2349,7.2275,7.2165,7.2239,7.2275,7.2165,7.2165,7.1358,6.9706,7.0734,7.1725,7.2496,7.3266,7.3413,7.3523,7.4404,7.4515,7.4705,7.4368,7.4441,7.4368,7.4368,7.4551,7.3487,7.3193,7.2899,7.2312,7.2275,7.2092,7.1505,7.1146,7.0734,7.0036,6.8862,6.7797,6.6843,6.6586,6.6109,6.5411,6.4677,6.4163,6.4127,6.3539,6.3135,6.2768,6.2365,6.2144,6.1594,6.1263,6.075,6.086,6.1227,6.119,6.1006,6.1337,6.1447,6.0823,6.0162,5.9562,5.8874,5.8713,5.8685,5.8725,5.864,5.8746,5.8772,5.8698,5.8475,5.7992,5.7583,5.7175,5.6432,5.5503,5.4648,9.0631,9.0593,9.0364,9.0249,9.0249,9.002,8.9561,8.8988,8.8721,8.7918,8.7001,8.6581,8.608,8.5363,8.5111,8.4833,8.477,8.4454,8.4192,8.3922,8.3275,8.2163,8.0945,7.9428,7.8516,7.8185,7.7635,7.731,7.7273,7.709,7.6717,7.6093,7.6019,7.5506,7.4955,7.4771,7.4258,7.378,7.3523,7.2789,7.1982,7.2349,7.2202,7.1696,7.2275,7.2532,7.2532,7.2532,7.2312,7.1725,7.1908,7.2569,7.3266,7.3597,7.4001,7.4551,7.4808,7.4925,7.4925,7.4962,7.4925,7.4888,7.5035,7.4588,7.378,7.3707,7.3303,7.2716,7.2496,7.2496,7.2165,7.1725,7.1064,7.0257,6.9743,6.9119,6.8348,6.7724,6.7063,6.6292,6.5558,6.5154,6.4971,6.4714,6.431,6.3943,6.387,6.3759,6.2952,6.2879,6.2622,6.1851,6.1851,6.1851,6.1924,6.2254,6.2218,6.1594,6.1117,6.0786,6.0257,5.9946,6.0052,6.0188,6.0018,6.0014,6.0035,6.0035,5.9627,5.9144,5.8512,5.7918,5.7323,5.6506,5.5689,9.0631,9.0631,9.0631,9.0631,9.0631,9.0631,9.0287,8.9829,8.9409,8.8797,8.7918,8.7498,8.7037,8.6518,8.6011,8.5964,8.6067,8.5629,8.5341,8.4991,8.4229,8.2873,8.1336,8.013,7.9474,7.8645,7.8168,7.7733,7.7451,7.764,7.7561,7.7304,7.7157,7.69,7.657,7.5689,7.5212,7.4735,7.4404,7.367,7.2973,7.3266,7.3266,7.2944,7.3303,7.3523,7.3523,7.3523,7.323,7.2679,7.2532,7.2863,7.3634,7.4037,7.4551,7.5359,7.5689,7.5946,7.5916,7.5879,7.5879,7.5916,7.5879,7.5506,7.4955,7.4698,7.4368,7.3707,7.3523,7.3523,7.3377,7.2789,7.2165,7.1798,7.1321,7.066,6.9559,6.9009,6.8531,6.7871,6.7063,6.6292,6.6256,6.5778,6.5154,6.4787,6.4861,6.4604,6.4163,6.442,6.4347,6.3503,6.3062,6.3209,6.3062,6.3209,6.3062,6.2475,6.2108,6.1777,6.1263,6.0964,6.0836,6.0913,6.1093,6.1187,6.1113,6.0964,6.0593,6.0035,5.9329,5.8884,5.8438,5.7843,5.6989,9.0631,9.0631,9.0631,9.0631,9.0631,9.0631,9.0593,9.044,8.9829,8.9409,8.9065,8.8492,8.8071,8.8033,8.7152,8.7287,8.7936,8.709,8.6604,8.594,8.494,8.3468,8.2177,8.157,8.0644,7.9503,7.9081,7.8486,7.8143,7.8479,7.8699,7.8589,7.8626,7.8589,7.8038,7.7047,7.635,7.5836,7.5285,7.4845,7.4551,7.4551,7.4485,7.4485,7.4485,7.4625,7.4698,7.4668,7.4221,7.2863,7.2753,7.3303,7.4001,7.4735,7.5395,7.6093,7.6717,7.709,7.72,7.7053,7.7163,7.709,7.7127,7.6974,7.613,7.5836,7.5469,7.4632,7.4852,7.4668,7.4588,7.4111,7.3634,7.3266,7.2863,7.1945,7.077,7.0293,7.022,7.0036,6.8641,6.7981,6.743,6.6623,6.5595,6.5925,6.5962,6.5705,6.5375,6.5301,6.5228,6.4861,6.4714,6.4787,6.4494,6.42,6.387,6.3429,6.3099,6.2695,6.2034,6.1616,6.1352,6.138,6.1945,6.2034,6.1856,6.167,6.141,6.1113,6.0555,6.0333,6.0088,5.9367,5.8549,9.0631,9.0631,9.0631,9.0631,9.0631,9.0631,9.0631,9.0593,9.0402,8.9905,8.9409,8.9103,8.8721,8.8148,8.7957,8.7957,8.8186,8.7898,8.7294,8.6153,8.5212,8.4452,8.3573,8.2852,8.1838,8.0984,8.0244,7.967,7.9417,7.9386,7.9543,7.9575,7.9538,7.9213,7.8626,7.8295,7.7341,7.635,7.5983,7.5726,7.5285,7.5249,7.5249,7.5212,7.5139,7.5028,7.4888,7.4888,7.4735,7.4478,7.4515,7.4918,7.5359,7.5652,7.613,7.679,7.709,7.731,7.731,7.7347,7.731,7.7384,7.742,7.6943,7.624,7.6276,7.5836,7.5139,7.4888,7.5109,7.5065,7.4808,7.4441,7.4001,7.3597,7.3083,7.2165,7.1431,7.0844,7.0183,6.9376,6.8641,6.8605,6.7797,6.721,6.7173,6.699,6.6843,6.6586,6.6256,6.6072,6.5852,6.5778,6.5668,6.5264,6.4897,6.453,6.4127,6.3833,6.3759,6.3038,6.2597,6.2409,6.2586,6.2997,6.2917,6.2576,6.2413,6.2153,6.193,6.1744,6.1373,6.1001,6.0481,5.9812,9.0631,9.0631,9.0631,9.0631,9.0631,9.0631,9.0631,9.0631,9.0631,9.0364,8.9982,8.9905,8.9676,8.9218,8.8874,8.8835,8.9065,8.8797,8.8103,8.7209,8.6535,8.6105,8.5455,8.4527,8.3613,8.2258,8.1434,8.0778,8.029,8.0419,8.0535,8.0441,8.0441,8.0231,7.969,7.936,7.8736,7.8148,7.7818,7.7598,7.7268,7.7194,7.7194,7.7194,7.7194,7.7194,7.7304,7.7268,7.7231,7.7194,7.7157,7.6717,7.6166,7.613,7.6533,7.7127,7.731,7.731,7.731,7.7677,7.7965,7.7928,7.8222,7.8222,7.7928,7.7818,7.7451,7.6864,7.6644,7.6533,7.6063,7.5616,7.5212,7.4918,7.4441,7.4074,7.356,7.2606,7.1762,7.1174,7.0587,6.9926,6.9412,6.8715,6.8054,6.7687,6.7504,6.7393,6.732,6.7026,6.6953,6.6769,6.6623,6.6402,6.5925,6.5558,6.5191,6.4751,6.431,6.442,6.4299,6.3886,6.3577,6.3659,6.3678,6.3497,6.323,6.3044,6.3044,6.2896,6.2673,6.2227,6.1893,6.1596,6.0741,9.0631,9.0631,9.0631,9.0631,9.0631,9.0631,9.0631,9.0631,9.0631,9.0555,9.0593,9.0631,9.044,9.0402,8.9829,8.9982,9.0135,8.9638,8.8718,8.8259,8.7857,8.7416,8.6837,8.6165,8.5134,8.3003,8.2601,8.1923,8.1421,8.1437,8.171,8.1526,8.1408,8.1166,8.0823,8.0351,7.9764,7.9433,7.936,7.9396,7.9396,7.9396,7.9396,7.936,7.9323,7.9286,7.925,7.936,7.9612,7.9832,7.9832,7.8662,7.7341,7.6717,7.69,7.7745,7.7892,7.7965,7.8112,7.8405,7.8772,7.8809,7.9323,7.9543,7.9433,7.9103,7.8662,7.8332,7.7892,7.7671,7.731,7.6717,7.624,7.5946,7.5395,7.5102,7.4698,7.3634,7.301,7.2496,7.1541,7.0697,7.0183,6.9596,6.8862,6.8238,6.8091,6.8017,6.7981,6.7871,6.776,6.754,6.7357,6.7136,6.6696,6.6476,6.6072,6.5485,6.4934,6.4861,6.5033,6.4475,6.3983,6.4116,6.4062,6.4067,6.4196,6.4308,6.4233,6.401,6.3936,6.3862,6.3416,6.2822,6.1856,9.0631,9.0631,9.0631,9.0631,9.0631,9.0631,9.0631,9.0631,9.0631,9.0631,9.0631,9.0631,9.0631,9.0555,9.0517,9.0517,9.0402,8.9791,8.9256,8.895,8.8568,8.811,8.7822,8.7184,8.6295,8.5469,8.4605,8.3763,8.3195,8.3228,8.2842,8.269,8.2456,8.2023,8.1323,8.0828,8.053,8.0199,8.0089,8.0089,8.0089,8.0057,8.0052,8.0089,8.0126,8.0052,7.9947,7.9905,7.9832,7.9832,7.9832,7.958,7.9213,7.9103,7.914,7.9103,7.914,7.9066,7.914,7.9396,7.958,7.9617,7.9874,7.9507,7.914,7.8919,7.8772,7.8038,7.7671,7.7457,7.731,7.7053,7.679,7.635,7.6019,7.5726,7.5212,7.4661,7.4184,7.3707,7.2496,7.1248,7.077,7.0293,6.9743,6.9265,6.9155,6.9119,6.9155,6.8898,6.8641,6.8348,6.8017,6.776,6.7467,6.7357,6.7063,6.6329,6.5742,6.5143,6.5048,6.4598,6.4389,6.5077,6.5271,6.5338,6.5459,6.5422,6.5348,6.5125,6.5311,6.5534,6.4865,6.4159,6.3713,9.0631,9.0631,9.0631,9.0631,9.0631,9.0631,9.0631,9.0631,9.0631,9.0631,9.0631,9.0631,9.0631,9.0631,9.0631,9.0631,9.044,9.0249,8.9752,8.937,8.9332,8.9103,8.8797,8.8124,8.7985,8.7552,8.6767,8.5375,8.4255,8.3949,8.373,8.3292,8.3106,8.2621,8.206,8.1923,8.1639,8.124,8.1139,8.1108,8.1044,8.1012,8.1012,8.1012,8.0975,8.1012,8.1012,8.1048,8.1048,8.1048,8.1048,8.1048,8.1012,8.0901,8.0645,8.0052,7.9837,7.9869,7.991,8.0094,8.0424,8.0461,8.0718,8.0608,8.0094,7.9837,7.9176,7.8222,7.742,7.731,7.731,7.731,7.7341,7.7341,7.7011,7.6754,7.657,7.5983,7.5359,7.4771,7.367,7.2459,7.1284,7.0844,7.0513,7.033,7.022,7.022,7.0293,6.9889,6.9486,6.8862,6.8458,6.8128,6.7934,6.7861,6.7557,6.6906,6.6418,6.582,6.5713,6.5521,6.6063,6.6865,6.6913,6.6587,6.6091,6.5868,6.6017,6.6165,6.6091,6.6017,6.5868,6.5496,6.5013,9.0631,9.0631,9.0631,9.0631,9.0631,9.0631,9.0631,9.0631,9.0631,9.0631,9.0631,9.0631,9.0631,9.0631,9.0631,9.0631,9.0631,9.0593,9.0173,8.9905,9.0135,9.0135,8.9714,8.937,8.912,8.8811,8.8162,8.7073,8.5735,8.5207,8.4757,8.4572,8.4189,8.3814,8.3633,8.3588,8.3263,8.3076,8.295,8.2817,8.2545,8.2443,8.2333,8.2223,8.2186,8.2113,8.2003,8.1966,8.2003,8.2003,8.2039,8.2113,8.215,8.2186,8.1562,8.0534,8.0277,8.0277,8.0461,8.0828,8.1232,8.1269,8.1819,8.1636,8.1085,8.0424,7.9984,7.8809,7.8075,7.7457,7.7347,7.731,7.7708,7.8075,7.7818,7.7488,7.7671,7.7268,7.6276,7.5542,7.4735,7.3891,7.2826,7.2092,7.1908,7.1615,7.1505,7.1138,7.1138,7.066,7.0146,6.9376,6.8862,6.8458,6.8265,6.8245,6.7767,6.7059,6.6706,6.6316,6.654,6.6752,6.7407,6.7876,6.7975,6.7577,6.6945,6.6574,6.6945,6.7057,6.6722,6.6685,6.6908,6.6685,6.6165,9.0631,9.0631,9.0631,9.0631,9.0631,9.0631,9.0631,9.0631,9.0631,9.0631,9.0631,9.0631,9.0631,9.0631,9.0631,9.0631,9.0631,9.0593,9.0517,9.0326,9.0517,9.0517,9.0287,8.9638,8.9523,8.9409,8.8683,8.8051,8.7438,8.7246,8.695,8.649,8.6166,8.6147,8.5545,8.5283,8.5454,8.5089,8.4817,8.424,8.3427,8.3284,8.288,8.2476,8.2219,8.2219,8.2219,8.2219,8.2186,8.2186,8.2186,8.2186,8.2186,8.2186,8.215,8.1966,8.1893,8.1893,8.1782,8.1819,8.1893,8.1893,8.2113,8.1746,8.1122,8.0351,7.9653,7.8736,7.8405,7.8002,7.742,7.731,7.775,7.7965,7.7855,7.7892,7.8148,7.7708,7.6827,7.6497,7.5726,7.5322,7.4595,7.3964,7.3377,7.3046,7.2716,7.2349,7.1945,7.1505,7.0881,7.0146,6.955,6.9109,6.8943,6.8897,6.8546,6.7616,6.7473,6.7255,6.759,6.7998,6.7926,6.8284,6.8568,6.8778,6.837,6.8208,6.8208,6.7948,6.7614,6.7874,6.8221,6.7837,6.7168,9.0631,9.0631,9.0631,9.0631,9.0631,9.0631,9.0631,9.0631,9.0631,9.0631,9.0631,9.0631,9.0631,9.0631,9.0631,9.0631,9.0631,9.0631,9.0631,9.0631,9.0631,9.0631,9.0517,9.0249,9.0058,8.9905,8.9752,8.9676,8.9231,8.8362,8.7671,8.7467,8.7203,8.6845,8.6932,8.6546,8.6153,8.5715,8.53,8.4848,8.4387,8.3949,8.3544,8.3139,8.267,8.2422,8.2389,8.2219,8.2186,8.2186,8.2186,8.2186,8.2186,8.2186,8.2186,8.2223,8.2663,8.2627,8.226,8.2223,8.2223,8.2186,8.215,8.1819,8.1048,8.0314,7.9507,7.8662,7.8589,7.8222,7.7567,7.731,7.7818,7.8075,7.8075,7.8259,7.8332,7.7604,7.709,7.6937,7.6717,7.6313,7.5842,7.5139,7.4331,7.3744,7.3487,7.3193,7.2826,7.2386,7.1688,7.0917,7.0358,6.9844,6.9779,6.9723,6.9794,6.9258,6.9273,6.913,6.9059,6.921,6.9137,6.9372,6.9905,6.9967,6.9781,6.936,6.8951,6.8691,6.8481,6.8518,6.8518,6.8444,6.7911,9.0631,9.0631,9.0631,9.0631,9.0631,9.0631,9.0631,9.0631,9.0631,9.0631,9.0631,9.0631,9.0631,9.0631,9.0631,9.0631,9.0631,9.0631,9.0631,9.0631,9.0631,9.0631,9.0593,9.0555,9.0555,9.0631,9.0402,9.0402,9.0075,8.9418,8.8662,8.828,8.844,8.8188,8.7909,8.7827,8.761,8.7061,8.6572,8.6152,8.572,8.5237,8.4805,8.4312,8.3682,8.3156,8.3065,8.2945,8.2884,8.2553,8.259,8.2517,8.226,8.2443,8.259,8.2774,8.3287,8.3361,8.2884,8.259,8.2406,8.226,8.215,8.1966,8.1489,8.0645,8.0057,7.947,7.9396,7.8883,7.8185,7.8038,7.8589,7.8809,7.8662,7.8809,7.8772,7.8222,7.7818,7.7635,7.7451,7.7127,7.665,7.6063,7.5359,7.4551,7.4184,7.4001,7.367,7.3266,7.2716,7.1982,7.1516,7.0992,7.0643,7.0615,7.0649,7.0682,7.0697,7.0565,7.0298,7.0349,7.0411,7.0759,7.1155,7.1143,7.0958,7.0252,6.9583,6.9187,6.889,6.8593,6.8518,6.8556,6.8518,9.0631,9.0631,9.0631,9.0631,9.0631,9.0631,9.0631,9.0631,9.0631,9.0631,9.0631,9.0631,9.0631,9.0631,9.0631,9.0631,9.0631,9.0631,9.0631,9.0631,9.0631,9.0631,9.0631,9.0631,9.0631,9.0631,9.0631,9.0631,9.0593,9.0343,9.0169,9.036,8.9833,9.0143,8.9958,8.9421,8.911,8.8666,8.826,8.7848,8.7473,8.7061,8.6678,8.5898,8.5485,8.5152,8.4912,8.4437,8.3978,8.339,8.3243,8.3133,8.2872,8.2986,8.317,8.3504,8.4095,8.4058,8.3544,8.3141,8.2847,8.2443,8.2186,8.215,8.1893,8.2003,8.1562,8.0718,8.0388,8.0094,7.9727,7.9653,7.9617,7.9617,7.9433,7.9507,7.9396,7.8993,7.8589,7.8369,7.8185,7.7965,7.7635,7.7047,7.6203,7.5395,7.4955,7.4771,7.4515,7.4111,7.378,7.3259,7.2822,7.2253,7.1572,7.1534,7.1622,7.1542,7.1446,7.1313,7.1093,7.1267,7.1612,7.1787,7.2072,7.2072,7.1949,7.1106,7.0363,6.9732,6.9298,6.9261,6.915,6.9187,6.9038,9.0631,9.0631,9.0631,9.0631,9.0631,9.0631,9.0631,9.0631,9.0631,9.0631,9.0631,9.0631,9.0631,9.0631,9.0631,9.0631,9.0631,9.0631,9.0631,9.0631,9.0631,9.0631,9.0631,9.0631,9.0631,9.0631,9.0631,9.0631,9.0631,9.0784,9.0631,9.0593,9.0784,9.0572,9.0508,9.0257,8.9897,8.9654,8.9336,8.8915,8.87,8.8097,8.7641,8.7227,8.6162,8.5797,8.546,8.5091,8.4783,8.4493,8.4051,8.3866,8.3761,8.3807,8.3926,8.4301,8.497,8.4829,8.4168,8.3691,8.303,8.2406,8.2186,8.2186,8.2186,8.2186,8.1782,8.1269,8.1048,8.0755,7.9984,7.9795,7.98,8.0057,8.0204,8.0277,8.0057,7.969,7.9433,7.925,7.9066,7.8846,7.8479,7.8075,7.7157,7.6276,7.5873,7.5506,7.5285,7.4955,7.4625,7.4206,7.3771,7.3369,7.2687,7.2593,7.2632,7.2526,7.2381,7.2306,7.2295,7.2481,7.2778,7.2927,7.2878,7.2804,7.2506,7.1849,7.118,7.0586,7.0264,7.019,7.0041,6.9868,6.9805,9.0631,9.0631,9.0631,9.0631,9.0631,9.0631,9.0631,9.0631,9.0631,9.0631,9.0631,9.0631,9.0631,9.0631,9.0631,9.0631,9.0631,9.0631,9.0631,9.0631,9.0631,9.0631,9.0631,9.0669,9.0746,9.0861,9.0975,9.1052,9.1548,9.1395,9.151,9.151,9.1319,9.1243,9.053,9.0317,9.0098,8.9982,9.0115,8.9841,8.969,8.9487,8.8972,8.8646,8.7743,8.7285,8.7033,8.6721,8.6287,8.5885,8.5483,8.5237,8.5084,8.5002,8.488,8.5308,8.5695,8.5781,8.4976,8.3948,8.3104,8.2333,8.2186,8.2186,8.2186,8.2186,8.1893,8.1562,8.1379,8.1085,8.0461,8.0681,8.0755,8.1085,8.1048,8.1048,8.0828,8.0534,8.0314,8.0131,7.9837,7.9433,7.9103,7.8626,7.7818,7.7047,7.668,7.635,7.6166,7.5836,7.5432,7.5007,7.4572,7.4208,7.3804,7.3922,7.4047,7.4185,7.4041,7.3818,7.3781,7.3818,7.3547,7.325,7.3212,7.3335,7.3101,7.2618,7.2035,7.1441,7.1243,7.107,7.0821,7.0646,7.0843,9.0631,9.0631,9.0631,9.0631,9.0631,9.0631,9.0631,9.0631,9.0631,9.0631,9.0631,9.0631,9.0631,9.0631,9.0631,9.0631,9.0631,9.0631,9.0631,9.0631,9.0631,9.0631,9.0631,9.0669,9.0937,9.1586,9.1663,9.193,9.2809,9.2618,9.2733,9.2771,9.2504,9.2121,9.0763,9.0648,9.0589,9.0742,9.1386,9.1152,9.0825,9.0955,9.0654,8.9877,8.9311,8.8822,8.8587,8.825,8.782,8.7408,8.7136,8.679,8.6329,8.6378,8.6326,8.6343,8.6682,8.6513,8.5781,8.4278,8.3394,8.2663,8.2663,8.2443,8.2296,8.2223,8.215,8.1856,8.1966,8.2039,8.2003,8.2003,8.1856,8.1782,8.1709,8.1636,8.1415,8.1305,8.1085,8.0975,8.0351,7.9764,7.9507,7.9134,7.84,7.7781,7.7414,7.7127,7.6937,7.6607,7.6166,7.5735,7.533,7.5068,7.4876,7.5318,7.5527,7.5639,7.5453,7.497,7.4747,7.4635,7.4227,7.367,7.3807,7.4179,7.3881,7.3435,7.3278,7.3181,7.2212,7.1889,7.16,7.1879,7.252,9.0631,9.0631,9.0631,9.0631,9.0631,9.0631,9.0631,9.0631,9.0631,9.0631,9.0631,9.0631,9.0631,9.0631,9.0631,9.0631,9.0631,9.0631,9.0631,9.0631,9.0631,9.0631,9.0631,9.0708,9.1052,9.1625,9.1854,9.2312,9.3038,9.3229,9.3153,9.3115,9.3153,9.2847,9.2427,9.2274,9.2274,9.2312,9.2444,9.2253,9.1548,9.1663,9.1446,9.047,9.0128,8.9939,8.9767,8.9475,8.9107,8.8692,8.839,8.8022,8.7705,8.7735,8.728,8.7347,8.7591,8.6963,8.6336,8.5419,8.4878,8.4114,8.332,8.3063,8.2994,8.2443,8.226,8.2186,8.2186,8.2186,8.215,8.2113,8.2039,8.2076,8.2039,8.2039,8.1929,8.1893,8.1782,8.1782,8.1415,8.0924,8.0551,8.0,7.9264,7.8609,7.8241,7.7739,7.7414,7.7188,7.6857,7.642,7.6051,7.5863,7.5847,7.6161,7.6233,7.6159,7.5936,7.5564,7.5416,7.5378,7.5193,7.4784,7.4922,7.4996,7.4893,7.4872,7.5247,7.5022,7.4434,7.4121,7.4179,7.4688,7.5434,9.0631,9.0631,9.0631,9.0631,9.0631,9.0631,9.0631,9.0631,9.0631,9.0631,9.0631,9.0631,9.0631,9.0631,9.0631,9.0631,9.0631,9.0631,9.0631,9.0631,9.0631,9.0631,9.0631,9.0746,9.1357,9.1892,9.2389,9.2809,9.407,9.3726,9.3421,9.3268,9.3382,9.3535,9.3421,9.3268,9.2962,9.3038,9.3153,9.3153,9.2618,9.2465,9.2367,9.1648,9.1232,9.0943,9.0561,9.0252,8.998,8.9676,8.9349,8.911,8.9074,8.8786,8.8298,8.8426,8.8205,8.77,8.7328,8.7217,8.6709,8.6252,8.4848,8.3893,8.357,8.3055,8.2582,8.2366,8.226,8.226,8.2296,8.2296,8.2333,8.2333,8.2333,8.2333,8.226,8.2186,8.215,8.2186,8.2178,8.1764,8.1418,8.0898,8.0235,7.9615,7.9063,7.8603,7.8204,7.8051,7.7855,7.7415,7.7229,7.7188,7.7005,7.6903,7.6911,7.6716,7.6621,7.6526,7.6233,7.6233,7.6084,7.5888,7.5692,7.5686,7.6119,7.6368,7.6723,7.7151,7.7304,7.704,7.6919,7.7083,7.7451,9.0631,9.0631,9.0631,9.0631,9.0631,9.0631,9.0631,9.0631,9.0631,9.0631,9.0631,9.0631,9.0631,9.0631,9.0631,9.0631,9.0631,9.0631,9.0631,9.0631,9.0631,9.0631,9.0746,9.0861,9.1816,9.2695,9.3268,9.3803,9.5255,9.4529,9.3803,9.3459,9.3841,9.407,9.3994,9.3879,9.3573,9.3803,9.407,9.3879,9.3421,9.3688,9.3361,9.282,9.2531,9.2111,9.1724,9.1397,9.1037,9.0716,9.047,9.0323,9.0144,8.9873,8.9591,8.9272,8.8924,8.8738,8.8579,8.8476,8.8504,8.7864,8.6541,8.5107,8.4198,8.3945,8.3447,8.2986,8.281,8.259,8.248,8.2553,8.2627,8.2627,8.2627,8.2517,8.2406,8.2333,8.2296,8.2292,8.2251,8.2054,8.1702,8.1255,8.1163,8.0973,8.0567,8.0395,7.9996,7.9553,7.9275,7.8692,7.8549,7.8627,7.8369,7.793,7.7862,7.7744,7.7851,7.7777,7.7483,7.7212,7.7143,7.6909,7.6319,7.6439,7.729,7.7823,7.8201,7.8598,7.8959,7.8808,7.8293,7.823,7.8428,9.0631,9.0631,9.0631,9.0631,9.0631,9.0631,9.0631,9.0631,9.0631,9.0631,9.0631,9.0631,9.0631,9.0631,9.0631,9.0631,9.0631,9.0631,9.0631,9.0631,9.0631,9.0975,9.1243,9.151,9.2542,9.3421,9.4108,9.4414,9.514,9.4758,9.3879,9.3382,9.3764,9.4108,9.4338,9.4643,9.4643,9.472,9.4949,9.4643,9.4223,9.4338,9.3955,9.3535,9.3344,9.2847,9.2274,9.2007,9.1586,9.0899,9.0669,9.0546,9.034,9.0014,8.9676,8.9324,8.9167,8.9141,8.9167,8.9167,8.9231,8.9269,8.8288,8.7316,8.6189,8.515,8.4521,8.3926,8.3643,8.357,8.3533,8.357,8.357,8.357,8.3533,8.3488,8.3378,8.3194,8.3084,8.261,8.2569,8.2544,8.2159,8.2173,8.2086,8.211,8.2036,8.1925,8.1673,8.1118,8.0615,7.9991,7.9819,7.9809,7.9253,7.8789,7.8815,7.884,7.8927,7.8927,7.8578,7.8316,7.8328,7.8154,7.7754,7.8134,7.8875,7.9215,7.9333,7.9722,8.0049,7.9896,7.9724,7.9513,7.9524,9.0631,9.0631,9.0631,9.0631,9.0631,9.0631,9.0631,9.0631,9.0631,9.0631,9.0631,9.0631,9.0631,9.0631,9.0631,9.0631,9.0631,9.0631,9.0631,9.0631,9.0631,9.1128,9.1548,9.1969,9.2809,9.3803,9.449,9.472,9.5064,9.4299,9.3344,9.216,9.2962,9.3306,9.3573,9.4185,9.4911,9.5102,9.5255,9.5216,9.5064,9.4834,9.449,9.4146,9.3994,9.3497,9.2886,9.2771,9.2351,9.1739,9.1586,9.1565,9.1479,9.1286,9.1157,9.0998,9.0974,9.1036,9.0998,9.0556,9.038,9.0118,8.978,8.8918,8.7848,8.6743,8.5714,8.4825,8.4797,8.4731,8.4768,8.4805,8.4768,8.4768,8.469,8.4645,8.4461,8.424,8.3761,8.3176,8.2982,8.296,8.2936,8.2948,8.2927,8.2861,8.2875,8.2859,8.266,8.2341,8.1797,8.1205,8.1045,8.096,8.0368,7.9951,8.0047,8.0071,7.992,7.9845,7.9581,7.9256,7.9091,7.9198,7.9388,7.9648,7.9747,8.0104,8.0315,8.0596,8.0723,8.0549,8.0417,8.0413,8.0515,9.0555,9.0631,9.0631,9.0631,9.0631,9.0631,9.0631,9.0631,9.0631,9.0631,9.0631,9.0631,9.0631,9.0631,9.0631,9.0631,9.0631,9.0631,9.0631,9.0631,9.0631,9.1128,9.1854,9.2045,9.3191,9.4032,9.4567,9.4796,9.472,9.3917,9.2542,9.0784,9.1586,9.216,9.2465,9.3841,9.4605,9.4758,9.5216,9.5522,9.5522,9.556,9.5598,9.5484,9.5331,9.5102,9.449,9.4185,9.4032,9.3382,9.3038,9.2924,9.2826,9.2804,9.2782,9.276,9.2503,9.2481,9.2252,9.1794,9.1572,9.1244,9.0835,8.9958,8.8871,8.8035,8.6967,8.6382,8.6283,8.6283,8.6283,8.6283,8.6283,8.6283,8.6239,8.6071,8.5797,8.5416,8.4719,8.4108,8.3687,8.3627,8.3325,8.3268,8.3113,8.3289,8.3424,8.3499,8.3573,8.3312,8.2882,8.2345,8.2181,8.2046,8.1722,8.14,8.1458,8.1426,8.11,8.0721,8.038,8.0055,7.9789,7.9874,7.9958,8.0141,8.0335,8.0578,8.0758,8.0877,8.0959,8.1045,8.1045,8.1036,8.0975,9.002,9.0593,9.0631,9.0631,9.0631,9.0631,9.0631,9.0631,9.0631,9.0631,9.0631,9.0631,9.0631,9.0631,9.0631,9.0631,9.0631,9.0746,9.0631,9.0746,9.0746,9.1701,9.2542,9.2847,9.3764,9.4796,9.5216,9.4758,9.407,9.3268,9.2389,9.0975,9.1472,9.193,9.2045,9.3612,9.4414,9.4452,9.514,9.5598,9.5598,9.5598,9.5598,9.5598,9.5522,9.5216,9.472,9.4414,9.3917,9.3268,9.3153,9.3077,9.3077,9.3153,9.3153,9.3115,9.3306,9.3382,9.3153,9.2656,9.2198,9.1718,9.1092,9.0418,8.9711,8.911,8.8586,8.812,8.7798,8.7761,8.7723,8.7723,8.7723,8.7723,8.7818,8.7455,8.7164,8.6498,8.576,8.5209,8.4626,8.4262,8.3921,8.367,8.3409,8.3452,8.3692,8.387,8.4155,8.4092,8.3816,8.3386,8.3219,8.3051,8.2917,8.288,8.2927,8.2567,8.2166,8.1708,8.125,8.106,8.0869,8.0469,8.0411,8.0884,8.1089,8.0831,8.1003,8.1369,8.1516,8.167,8.1516,8.143,8.1215,8.9256,9.002,9.044,9.0631,9.0631,9.0631,9.0631,9.0631,9.0631,9.0631,9.0631,9.0631,9.0631,9.0631,9.0631,9.0631,9.0708,9.1052,9.1166,9.1204,9.1586,9.258,9.3229,9.365,9.4452,9.5369,9.5446,9.4911,9.3764,9.3573,9.3038,9.1892,9.2198,9.2389,9.2542,9.3688,9.4414,9.4452,9.5216,9.556,9.5598,9.5598,9.5598,9.5598,9.5522,9.5255,9.5178,9.4949,9.4681,9.4376,9.4338,9.4299,9.4338,9.4376,9.4299,9.4299,9.4299,9.4223,9.3917,9.3421,9.2847,9.252,9.2078,9.1636,9.1636,9.1036,9.0033,8.951,8.8753,8.8624,8.8624,8.8624,8.8624,8.8651,8.8743,8.8662,8.8474,8.8114,8.737,8.6743,8.6208,8.5802,8.5524,8.5274,8.4993,8.4673,8.4732,8.4568,8.4793,8.487,8.4588,8.4404,8.4242,8.4369,8.4459,8.4404,8.4399,8.3919,8.327,8.2943,8.258,8.2253,8.1925,8.1716,8.1716,8.2071,8.2155,8.1843,8.2013,8.25,8.2477,8.2401,8.217,8.2016,8.2093,8.8492,8.937,9.0249,9.0631,9.0631,9.0631,9.0631,9.0631,9.0631,9.0631,9.0631,9.0631,9.0631,9.0631,9.0631,9.0631,9.0822,9.1319,9.1625,9.193,9.2542,9.3268,9.3841,9.4376,9.4911,9.5293,9.5522,9.5064,9.4261,9.4146,9.3841,9.3268,9.3115,9.3115,9.3382,9.3879,9.4414,9.4605,9.5102,9.5522,9.5598,9.5598,9.5598,9.5598,9.5598,9.5598,9.5598,9.556,9.556,9.5484,9.5331,9.5293,9.5255,9.5216,9.5293,9.5255,9.5216,9.5255,9.5178,9.4529,9.4299,9.401,9.3535,9.3153,9.3055,9.2519,9.1497,9.0911,9.0159,8.9679,8.9679,8.949,8.949,8.9516,8.9629,8.9741,8.9553,8.9427,8.8809,8.8152,8.7705,8.7281,8.7018,8.676,8.6428,8.6127,8.5853,8.569,8.5566,8.5469,8.5321,8.5245,8.5207,8.5417,8.5624,8.5504,8.5262,8.4993,8.4366,8.416,8.3808,8.3149,8.2902,8.3182,8.3253,8.316,8.3198,8.3022,8.3324,8.3478,8.3208,8.2939,8.3016,8.2939,8.3208,8.7957,8.937,9.0249,9.0631,9.0631,9.0631,9.0631,9.0631,9.0631,9.0631,9.0631,9.0631,9.0631,9.0631,9.0631,9.0631,9.0746,9.1472,9.1778,9.193,9.3038,9.3726,9.4261,9.4681,9.4949,9.5293,9.5522,9.5102,9.472,9.449,9.4032,9.3344,9.3229,9.3268,9.3344,9.3917,9.4567,9.4796,9.514,9.5598,9.5598,9.5598,9.5598,9.5598,9.5598,9.5598,9.5598,9.5598,9.5598,9.5598,9.5598,9.5598,9.5598,9.5598,9.5598,9.5598,9.5598,9.5598,9.5369,9.4949,9.4681,9.4529,9.3917,9.3459,9.3399,9.3361,9.271,9.2618,9.1949,9.1317,9.105,9.0418,9.019,9.0279,9.0383,9.0345,9.0247,9.0143,8.9825,8.926,8.8742,8.8442,8.8166,8.7861,8.744,8.7156,8.6937,8.6767,8.6661,8.6411,8.6111,8.6171,8.6209,8.594,8.5958,8.5915,8.5753,8.5615,8.5363,8.4901,8.4362,8.3708,8.3632,8.4093,8.3939,8.3692,8.3747,8.4132,8.3939,8.3939,8.367,8.3478,8.367,8.3862,8.4132]}]]